GEFSMA_500_meanwind_000.txt.gz
Wind_Speed
33 31 31 32 33 34 33 33 31 27 27 27 28 28 26 23 22 24 25 24 25 26 26 26 26 23 22 21 18 18 21 22 22 21 20 19 18 17 17 16 15 14 12
37 36 35 34 34 34 34 33 34 34 34 32 32 34 33 30 27 27 27 27 27 29 30 29 30 28 25 24 23 21 21 22 22 22 22 22 21 20 19 18 18 17 15
37 37 37 38 37 36 36 35 36 36 37 37 36 36 38 37 40 38 33 32 31 32 33 33 32 31 28 26 25 24 23 24 24 23 23 23 23 23 21 20 20 19 18
36 35 37 38 37 38 37 38 39 38 40 41 41 42 42 42 43 44 38 33 32 34 35 35 36 35 32 29 26 26 26 26 25 25 24 25 24 24 23 22 21 20 17
37 37 38 38 39 40 42 43 42 41 40 43 45 44 43 44 45 44 40 38 37 34 36 38 39 39 36 34 30 29 28 27 26 26 26 26 26 25 26 25 20 18 17
41 40 41 43 43 42 43 44 43 42 43 45 47 47 46 44 43 40 36 34 33 33 36 39 41 40 39 37 35 31 29 27 27 26 27 27 28 27 27 27 23 21 21
42 41 40 40 41 41 41 42 43 43 44 45 46 48 46 42 38 37 37 32 33 35 37 38 40 40 41 39 37 32 31 27 26 26 27 27 29 31 30 29 27 25 25
40 40 41 41 42 41 40 41 42 42 42 42 43 44 43 40 37 39 41 37 35 36 37 36 38 38 39 36 36 34 32 28 27 26 26 29 30 30 31 31 30 28 28
35 36 38 40 41 41 41 42 42 43 43 42 43 45 43 39 39 39 40 37 37 37 35 33 38 39 35 35 35 31 30 28 28 30 31 31 30 30 31 31 31 30 30
37 36 37 39 40 42 44 44 44 45 45 44 45 45 45 42 40 37 35 38 38 30 28 28 34 36 33 34 33 31 30 29 30 33 32 29 28 28 28 31 32 31 29
39 39 40 41 43 45 45 45 46 47 47 46 46 44 42 41 37 34 35 37 33 28 25 27 33 34 33 33 32 32 32 33 35 32 30 28 27 25 25 27 30 30 29
40 40 40 41 43 44 44 45 47 48 47 46 47 47 44 38 34 33 32 32 25 26 27 33 32 34 34 33 35 35 35 38 34 33 31 28 26 23 23 25 24 24 27
41 40 41 42 42 43 43 42 43 44 44 46 47 45 42 40 35 30 30 30 30 29 28 27 29 35 35 37 38 36 36 34 31 29 28 28 27 25 24 25 24 25 26
43 43 42 43 42 42 41 41 41 42 44 48 48 45 40 37 31 27 28 30 34 35 30 22 22 29 32 35 35 35 35 32 29 28 28 27 27 26 25 26 27 28 29
45 45 44 42 42 41 40 41 39 35 36 39 42 40 34 29 23 22 25 28 30 34 35 32 31 32 33 29 26 26 28 28 27 27 27 26 26 26 26 27 28 29 30
41 42 42 42 42 41 40 37 31 29 29 28 26 26 28 25 28 26 25 26 29 31 36 37 30 25 22 22 25 25 26 27 28 28 28 27 27 26 27 27 28 30 31
39 40 41 42 42 38 32 27 25 24 22 20 20 21 22 22 27 30 30 32 34 32 31 24 15 15 18 21 25 28 28 27 28 29 30 31 31 31 32 32 33 33 33
34 37 37 37 35 32 30 26 19 20 21 20 23 24 25 27 31 32 30 28 26 23 16 11 12 16 19 20 21 24 25 26 27 28 30 30 31 32 32 33 35 35 36
30 32 33 32 31 27 28 23 21 21 20 18 19 16 16 19 27 26 24 20 17 13 11 16 17 18 21 24 25 25 24 24 25 28 30 30 31 32 33 35 36 38 39
24 24 25 25 22 18 20 22 23 22 21 23 22 17 15 19 18 18 17 15 14 16 19 21 22 23 24 25 25 25 26 26 27 29 31 32 34 35 36 37 38 37 39
18 18 20 17 17 18 16 16 21 23 23 22 18 15 14 15 12 11 14 15 16 18 21 23 23 23 23 24 25 26 28 29 31 33 35 36 38 38 38 38 38 38 39
16 13 15 12 11 12 14 15 17 16 18 18 15 14 14 14 12 12 13 15 16 17 18 20 22 21 22 24 26 28 29 30 32 34 36 38 41 42 43 44 44 44 43
14 11 14 13 12 10 7 8 11 16 17 17 16 16 15 13 14 13 13 14 15 15 15 17 19 20 21 23 24 24 25 27 28 30 31 34 36 38 39 42 43 45 46
18 13 13 14 15 13 10 10 12 14 17 18 18 15 15 15 16 15 14 15 14 12 12 13 15 15 15 17 19 24 28 31 34 36 37 38 41 42 44 44 43 42 44
20 15 16 16 17 17 14 12 13 15 15 16 17 17 15 14 13 13 13 12 11 11 10 9 11 14 17 20 23 26 30 33 35 37 39 41 41 42 43 43 42 42 42
21 18 18 19 21 23 21 15 11 10 10 12 12 11 10 10 10 10 10 10 10 9 9 11 13 17 20 24 27 31 34 35 36 36 37 39 37 34 35 36 34 33 35

GEFSMA_500_meanwind_006.txt.gz
Wind_Speed
38 38 36 35 35 36 37 37 36 36 35 34 33 32 31 30 30 30 29 26 24 22 22 23 25 25 25 24 22 20 18 16 14 14 14 15 16 16 15 13 13 13 12
42 42 40 38 37 38 40 40 39 39 39 37 36 35 34 32 31 31 32 29 28 28 29 27 28 29 29 29 26 25 23 21 19 17 16 15 15 17 17 17 16 15 14
43 44 42 39 38 39 40 40 40 40 41 40 40 38 35 33 32 32 34 34 32 32 31 31 30 31 33 32 31 29 28 26 23 21 19 17 16 17 19 19 19 18 16
40 39 39 38 39 40 40 41 40 39 39 39 38 36 34 34 35 35 35 34 34 34 33 33 33 32 33 35 35 33 32 30 28 25 22 20 18 18 19 20 20 19 16
40 40 39 38 38 39 40 42 42 42 43 43 41 38 37 38 38 36 34 34 35 35 35 34 34 34 33 35 37 38 37 34 32 29 26 23 20 19 19 21 21 19 17
40 40 39 39 39 40 41 42 43 44 45 44 43 40 38 37 37 36 33 33 34 35 34 33 34 33 33 34 37 39 39 38 36 34 30 26 24 22 21 21 21 20 19
37 37 36 35 36 37 38 40 42 43 44 44 43 40 38 37 35 34 33 33 33 33 33 32 32 32 32 34 35 38 40 39 39 37 34 29 27 25 23 22 21 21 21
35 36 35 34 34 35 35 36 38 39 41 41 41 39 36 35 35 35 35 35 34 34 33 32 33 34 33 33 34 38 40 41 41 40 38 34 30 27 25 23 22 22 24
37 38 38 37 37 37 35 34 34 35 37 38 38 37 36 35 37 36 36 37 37 36 35 34 34 34 33 33 35 39 41 42 42 43 41 37 33 30 27 25 24 24 26
39 40 40 40 39 39 37 36 35 35 35 36 36 37 38 37 36 35 36 36 36 35 34 34 34 33 32 32 33 35 37 39 41 42 42 38 34 31 28 26 26 26 27
37 39 41 42 42 41 39 38 37 36 35 35 36 37 39 39 38 37 34 33 34 34 33 33 32 32 30 29 31 33 34 36 37 37 38 36 33 31 27 26 27 27 28
37 37 39 41 42 42 42 40 39 38 36 36 36 37 38 39 38 38 35 32 32 32 31 29 29 28 26 26 28 30 32 33 32 31 33 34 33 30 27 27 28 28 29
36 37 38 39 40 40 41 42 42 41 38 38 38 38 38 38 38 37 36 35 33 32 30 29 28 26 25 26 27 28 30 30 30 31 32 33 32 30 28 30 30 30 29
37 37 37 38 39 39 40 41 42 42 41 40 39 38 38 38 38 37 37 35 33 31 30 28 28 27 26 26 28 28 29 30 31 32 32 32 32 31 32 32 33 32 31
38 38 37 36 36 37 37 38 39 40 41 41 39 39 39 38 37 36 35 32 29 26 25 26 28 27 26 28 28 28 28 31 33 35 35 35 34 34 35 34 35 35 35
39 40 38 35 34 34 33 33 34 35 37 38 38 39 38 36 35 34 32 29 26 24 23 23 23 23 24 28 29 27 27 30 32 35 35 33 32 33 34 35 36 37 37
40 40 38 34 33 32 31 30 30 31 33 34 35 34 33 32 32 31 28 27 26 25 24 22 22 22 24 26 26 26 26 25 24 24 25 25 27 30 32 34 36 37 39
39 40 37 34 31 29 28 27 27 28 29 30 28 27 25 25 25 26 27 27 27 26 24 23 22 23 24 25 24 22 21 20 20 21 22 24 27 30 32 34 36 38 40
38 38 37 35 32 28 25 24 23 23 24 23 23 22 23 25 25 26 27 28 27 25 24 23 22 21 21 20 18 18 18 18 19 20 21 23 25 27 30 33 35 37 38
38 37 35 34 32 29 25 23 21 19 19 19 21 22 24 26 27 28 28 28 26 23 22 21 20 18 16 16 16 16 18 19 20 21 22 23 24 26 28 31 34 36 38
40 37 34 33 31 28 24 21 19 17 17 19 20 22 24 25 25 26 25 25 24 21 19 18 18 17 16 16 16 16 17 17 19 21 23 25 27 29 31 33 35 36 38
41 38 33 32 29 26 22 19 17 15 17 20 21 21 23 23 22 19 17 17 17 17 18 18 17 17 16 15 14 14 15 17 19 21 23 25 27 29 31 33 36 38 41
42 39 33 30 28 25 22 18 17 15 16 19 21 22 20 19 18 17 16 17 17 18 17 16 15 13 12 11 12 13 15 16 18 20 22 24 26 28 30 33 36 39 41
42 39 34 30 28 25 22 20 18 17 16 17 19 19 18 17 16 16 17 17 17 16 14 12 11 10 9 9 10 11 13 15 17 20 22 25 27 29 31 35 38 41 44
42 39 34 30 28 26 23 20 19 19 19 18 17 17 17 17 17 17 16 16 15 13 11 11 10 9 8 8 9 11 13 15 17 20 22 25 26 28 30 32 35 38 41
43 40 36 31 29 27 24 22 21 21 19 18 17 17 17 18 17 17 17 16 14 13 12 11 11 9 8 8 9 10 11 13 15 17 19 20 21 22 24 27 29 31 33

GEFSMA_500_meanwind_012.txt.gz
Wind_Speed
40 40 40 39 39 40 41 42 42 42 41 40 38 38 38 39 39 38 35 32 30 28 26 26 26 26 25 24 24 24 23 23 22 20 19 18 19 20 20 20 19 17 16
37 37 38 38 39 39 40 40 40 41 41 41 39 39 39 40 41 42 40 38 34 30 28 27 26 27 27 27 27 26 27 27 26 25 23 21 20 20 21 22 22 20 19
34 34 34 34 34 35 35 34 34 35 35 37 37 37 37 37 39 41 41 39 37 33 30 28 27 28 28 28 29 29 29 30 30 29 28 26 24 23 22 23 24 24 22
31 31 32 32 33 35 35 36 36 36 35 36 37 37 38 37 37 37 36 36 35 33 32 31 30 30 30 30 30 31 32 32 33 33 32 31 29 27 25 25 25 26 26
29 29 30 31 32 33 35 36 37 37 37 38 39 39 39 39 38 36 34 32 32 32 32 33 33 33 32 32 32 33 34 35 35 35 36 35 34 32 29 28 27 27 27
25 26 28 30 32 33 35 36 37 38 38 38 39 39 38 38 38 37 36 35 34 33 33 34 35 35 35 35 34 35 36 37 37 37 38 38 38 36 34 32 30 29 29
19 21 23 26 29 32 35 37 38 38 38 38 38 37 36 36 35 35 34 35 35 34 34 35 36 36 37 36 36 36 37 38 39 39 40 40 41 41 39 37 34 31 30
14 16 18 21 24 28 32 35 38 39 40 40 40 39 37 35 34 33 33 33 33 34 34 35 36 36 37 37 36 37 38 39 39 39 39 40 41 42 42 41 38 34 31
14 16 18 20 22 25 28 32 36 38 40 41 42 41 39 37 35 34 33 32 32 32 33 34 35 36 38 38 38 38 39 40 39 39 39 39 40 42 42 43 42 38 34
17 18 20 21 23 26 29 31 34 37 38 40 42 42 41 39 37 35 33 32 32 33 34 34 35 36 37 38 39 39 40 40 40 40 40 39 39 41 42 44 44 41 37
19 19 21 22 24 26 29 31 33 35 37 38 40 42 42 41 38 36 34 33 33 34 35 35 35 36 36 37 37 37 38 39 40 40 40 40 40 40 42 43 44 43 40
21 21 22 24 25 27 30 32 32 32 34 36 38 40 41 41 40 38 36 35 34 34 35 35 34 35 35 36 36 36 37 36 37 37 37 38 38 38 40 42 45 45 43
24 23 24 25 27 28 30 32 32 32 32 32 33 35 38 39 39 39 37 35 35 34 33 33 33 34 34 35 35 35 35 34 34 35 35 35 35 36 37 39 43 45 45
26 25 25 26 27 28 29 32 33 32 31 30 30 31 33 36 38 38 37 36 35 35 34 33 34 34 34 34 35 34 34 33 32 33 33 33 35 37 38 38 41 45 45
29 27 26 27 27 27 29 31 33 33 31 29 28 28 30 32 35 37 36 36 35 35 35 34 35 34 34 34 34 34 34 32 31 30 29 29 31 34 36 38 41 44 45
32 30 28 27 27 27 28 30 32 33 31 28 27 26 27 29 32 34 35 36 36 36 36 36 35 34 34 33 33 32 32 32 31 29 27 27 26 28 33 37 40 42 43
35 32 30 28 28 28 28 30 32 33 32 29 27 26 26 28 30 32 34 35 36 37 36 36 35 34 34 33 31 30 30 30 29 28 27 26 26 26 30 34 37 40 43
38 34 32 31 31 30 30 31 32 33 32 30 28 27 26 26 28 30 32 33 34 34 35 35 35 34 32 30 29 27 28 28 27 28 28 27 26 27 29 32 36 39 43
40 37 35 33 33 33 33 33 34 33 33 31 29 27 26 24 25 26 28 28 29 31 32 32 32 32 31 29 28 27 26 26 27 27 27 25 25 24 24 25 27 30 34
43 40 38 37 37 36 36 35 35 35 33 30 28 27 24 22 21 21 23 23 24 25 26 28 29 30 29 27 26 26 26 25 23 22 21 20 19 18 18 18 19 21 23
48 44 42 41 41 40 39 37 36 35 33 30 27 25 22 19 18 18 19 20 23 25 26 28 29 29 29 27 25 25 23 20 18 17 16 16 16 16 17 18 19 21 22
54 50 47 46 44 43 42 40 37 36 33 30 26 23 20 19 17 18 19 20 23 27 29 31 32 30 29 25 24 22 20 18 16 16 15 15 16 17 19 20 22 23 24
62 57 54 51 49 46 44 41 37 35 33 30 26 23 20 19 18 18 19 21 23 25 29 32 32 29 26 23 21 19 18 17 16 15 15 16 17 18 19 20 21 23 24
67 62 56 52 49 47 44 40 38 36 33 30 27 24 21 20 19 19 20 21 23 25 27 29 28 24 21 19 18 18 17 16 15 15 15 15 16 17 18 19 21 22 24
65 62 58 53 49 47 44 40 39 37 34 31 29 25 23 21 20 20 20 21 22 23 24 23 21 20 19 18 17 16 15 14 13 13 13 14 15 15 16 18 20 21 23
58 56 54 51 48 45 43 41 39 38 35 32 30 27 24 22 21 20 20 21 21 21 21 20 19 18 18 17 16 14 13 12 11 11 11 12 12 13 14 15 17 19 21

GEFSMA_500_meanwind_018.txt.gz
Wind_Speed
30 30 30 31 32 33 35 35 36 37 37 37 37 35 34 31 32 34 34 33 33 33 32 31 30 29 27 26 25 23 22 21 21 20 19 18 18 18 18 19 19 19 18
30 29 29 29 29 29 29 29 29 29 30 30 28 28 29 30 28 30 33 33 33 33 33 34 34 33 32 31 29 28 26 25 23 23 22 22 21 21 20 20 20 20 20
30 29 28 27 27 27 26 26 26 27 28 29 29 30 28 28 28 29 30 30 32 33 32 33 33 34 35 35 32 31 30 29 27 26 25 25 25 24 24 23 22 22 22
30 28 27 26 25 24 25 25 26 27 27 28 28 29 29 29 27 28 28 29 30 30 30 30 30 30 32 36 34 33 31 31 30 29 28 27 27 27 27 27 26 25 24
28 27 26 24 22 22 22 22 23 24 25 26 28 29 30 30 29 29 28 29 29 29 29 29 29 28 28 32 35 34 33 32 32 32 31 30 30 30 30 30 31 29 28
26 24 23 21 20 19 18 18 18 19 21 23 25 27 29 30 31 30 29 28 27 27 26 27 28 27 27 27 31 32 32 33 33 33 33 33 32 32 32 33 33 33 32
24 21 19 17 16 15 15 15 16 17 19 22 24 25 28 29 31 31 31 30 28 26 25 25 26 27 27 28 30 31 31 33 33 33 34 34 34 34 34 34 35 36 36
20 18 17 16 15 15 16 16 16 17 20 22 24 25 26 28 31 32 32 31 29 28 26 25 25 26 28 29 31 31 32 32 32 33 33 34 34 34 34 35 36 37 38
19 18 19 19 19 19 18 18 17 18 19 22 25 27 27 26 29 31 32 32 31 30 28 27 26 25 27 29 31 31 32 32 32 32 33 33 33 33 34 34 35 36 37
21 21 22 22 22 22 21 20 20 20 21 22 26 28 29 29 28 28 30 31 31 30 30 29 28 26 26 27 28 29 30 31 32 32 32 33 33 33 33 33 34 34 36
23 24 25 25 24 24 24 23 23 23 23 24 25 27 28 29 29 28 26 29 30 30 30 30 30 29 26 26 26 27 28 29 30 30 31 32 33 33 33 33 33 34 35
27 27 28 28 28 27 27 26 25 26 26 26 27 27 27 28 29 29 26 26 28 29 30 29 29 30 28 25 24 25 26 27 28 29 30 31 32 32 32 32 33 34 35
32 31 31 31 31 31 29 29 28 28 28 28 28 27 27 27 28 28 26 24 26 27 28 29 28 29 28 26 25 25 24 25 26 28 29 30 31 31 31 30 31 32 33
36 36 35 34 34 34 33 32 31 31 30 29 29 28 26 26 27 27 26 24 24 25 27 28 28 28 28 27 26 25 24 25 27 27 29 29 30 30 30 29 30 30 31
40 40 39 39 39 38 38 36 34 33 32 31 30 29 27 26 27 26 25 24 23 23 26 28 28 28 28 28 26 25 25 26 27 28 28 29 29 29 29 28 28 28 29
47 45 43 43 42 41 41 39 37 35 34 33 31 30 29 27 26 26 25 24 23 22 24 26 28 29 29 28 27 27 27 27 27 28 28 29 29 28 27 26 25 25 26
54 52 49 47 44 43 43 41 39 38 36 35 33 32 30 28 27 26 24 23 22 22 23 25 27 28 28 29 28 28 29 28 28 28 28 28 28 27 27 25 24 23 23
61 57 54 52 50 47 45 44 42 40 39 37 35 33 31 29 28 26 24 23 22 21 21 23 25 27 28 29 29 29 29 29 29 28 27 26 26 25 25 24 23 22 22
64 62 59 56 54 52 50 47 45 42 41 39 37 35 32 29 28 26 24 22 21 20 19 21 24 26 28 29 29 30 30 29 29 28 26 25 24 23 23 22 22 22 23
68 66 64 61 57 54 53 51 49 46 44 42 39 36 33 30 28 26 24 22 20 19 18 20 22 24 26 27 28 29 28 28 27 26 24 23 22 20 20 20 20 21 20
75 72 70 67 64 62 58 56 55 52 49 45 42 37 33 30 28 26 24 21 19 18 18 19 21 23 24 25 25 26 26 25 25 24 22 20 19 19 18 17 17 16 16
81 80 77 75 71 68 65 61 58 55 52 48 43 38 34 31 28 26 23 21 19 18 18 19 21 22 22 23 23 24 24 26 26 24 21 19 18 18 17 15 14 14 13
70 75 78 78 75 72 68 63 59 55 51 48 45 40 36 32 29 26 24 21 19 18 17 18 18 19 20 21 23 23 24 26 25 22 20 17 16 16 14 13 13 13 13
41 49 57 64 68 69 68 66 60 55 51 48 45 42 37 34 31 27 24 21 20 18 18 18 17 18 20 22 24 25 25 25 23 20 18 15 14 14 13 13 13 12 12
34 34 37 43 50 56 61 62 61 57 51 48 43 40 37 35 32 28 25 22 20 19 18 18 18 19 20 22 25 26 25 24 21 18 16 15 14 13 12 12 11 11 10
35 34 32 32 35 42 48 53 55 54 50 48 45 41 38 36 34 31 27 25 22 20 19 19 19 20 21 22 24 24 23 21 18 16 15 14 13 12 11 10 9 9 9

GEFSMA_500_meanwind_024.txt.gz
Wind_Speed
23 22 22 21 22 23 24 25 25 25 25 25 24 24 23 23 22 21 20 21 22 24 26 27 28 27 27 26 24 23 23 22 21 20 19 18 17 16 16 15 15 14 14
24 23 23 22 22 22 23 24 24 25 25 23 21 20 20 20 20 18 18 19 19 20 22 24 27 28 28 29 28 27 27 26 25 24 23 22 21 20 19 18 17 16 15
25 24 23 23 23 23 23 24 24 23 22 21 20 19 17 17 17 17 18 19 19 19 20 21 24 26 27 28 30 30 30 29 29 28 27 26 24 23 22 21 20 19 18
24 24 23 22 23 23 23 23 22 21 20 18 16 15 14 15 15 16 17 18 19 20 20 22 23 23 26 26 28 30 30 32 33 32 31 30 28 26 25 24 23 23 21
24 24 23 22 22 22 21 21 20 19 16 14 12 11 11 11 12 14 15 17 18 20 21 22 23 23 25 26 27 29 30 32 35 36 35 34 32 30 28 27 26 26 25
24 24 23 22 20 19 18 18 17 16 14 12 10 10 9 9 10 12 14 15 17 20 21 23 24 25 26 27 28 29 31 32 35 37 38 37 35 33 31 29 28 28 27
23 23 23 21 19 18 16 16 15 15 14 13 12 11 10 9 10 11 13 15 17 19 21 23 25 26 27 28 29 30 31 33 36 38 40 39 37 35 34 32 31 30 30
24 23 22 20 19 18 17 16 17 17 16 15 14 12 12 11 11 12 13 15 17 19 20 23 26 28 29 29 29 30 31 33 35 38 41 42 40 37 35 34 33 32 31
23 23 22 21 20 20 19 19 19 19 19 17 16 14 13 13 14 14 14 15 17 19 20 23 26 29 31 31 30 30 31 32 34 37 40 42 41 38 36 35 34 33 32
23 23 23 23 23 23 22 22 21 21 21 21 19 17 15 14 14 17 17 16 17 19 20 22 24 28 30 31 31 31 31 31 33 35 39 41 40 37 35 34 33 33 32
25 25 26 26 26 26 26 25 24 23 24 24 22 21 19 17 15 16 19 20 18 19 20 22 23 26 29 31 32 31 30 29 31 33 36 39 38 37 34 33 32 32 32
28 28 29 30 30 30 29 28 27 26 26 27 26 24 23 21 19 18 19 21 21 21 20 21 23 24 26 29 31 31 29 27 27 30 32 34 34 32 31 31 31 31 31
33 33 33 33 33 33 34 33 31 30 30 29 29 28 26 25 24 22 20 20 21 22 22 21 21 22 24 26 29 29 28 27 25 24 26 27 28 29 29 29 29 29 29
41 39 38 36 36 37 37 38 36 35 34 33 32 31 29 28 27 25 24 22 21 23 23 22 21 21 23 25 26 27 26 25 23 21 21 22 24 25 25 26 27 27 28
47 47 46 44 42 41 42 42 41 40 38 37 35 34 33 31 30 28 26 24 22 22 24 24 21 21 22 24 26 26 25 24 22 21 19 20 21 22 23 25 26 27 27
53 52 53 52 50 48 47 46 45 44 42 41 39 37 36 34 32 30 29 26 24 23 23 24 22 21 22 24 26 25 25 24 23 22 22 22 22 23 24 25 26 26 26
57 57 57 58 57 56 54 52 50 48 47 45 43 41 38 36 34 32 30 28 26 24 23 23 22 22 22 23 26 27 26 25 25 24 24 24 24 24 25 25 25 25 25
63 62 62 62 62 61 60 58 56 53 51 49 47 44 41 39 36 34 32 30 29 26 24 23 23 23 22 23 25 26 27 26 26 26 25 25 25 25 25 24 24 24 24
65 67 67 66 66 66 64 63 60 58 56 53 51 48 45 42 39 36 34 32 30 28 25 24 24 23 22 22 24 26 27 27 27 26 26 26 25 25 25 24 24 24 24
58 64 68 70 71 70 69 66 64 61 59 56 54 51 48 45 42 39 36 34 32 30 27 25 24 23 21 20 22 24 25 26 26 26 25 25 25 25 24 24 23 23 23
40 47 55 64 70 73 73 71 68 64 61 58 55 52 50 47 45 42 38 36 33 31 28 26 24 22 20 18 19 21 22 23 24 24 24 24 24 24 23 22 22 21 21
32 33 37 44 53 62 70 73 72 68 64 60 56 53 51 49 46 44 40 37 35 32 29 26 25 23 20 18 18 18 19 21 21 22 22 23 22 22 21 21 20 20 20
36 35 33 34 36 41 51 62 69 70 67 63 58 55 52 49 46 44 42 39 36 33 31 27 25 23 20 19 18 18 18 18 19 19 20 20 20 20 20 21 21 20 19
38 37 35 33 32 32 34 41 53 62 65 64 60 57 53 50 48 45 43 40 37 35 32 28 25 22 21 20 19 19 18 18 19 19 19 19 19 20 20 20 20 19 19
40 39 37 35 33 31 30 30 35 46 55 60 61 58 55 52 49 45 43 41 38 35 33 29 25 23 21 20 19 19 18 18 18 19 18 19 19 19 20 21 20 19 18
42 40 39 38 35 33 30 28 27 32 42 50 56 58 56 53 50 47 43 41 38 36 33 29 26 23 22 21 20 20 18 18 18 18 18 18 19 19 19 20 20 19 18

GEFSMA_500_meanwind_030.txt.gz
Wind_Speed
27 26 25 24 24 24 24 25 24 24 24 24 24 24 23 23 22 22 22 21 19 20 21 21 23 25 27 28 28 27 26 25 24 23 21 20 19 18 16 15 14 13 12
30 28 26 25 25 25 25 26 25 24 24 25 25 25 24 22 21 20 21 20 20 20 20 20 21 23 26 28 29 30 29 28 27 26 25 23 22 21 19 18 16 15 14
32 29 26 25 24 25 25 25 26 26 26 25 25 24 23 22 21 21 20 20 20 20 20 20 21 22 24 26 28 29 30 31 30 30 28 27 26 24 23 21 20 18 16
32 29 26 24 24 25 26 26 26 26 26 26 26 25 23 22 21 20 19 18 18 19 19 20 21 22 23 24 26 28 30 31 32 32 31 30 29 28 26 24 23 22 20
30 27 26 25 25 25 25 26 26 26 26 26 26 25 23 22 21 19 17 16 16 16 17 18 19 20 21 23 25 28 29 30 32 33 33 33 32 31 30 28 26 25 24
28 27 26 25 24 24 25 25 25 25 25 25 24 24 23 21 19 18 16 15 14 14 15 16 17 18 20 21 24 26 29 30 31 33 34 35 34 34 32 31 30 28 27
28 27 27 26 25 25 24 24 24 24 24 24 24 23 22 21 20 18 16 15 14 13 13 14 15 17 18 20 22 25 27 29 30 32 34 36 36 36 35 34 33 32 30
27 27 27 26 26 26 25 24 23 23 23 23 23 23 23 22 21 19 18 17 15 14 13 14 14 15 17 19 21 24 26 29 30 31 33 35 37 37 38 38 37 35 33
27 28 29 29 28 27 27 25 25 24 24 24 24 24 24 24 23 21 19 18 17 16 15 14 14 15 16 18 21 23 26 28 30 31 33 34 35 36 38 39 40 39 36
29 31 32 31 30 29 29 28 27 27 27 26 26 26 26 25 25 23 21 19 18 17 16 15 15 15 16 18 20 23 26 28 30 31 32 33 34 35 38 38 38 40 40
31 33 33 33 32 31 31 31 31 31 31 30 29 28 27 27 27 26 24 22 20 19 18 17 16 16 16 18 19 21 24 27 30 32 33 33 34 34 34 38 40 41 42
37 37 37 36 35 35 34 34 34 34 34 34 33 31 30 29 29 29 28 25 23 21 20 20 19 18 18 18 19 20 22 25 28 31 33 33 33 33 34 35 37 39 40
44 44 43 42 41 40 39 38 38 37 38 38 37 36 34 32 32 31 30 29 27 24 22 22 22 21 19 19 20 20 21 23 26 28 30 31 32 31 32 33 35 37 39
51 51 50 49 48 46 45 44 43 42 42 42 41 40 38 36 35 34 32 31 30 28 26 24 23 22 21 20 20 20 20 21 23 25 27 29 29 29 30 30 30 33 36
57 57 57 56 55 53 52 50 49 47 46 46 45 45 44 42 39 37 36 34 32 31 29 27 25 24 22 21 21 20 20 20 21 22 24 26 26 27 26 27 27 30 32
62 62 63 62 61 60 58 57 55 53 52 51 50 49 48 46 45 41 39 37 35 33 31 29 27 26 24 23 22 21 20 20 21 22 23 24 24 25 25 24 25 25 26
64 66 67 67 67 67 65 63 62 60 59 56 54 53 52 51 49 46 43 40 37 35 32 31 29 27 26 24 22 21 20 19 20 21 22 23 24 24 24 23 23 24 24
58 64 68 70 72 72 71 70 68 66 65 63 60 58 56 54 52 50 47 44 41 38 34 32 30 29 27 25 23 22 21 20 20 22 23 24 24 25 24 24 23 22 22
51 55 61 67 72 75 76 76 74 71 70 68 66 63 60 58 55 53 51 48 44 40 37 34 32 30 28 26 24 23 22 21 20 21 23 24 25 26 25 24 24 23 23
47 48 50 55 62 68 73 77 78 77 74 72 70 67 64 63 59 56 54 50 47 43 40 36 33 31 29 28 25 24 23 21 21 22 23 25 25 26 26 25 25 25 24
45 44 44 45 48 54 60 67 75 78 77 75 74 71 68 65 62 59 56 54 50 46 42 38 35 32 30 28 26 24 23 21 21 21 23 24 26 26 26 26 26 26 26
45 45 44 42 42 43 46 51 59 68 74 77 76 74 70 67 63 59 57 55 52 48 44 41 37 34 31 29 27 25 23 22 21 21 22 24 26 27 27 27 27 27 26
46 47 46 44 42 40 40 40 43 50 59 67 73 75 74 70 67 64 59 56 53 51 47 43 39 36 33 30 28 25 23 21 20 21 22 23 24 26 26 27 26 26 26
44 46 47 46 44 41 39 38 37 37 41 49 58 66 70 72 69 66 62 58 55 52 48 45 41 38 35 32 29 26 23 21 20 21 21 22 23 24 25 24 25 25 25
39 43 46 46 45 42 40 39 37 36 34 36 42 50 58 64 66 66 63 59 55 51 48 45 43 40 37 34 30 26 23 21 21 21 21 22 22 23 24 24 24 24 23
35 37 41 43 43 42 41 39 38 36 34 33 34 39 46 53 59 62 62 59 57 53 49 46 44 41 38 34 31 27 24 22 22 21 21 21 22 22 22 22 22 23 23

GEFSMA_500_meanwind_036.txt.gz
Wind_Speed
38 40 41 41 39 37 35 33 32 31 29 28 26 25 23 22 22 22 21 21 21 22 23 23 24 23 24 26 28 29 28 27 26 24 23 22 21 19 18 17 16 14 13
41 41 41 43 41 39 37 35 34 33 31 29 27 25 23 22 22 22 22 22 21 21 22 23 23 23 23 24 26 28 28 28 28 28 26 25 24 22 21 19 18 17 16
41 41 41 42 41 39 39 37 36 34 33 31 28 27 25 24 24 23 23 23 22 21 21 22 23 24 24 23 25 26 28 29 30 31 30 29 27 25 24 22 21 19 18
39 39 39 40 41 41 40 38 37 36 34 32 30 29 27 26 25 24 24 23 22 22 22 22 23 23 23 24 24 25 25 27 29 30 32 31 30 28 27 25 24 22 20
36 35 37 38 40 41 41 39 38 36 35 33 31 30 29 28 27 25 25 24 23 22 21 21 22 22 22 23 24 24 24 25 25 27 29 33 32 31 30 29 27 26 24
31 32 36 38 40 41 40 39 38 36 35 34 33 32 30 29 27 26 26 25 24 22 21 20 19 19 20 21 22 23 23 23 24 25 27 30 32 33 33 32 31 29 27
28 30 34 38 40 40 39 39 37 36 36 35 34 32 31 30 28 27 26 25 24 22 20 18 17 16 16 17 18 20 21 22 23 24 26 28 29 31 33 34 34 33 31
28 29 31 33 36 40 40 38 36 36 35 34 34 33 32 30 29 28 27 26 25 23 21 19 17 15 14 14 15 16 17 18 20 22 23 25 27 29 31 33 35 35 34
31 30 30 32 34 35 36 36 37 36 35 34 33 32 32 31 29 28 28 27 26 24 22 20 17 16 15 14 14 14 15 17 18 20 22 24 27 28 30 30 31 34 35
35 33 32 32 34 34 34 36 36 36 34 33 33 32 32 31 30 29 29 29 28 26 23 21 19 17 16 14 14 14 14 15 17 19 21 23 25 26 28 30 31 32 34
40 38 36 35 35 36 36 37 37 37 36 35 35 34 33 32 32 31 31 30 30 28 25 23 20 18 17 15 14 14 14 14 16 18 20 22 24 26 27 29 30 30 31
43 43 42 41 40 40 39 39 39 39 38 37 37 36 35 35 34 34 34 33 32 30 28 25 22 20 18 17 15 15 15 15 16 18 20 21 24 26 28 29 30 30 30
44 45 46 46 46 45 44 44 43 43 41 40 39 39 38 38 38 37 36 36 34 32 30 28 25 22 20 18 17 16 15 15 16 18 19 21 23 25 27 29 30 30 31
44 45 46 48 50 51 51 50 49 48 47 45 43 43 42 41 41 40 39 38 37 35 34 31 28 26 23 20 19 18 16 16 17 17 19 21 22 24 26 28 29 31 31
44 46 47 49 51 53 55 56 56 55 53 50 48 47 46 45 45 44 43 42 40 39 37 35 32 29 26 23 21 20 18 17 17 18 18 20 22 23 25 27 28 29 31
48 49 50 51 52 54 56 59 60 61 60 57 55 52 50 50 48 47 47 45 44 42 40 38 36 33 30 27 24 22 20 18 18 18 19 19 21 22 24 25 26 28 29
52 53 54 54 55 56 57 59 62 64 65 64 61 59 55 53 52 51 50 49 47 46 43 41 39 36 33 30 27 24 22 20 19 19 19 20 20 21 23 24 25 26 27
55 56 57 58 58 59 60 61 63 65 67 69 68 66 63 59 56 54 54 52 50 49 47 44 42 39 36 33 30 27 25 22 21 20 20 21 21 22 23 24 25 25 25
56 57 58 59 60 61 62 63 64 66 69 70 72 72 69 66 62 58 56 55 53 51 50 48 45 42 38 35 32 30 27 25 23 22 21 22 22 22 23 23 24 25 25
55 56 57 58 60 62 63 64 65 67 69 71 73 74 75 71 67 64 59 57 56 54 52 50 48 45 41 38 35 32 30 27 25 24 22 22 23 23 23 23 24 24 23
54 54 55 56 57 59 61 62 63 65 67 70 73 75 77 77 73 68 65 61 59 57 54 52 50 48 45 41 38 35 32 30 27 25 24 23 23 23 23 23 24 24 24
52 51 50 51 53 54 56 57 58 61 62 64 69 73 77 78 78 73 69 66 62 59 55 54 52 50 47 45 42 38 35 32 29 27 25 24 23 23 22 23 23 24 24
48 46 45 46 47 49 52 53 54 55 56 57 60 65 72 76 79 78 74 69 67 62 59 56 53 52 50 47 45 41 38 35 31 29 26 24 23 23 23 23 23 24 24
43 40 38 39 41 43 45 48 49 49 49 49 51 55 61 69 74 77 76 73 69 64 61 59 55 52 51 49 47 45 41 37 33 30 27 24 24 23 23 23 23 23 24
36 34 33 33 34 37 40 43 44 44 44 44 44 46 50 56 65 71 73 73 72 68 63 59 59 56 54 51 49 46 42 38 34 31 28 25 24 24 23 23 23 22 22
31 27 26 26 28 31 34 37 39 39 40 40 40 40 42 47 54 62 68 71 72 69 66 62 59 58 55 53 49 46 43 39 35 31 28 26 25 24 23 22 22 21 21

GEFSMA_500_meanwind_042.txt.gz
Wind_Speed
35 36 35 35 35 35 37 39 39 37 37 35 34 33 31 30 30 28 28 27 27 27 26 25 24 23 23 23 22 23 23 23 23 23 22 21 20 18 17 15 14 12 11
36 36 36 37 36 36 38 39 39 38 37 36 35 34 33 32 30 29 28 27 27 27 26 26 24 24 24 23 23 23 22 23 24 24 25 24 22 21 20 18 17 15 13
37 36 36 36 37 37 37 38 38 39 38 37 36 35 34 32 31 30 29 28 27 27 27 26 25 24 23 23 23 23 22 22 23 25 26 26 25 24 23 21 20 18 16
37 36 36 37 37 36 37 37 38 37 37 37 36 35 34 33 32 32 30 29 28 28 26 26 25 24 23 22 22 22 22 22 22 24 26 27 27 27 26 25 23 21 20
38 38 37 37 37 36 36 37 36 35 36 36 35 35 35 35 33 32 31 30 29 28 26 26 25 24 23 23 22 22 22 21 20 21 23 26 27 27 28 28 27 25 23
39 39 39 38 38 36 36 35 32 32 34 35 35 34 34 36 35 33 32 31 30 28 26 25 24 23 22 22 22 21 20 20 20 19 20 22 24 26 28 30 30 29 27
40 40 40 39 38 37 36 33 31 31 33 34 34 35 35 35 34 33 31 30 29 28 26 25 24 23 22 21 21 20 20 19 20 19 18 18 20 22 23 26 30 30 29
42 42 41 40 39 38 37 34 33 31 32 34 34 34 34 34 33 32 31 30 29 28 27 26 25 24 22 20 20 19 18 18 18 18 17 16 17 18 19 21 25 28 30
42 43 42 41 40 39 37 36 35 33 32 32 32 33 34 33 33 32 32 31 30 30 29 27 26 24 23 21 19 17 16 16 15 15 15 15 15 16 17 18 21 24 27
42 41 41 40 40 39 38 37 36 35 34 32 32 34 35 34 33 32 32 32 32 31 29 28 26 25 24 21 19 18 17 15 14 13 13 13 12 13 14 16 17 20 22
40 39 39 38 38 37 37 38 38 37 36 35 34 33 34 35 36 34 32 31 32 32 31 30 28 26 25 23 21 19 18 16 14 13 12 11 11 11 12 13 15 17 19
38 38 37 36 36 36 36 36 37 38 38 39 38 35 35 35 36 36 35 33 33 33 33 32 30 28 27 24 22 21 19 17 15 13 12 11 10 10 11 12 13 15 17
38 38 37 35 35 35 36 35 36 37 38 39 41 39 38 37 36 36 35 35 35 34 33 33 32 30 29 27 25 23 20 18 16 14 13 12 10 10 10 11 12 14 16
39 40 41 40 38 38 38 38 37 37 38 39 41 42 41 40 38 37 36 36 36 36 35 35 35 33 31 30 28 26 23 21 18 16 14 12 11 10 10 10 12 13 15
41 42 43 44 44 43 43 42 42 41 41 40 41 43 44 44 41 39 38 38 37 37 37 38 38 36 34 32 31 28 26 23 20 17 15 13 11 10 10 10 11 12 14
42 43 45 46 47 48 48 47 47 46 45 45 45 44 45 46 46 44 41 39 40 40 40 40 39 38 37 36 34 31 28 25 22 19 17 14 12 11 10 10 10 11 13
44 45 47 48 50 51 52 52 52 51 50 49 49 49 49 49 50 48 45 43 42 42 42 42 41 40 40 38 36 34 31 28 25 22 19 16 13 11 10 10 10 11 12
45 48 50 51 53 54 55 56 56 55 54 54 53 53 52 52 52 52 51 48 45 44 45 44 42 42 42 41 40 38 34 32 28 25 21 17 15 12 11 10 11 12 13
48 50 52 53 55 56 58 60 61 60 59 58 57 56 56 55 55 55 54 53 51 48 46 46 44 44 44 43 42 41 38 35 31 28 24 20 17 14 13 12 12 13 14
50 51 52 53 55 57 58 60 61 61 61 60 60 59 59 58 58 57 57 56 55 53 50 47 46 47 45 45 44 43 41 38 35 31 28 24 20 17 15 14 14 14 15
50 51 52 53 54 54 55 56 57 59 59 59 59 59 59 60 61 60 59 59 58 56 54 50 46 47 48 46 45 45 43 41 38 35 31 27 23 20 17 15 15 15 15
49 50 51 51 50 50 51 52 52 53 54 55 55 57 58 60 62 62 61 61 60 59 56 55 51 49 48 47 47 47 45 44 41 38 34 30 26 23 20 17 16 16 15
49 49 48 47 46 45 45 45 46 46 47 49 50 52 55 57 60 62 63 62 61 60 59 57 55 51 49 50 48 48 47 45 44 41 38 33 29 25 22 19 18 17 17
47 46 44 42 41 39 39 38 39 40 41 43 46 48 50 53 56 59 61 62 62 61 60 58 55 53 51 50 49 49 49 48 46 43 40 35 31 27 25 22 19 18 18
44 42 40 39 37 35 33 32 32 33 34 37 41 44 45 47 50 53 57 60 61 62 60 59 58 56 53 50 50 49 49 48 46 43 40 37 33 30 27 24 21 20 19
41 39 38 36 33 30 27 26 26 26 28 31 35 39 40 42 45 48 51 55 58 60 60 60 59 58 56 52 50 50 48 48 47 44 41 38 36 32 29 26 23 22 20

GEFSMA_500_meanwind_048.txt.gz
Wind_Speed
32 32 31 31 32 32 32 32 32 31 30 29 28 28 28 30 32 32 31 30 29 28 27 27 26 26 25 23 22 21 20 18 18 19 19 18 18 17 16 15 13 12 11
34 34 34 34 34 34 33 33 32 32 31 30 30 29 29 30 31 33 33 32 31 30 29 28 28 28 27 26 25 24 22 21 20 20 21 21 21 20 18 17 16 14 13
36 35 35 35 35 36 35 34 34 33 32 32 31 30 31 30 31 33 33 33 33 32 30 28 28 28 29 28 27 25 24 23 23 23 22 22 23 22 21 20 19 17 16
37 37 36 36 36 36 36 36 36 35 34 33 32 31 32 32 32 33 33 33 34 33 31 29 28 29 29 29 28 27 26 25 25 24 24 23 24 24 24 23 22 20 19
38 38 37 37 37 37 37 37 37 36 35 34 33 31 30 30 32 33 33 33 34 34 32 31 30 30 29 29 28 28 28 27 26 25 25 24 25 25 26 26 25 23 22
39 39 39 38 38 37 37 37 37 36 36 35 33 31 30 29 31 32 33 32 33 34 33 32 31 30 30 29 29 29 28 28 27 26 26 25 26 27 27 28 27 27 25
38 38 39 39 38 38 38 37 37 36 36 34 32 31 31 31 30 32 34 33 34 35 34 33 32 32 32 30 30 30 29 29 27 27 26 26 26 27 28 28 28 28 28
36 36 37 37 37 37 37 37 37 36 35 35 33 30 30 30 31 32 33 35 35 35 35 35 34 33 33 32 31 31 31 30 29 28 28 27 27 26 27 29 30 30 29
33 33 34 35 35 35 35 35 35 35 34 34 33 30 29 29 28 31 33 34 34 35 35 35 34 33 33 32 32 32 31 30 29 29 28 28 28 26 25 26 27 28 30
33 33 32 32 32 32 33 33 33 33 33 32 32 31 30 29 28 28 30 32 33 33 34 35 34 33 33 33 32 32 31 31 29 29 29 29 29 27 26 26 26 26 28
34 33 32 30 30 30 30 30 30 30 31 31 31 30 30 29 29 29 30 31 32 32 33 34 34 34 34 34 34 34 32 31 30 29 29 29 29 27 26 26 25 25 25
36 35 34 33 31 30 30 30 30 29 29 29 30 30 30 31 30 30 30 32 32 32 32 33 35 34 35 34 35 35 33 32 31 29 28 28 27 27 26 25 24 24 24
38 38 38 37 35 33 32 31 31 31 30 29 30 30 30 31 32 33 32 32 32 33 33 33 34 36 35 35 36 35 34 33 32 30 29 27 27 26 25 24 23 23 23
40 40 40 39 38 36 34 33 33 32 32 32 31 31 31 31 33 34 34 33 33 34 34 34 35 36 37 37 38 37 37 35 33 32 31 29 27 26 24 23 22 22 22
40 41 40 40 39 38 37 36 35 34 34 34 34 34 34 33 33 33 35 35 35 36 36 36 36 37 38 39 39 39 38 36 35 34 32 30 28 26 25 23 22 21 21
40 40 40 40 40 39 39 38 38 38 37 37 37 37 37 37 36 36 35 36 37 37 38 39 38 39 41 41 42 41 40 38 37 36 34 32 30 27 25 24 22 20 20
40 40 40 40 40 40 40 40 40 40 40 40 40 40 40 41 40 40 39 38 38 39 38 39 40 40 41 43 44 44 42 41 39 37 36 33 30 28 26 24 22 21 20
40 40 40 40 40 40 41 42 42 43 43 43 44 44 44 44 44 44 44 42 41 41 41 40 40 41 41 44 46 46 45 43 42 40 38 35 32 29 27 24 23 21 19
40 40 39 39 40 41 42 43 44 45 46 46 46 47 47 48 48 47 47 47 45 44 44 43 41 43 43 45 46 48 47 46 45 42 40 37 33 31 28 25 23 21 19
40 39 39 40 41 42 43 44 46 47 47 48 48 48 49 50 51 51 50 50 50 48 47 48 46 45 45 46 47 49 49 48 47 45 43 39 35 32 30 27 25 22 20
40 39 39 40 41 42 44 45 46 48 49 50 51 51 51 52 53 55 55 54 53 52 50 49 50 48 48 48 48 49 50 50 50 48 45 42 38 35 32 29 26 24 21
39 39 40 40 41 41 43 44 45 46 47 48 50 52 53 53 54 56 58 58 57 56 55 53 53 51 50 50 49 50 51 52 51 50 48 45 41 38 35 31 28 25 22
39 39 39 39 40 41 42 43 43 43 44 45 46 48 49 51 52 56 59 61 61 60 58 56 55 54 53 52 51 51 52 53 53 53 51 48 45 41 38 34 30 27 24
39 39 38 39 39 40 40 40 40 40 41 41 42 44 45 47 49 52 57 61 63 63 62 60 58 57 56 54 54 53 53 55 56 56 54 51 48 45 41 37 33 30 26
39 38 38 39 39 38 38 38 38 38 38 38 38 40 42 44 46 50 54 58 62 64 65 64 61 60 59 57 56 55 55 55 57 56 55 53 50 48 44 41 37 33 29
38 38 38 38 37 37 36 36 35 34 34 33 33 35 37 40 43 47 51 55 59 63 66 66 65 63 62 60 59 57 55 55 56 57 55 54 53 51 47 44 40 36 32

GEFSMA_500_meanwind_054.txt.gz
Wind_Speed
28 29 29 30 31 31 31 30 30 29 30 30 29 28 26 25 23 22 24 26 28 30 31 30 28 27 25 24 23 22 21 20 19 19 18 17 17 16 15 14 12 11 9
29 29 31 32 33 33 32 32 32 31 30 30 30 30 28 27 26 24 24 25 26 29 32 32 32 31 29 27 26 25 24 23 21 21 20 19 19 18 17 16 14 13 12
31 31 32 33 33 33 33 33 32 32 31 31 31 30 29 29 27 26 26 26 27 28 31 34 34 33 32 30 29 28 27 26 24 23 22 21 21 20 19 18 17 15 14
32 32 33 33 33 33 33 33 33 33 33 32 31 31 31 30 28 28 28 28 28 29 30 33 36 36 35 33 32 31 30 29 28 26 25 23 23 23 22 21 20 18 17
32 33 33 33 34 34 34 34 34 33 33 33 32 32 31 31 30 30 29 30 29 29 30 33 36 38 37 36 34 33 32 31 30 29 27 26 25 24 24 23 22 22 20
31 32 33 34 34 34 34 34 34 33 33 33 33 32 32 32 32 32 31 31 31 30 31 34 36 37 38 37 36 35 34 33 32 31 29 28 27 26 25 24 24 24 23
31 32 32 33 33 34 34 34 34 33 33 33 33 33 32 32 33 32 32 32 32 32 32 34 36 38 39 38 37 36 35 34 33 32 31 29 29 28 27 26 26 26 26
31 31 32 32 32 33 33 33 32 33 33 33 33 33 33 33 33 33 32 32 32 32 33 34 36 37 38 39 38 38 36 36 35 34 33 31 31 30 29 27 27 28 27
30 30 30 31 31 31 32 32 32 32 32 33 33 33 33 33 33 33 32 32 32 32 33 35 37 39 39 39 39 39 38 37 36 36 35 33 32 31 31 30 29 29 28
29 29 29 30 31 32 32 32 32 32 32 33 33 33 33 32 33 33 33 33 33 33 33 35 36 39 40 40 40 40 39 38 37 36 36 35 34 33 32 31 31 30 30
30 30 30 31 31 32 33 33 34 33 33 33 33 33 33 33 33 33 33 34 33 33 34 35 36 38 40 41 42 41 40 40 39 38 38 37 36 34 33 32 31 30 30
31 31 31 32 32 33 34 35 35 35 35 34 34 34 34 34 33 33 33 33 33 34 35 36 37 38 40 42 42 42 42 41 40 40 39 39 38 36 34 33 32 31 30
32 32 33 34 34 35 36 36 36 37 37 37 36 36 36 35 35 34 33 33 33 34 35 37 38 39 40 41 43 43 44 43 42 41 40 40 39 38 36 35 33 32 30
33 34 35 36 36 37 37 37 37 38 38 39 39 38 37 37 36 36 35 34 34 35 35 37 39 40 42 42 42 43 44 43 42 42 42 41 40 38 37 35 33 32 31
36 36 37 38 38 38 38 37 37 37 38 39 40 40 39 39 38 37 37 36 35 35 36 37 39 39 41 41 41 43 43 43 42 42 42 42 40 39 37 35 34 32 31
38 38 38 38 38 38 38 37 37 37 38 38 39 40 41 41 40 39 39 38 37 37 37 38 40 40 41 42 42 43 44 43 43 44 43 42 41 40 37 36 34 33 31
40 40 40 39 38 38 38 37 37 37 37 37 38 39 41 42 42 41 41 40 39 38 38 39 41 42 41 42 42 43 44 45 45 45 44 43 42 39 37 36 34 33 31
42 41 41 40 39 38 38 37 37 36 36 36 37 38 40 42 43 44 43 43 42 41 40 39 41 43 43 43 43 43 44 46 46 45 44 44 42 40 38 37 36 34 32
43 43 42 41 40 39 38 37 36 35 35 35 36 37 38 41 42 44 45 46 46 45 43 41 41 42 44 44 44 44 45 46 46 46 45 44 43 41 39 38 36 35 33
44 44 43 42 40 38 37 36 35 35 35 36 36 37 39 40 42 44 46 47 48 48 47 46 44 44 44 46 45 45 45 46 47 47 47 45 44 42 41 40 38 36 34
45 45 43 42 40 38 36 36 35 35 35 36 37 38 40 41 43 45 46 48 49 50 50 49 48 46 45 47 46 46 47 47 48 49 48 47 46 45 44 41 39 37 35
46 45 43 41 39 38 37 36 35 35 36 36 38 39 40 41 43 46 47 49 51 52 53 53 52 51 48 48 48 48 48 49 48 49 49 49 48 47 45 43 41 39 36
45 44 42 40 39 38 38 37 37 36 36 36 37 39 40 41 43 45 47 50 52 53 55 56 55 54 52 51 50 50 49 49 50 50 51 51 50 48 47 45 43 40 37
45 43 42 40 39 39 39 38 37 36 35 36 36 37 39 40 42 44 46 49 51 54 56 57 57 57 57 55 52 51 50 50 50 51 52 52 51 50 49 47 44 41 39
44 43 42 41 39 39 38 36 36 35 35 35 36 37 38 39 41 44 45 47 50 53 57 59 60 60 60 58 56 54 52 50 50 51 52 53 52 51 50 49 47 44 41
44 43 42 40 39 38 37 35 34 33 32 33 34 35 36 37 39 42 44 47 49 52 56 59 61 62 62 60 59 57 54 51 51 52 52 53 53 53 52 50 48 46 43

GEFSMA_500_meanwind_060.txt.gz
Wind_Speed
24 24 24 25 25 26 26 26 26 26 25 25 24 23 22 22 21 22 21 21 21 24 26 29 30 30 29 27 26 25 24 23 23 22 21 20 19 18 16 14 13 11 9
23 24 25 26 27 27 27 27 27 26 26 26 26 26 25 24 23 23 23 22 22 24 26 29 31 33 32 31 30 28 27 26 25 24 23 22 21 20 19 17 15 13 11
22 23 24 24 25 26 28 28 28 27 28 28 27 27 27 26 26 25 25 25 24 24 26 28 31 35 36 34 33 32 30 29 28 27 26 25 23 22 21 19 18 16 14
22 23 24 24 25 26 27 27 28 28 28 28 28 28 28 28 28 28 27 27 27 27 27 28 30 33 37 37 36 36 34 32 31 30 29 28 26 25 23 21 20 19 17
23 24 24 25 25 26 26 27 28 28 29 29 29 29 30 30 30 30 29 30 30 29 29 30 31 32 35 38 39 39 38 36 35 33 32 30 29 27 26 24 23 21 20
23 23 24 24 25 26 26 27 27 28 28 28 29 29 30 31 31 31 31 31 31 32 31 32 32 33 35 37 39 41 41 40 39 37 35 33 31 30 28 27 25 24 23
23 23 24 23 24 25 25 26 26 27 27 27 28 29 30 31 31 32 32 33 33 33 33 33 34 34 35 37 40 42 43 43 42 40 38 36 34 32 30 29 28 26 25
23 23 23 23 23 24 24 25 25 26 27 27 27 28 29 30 30 32 33 34 34 34 35 35 35 36 37 37 40 42 43 45 45 44 42 39 38 35 33 31 30 29 27
22 22 22 23 23 23 24 24 24 25 26 26 27 28 29 30 30 31 33 34 35 35 36 37 37 37 38 38 40 42 44 45 46 46 44 42 40 39 36 34 32 31 29
21 21 22 22 23 23 24 25 25 26 27 27 28 29 29 30 31 32 33 34 35 36 37 37 38 39 39 39 40 42 43 45 46 47 46 45 43 41 39 36 34 33 31
20 20 21 22 23 24 25 26 26 27 28 29 30 30 31 32 33 34 35 35 36 37 38 38 38 39 40 40 41 43 44 45 46 47 47 46 45 43 41 39 37 35 33
21 21 22 23 24 25 26 27 28 29 30 31 32 33 34 35 36 36 37 38 39 39 38 39 38 39 39 41 42 43 45 46 46 47 47 46 45 44 43 41 39 36 35
23 23 24 25 25 26 27 28 29 30 31 33 34 35 36 38 38 39 39 39 40 41 40 40 40 40 40 41 42 44 45 47 47 48 48 48 46 45 44 43 41 38 37
25 26 27 27 28 28 29 30 31 32 33 34 35 36 38 39 40 41 41 42 42 43 43 42 41 42 42 42 42 44 45 47 48 48 49 48 47 46 45 44 42 41 39
27 28 29 30 31 31 32 32 33 33 34 35 36 37 38 39 41 42 43 43 44 44 45 44 42 42 43 43 43 44 45 46 48 49 48 48 47 47 46 45 43 42 40
30 31 32 33 34 34 34 34 35 35 35 36 37 37 38 40 41 41 43 44 44 45 45 46 45 44 43 43 44 44 45 47 48 48 48 48 47 47 46 45 44 42 40
32 34 35 36 36 36 36 36 36 36 36 36 37 37 38 40 41 42 42 44 45 45 45 45 46 45 44 43 45 44 45 45 46 47 49 48 47 47 47 45 44 43 41
35 36 37 38 38 38 37 37 37 36 36 36 37 37 37 38 39 41 42 43 44 45 45 45 46 46 45 44 44 44 45 46 46 45 47 49 49 48 47 46 45 44 42
38 39 40 40 39 39 39 39 38 37 36 36 36 36 36 37 38 39 40 41 43 44 45 46 47 48 47 46 45 45 45 46 46 47 47 48 49 49 48 47 46 44 43
41 42 42 41 40 40 40 39 37 36 35 35 35 34 35 36 37 38 39 40 42 43 45 46 47 48 48 47 46 45 45 44 45 46 47 49 49 48 47 47 46 45 44
43 44 43 42 41 40 39 38 37 36 35 35 34 34 34 35 36 37 39 40 41 42 44 46 47 48 49 48 47 46 45 43 44 44 46 48 48 48 49 48 47 45 44
45 45 43 42 41 40 39 38 37 35 34 34 34 35 35 35 35 37 38 40 42 42 43 45 47 48 49 49 47 46 45 45 43 43 45 46 47 49 49 48 47 46 45
46 45 43 42 41 40 38 36 35 34 34 34 34 34 34 34 35 36 38 39 41 43 44 45 47 48 49 51 50 48 46 46 44 43 44 45 46 47 48 48 48 48 47
46 45 43 42 40 39 37 35 35 34 33 33 33 33 33 34 34 35 37 39 41 43 44 46 47 48 50 51 51 51 50 47 47 44 43 43 45 46 48 49 49 48 47
46 45 43 41 39 37 36 34 33 32 32 31 31 31 31 32 34 35 36 38 39 42 45 47 48 49 50 51 52 52 51 50 48 47 45 42 43 45 47 49 50 48 47
46 44 41 39 37 35 34 33 32 31 30 30 30 30 30 31 32 33 35 36 38 40 43 46 48 49 51 52 52 52 52 51 50 48 47 45 43 44 46 48 50 50 48

GEFSMA_500_meanwind_066.txt.gz
Wind_Speed
18 20 20 20 20 20 21 22 23 23 22 23 22 22 22 21 21 21 19 19 19 19 20 21 24 27 26 25 24 23 22 21 20 18 17 17 16 15 13 12 10 8 7
19 20 20 20 20 20 21 22 22 23 23 23 22 21 21 22 22 23 22 21 21 21 21 22 24 27 28 28 27 26 25 24 23 21 20 19 18 17 16 14 12 10 9
18 19 20 20 20 21 21 21 22 21 23 23 23 23 23 23 23 23 23 23 23 23 22 23 25 27 29 30 30 29 28 27 26 25 23 22 21 20 19 17 15 13 11
19 19 19 20 21 21 21 21 22 22 22 22 23 23 23 23 23 24 25 25 25 25 24 23 25 27 29 31 32 32 31 31 29 28 27 25 24 23 22 20 18 16 14
19 19 19 19 20 20 21 21 21 22 22 22 22 23 23 24 24 25 26 26 27 27 27 26 26 27 29 31 33 34 34 34 33 31 30 29 27 26 24 23 21 19 17
18 19 18 18 18 18 19 20 21 21 22 22 23 23 24 25 26 26 26 27 28 28 28 29 28 28 29 29 31 34 36 36 36 35 34 32 30 29 27 26 24 22 20
18 18 18 18 18 18 17 18 18 20 20 21 22 23 24 25 26 26 27 27 28 29 30 30 30 30 30 31 31 32 36 38 39 38 37 36 34 32 30 29 27 25 23
18 18 18 18 18 18 18 18 18 18 19 20 21 21 23 24 24 25 27 28 28 29 30 31 32 32 32 33 33 33 35 37 40 40 40 39 38 36 34 32 30 28 26
19 19 19 19 19 19 19 19 19 20 20 20 21 22 23 24 24 25 26 27 28 29 30 31 32 33 34 34 34 34 36 36 39 42 42 42 41 40 38 36 34 32 30
19 20 20 20 20 20 21 21 21 21 21 21 22 22 24 25 26 27 27 28 29 29 30 31 32 33 34 35 34 34 36 37 38 40 43 43 43 43 42 40 38 35 33
20 21 21 21 22 22 22 22 23 23 23 23 24 24 25 26 27 28 29 29 30 31 31 32 33 33 35 35 35 36 36 38 39 39 41 43 43 44 44 43 41 39 36
21 21 22 22 23 24 24 24 25 26 26 26 27 27 27 28 29 30 31 32 32 33 34 34 34 35 36 36 37 38 38 38 39 40 41 43 44 44 45 45 44 42 39
23 23 23 24 24 25 26 27 27 28 29 29 30 30 30 31 31 32 32 33 34 35 36 37 37 38 38 38 38 39 40 39 40 41 42 42 44 44 45 46 46 45 42
25 25 25 26 26 27 28 29 30 30 31 32 33 33 34 34 34 35 35 36 36 37 38 39 39 40 40 40 40 40 41 41 41 42 42 43 44 45 45 46 47 47 46
26 26 27 28 29 30 31 32 33 33 34 35 35 36 36 37 37 37 38 38 39 39 39 41 41 42 42 42 42 42 42 42 43 43 44 44 45 46 46 46 47 47 47
27 28 29 31 32 33 34 35 36 37 37 38 38 38 38 39 39 39 40 40 41 41 41 42 43 43 43 43 43 43 43 44 44 43 43 44 44 45 47 47 47 47 47
29 30 32 33 35 36 37 38 38 39 39 39 39 39 39 39 40 40 40 41 41 42 42 42 44 44 44 44 44 44 45 44 45 44 44 44 43 43 46 47 47 47 47
30 32 34 36 37 38 39 39 40 40 40 39 39 38 39 39 39 39 40 40 40 41 42 42 43 44 45 45 45 45 46 45 45 45 45 45 44 44 45 48 48 48 47
32 34 36 38 39 40 40 40 40 40 39 38 38 37 37 37 37 38 38 38 38 39 40 41 42 43 44 44 45 45 45 46 46 45 45 45 45 45 44 47 48 49 48
34 36 38 40 41 41 41 41 40 39 38 37 37 36 36 35 35 36 37 37 38 38 39 40 41 42 42 43 44 45 45 46 45 45 45 45 45 45 45 46 47 48 48
36 38 40 41 42 42 41 41 39 37 36 35 34 34 34 33 33 34 35 36 36 37 38 39 39 40 41 42 42 43 44 45 45 45 44 44 44 45 45 46 47 48 49
38 40 42 43 43 43 42 40 39 36 35 34 33 33 33 33 33 33 33 34 35 35 36 37 38 39 40 41 41 42 43 43 44 45 45 45 44 44 45 45 47 48 49
41 42 44 44 44 44 43 40 38 36 35 34 33 32 32 32 32 31 31 32 33 34 35 36 37 37 39 40 41 41 42 43 43 45 46 45 44 43 45 45 46 47 47
43 44 45 45 45 45 43 39 37 35 35 34 33 32 31 31 31 30 30 30 31 32 33 34 35 37 38 39 40 41 42 43 43 44 45 45 44 43 43 44 45 46 47
45 46 46 46 46 45 43 39 37 35 34 33 32 31 31 31 30 30 30 30 31 32 33 34 34 35 37 38 40 40 42 43 43 44 44 44 45 43 42 43 43 46 48
46 47 47 47 46 45 42 40 38 36 34 33 32 31 31 31 31 30 30 31 31 32 32 32 33 34 36 38 39 40 41 43 43 44 45 44 44 44 42 42 43 45 46

GEFSMA_500_meanwind_072.txt.gz
Wind_Speed
13 14 14 15 14 14 15 15 16 16 17 18 20 21 22 22 22 21 21 21 19 19 19 20 20 20 19 22 22 21 20 18 17 16 15 15 15 15 14 12 11 9 7
13 13 14 14 14 14 14 15 15 16 17 18 20 21 21 21 21 21 20 20 19 19 19 19 20 21 21 22 24 23 23 22 20 19 18 17 17 16 16 14 13 11 9
13 13 13 13 13 13 13 14 14 15 16 17 18 19 20 21 21 21 21 20 20 20 20 20 21 22 23 23 25 26 25 24 23 22 21 20 19 19 18 17 15 13 11
12 12 12 12 12 12 13 13 13 14 15 16 17 17 19 19 20 21 21 21 21 21 22 22 22 23 23 24 26 27 28 28 27 25 24 23 22 21 20 19 17 16 14
10 10 10 11 11 11 12 12 13 14 14 15 16 17 18 19 19 20 21 22 22 23 23 23 23 23 24 25 26 28 29 30 30 29 28 26 25 24 23 22 21 19 17
10 10 10 10 10 11 11 11 12 13 14 15 16 17 17 18 19 20 21 22 23 23 23 24 25 25 25 26 26 28 30 32 32 32 31 30 29 27 26 25 24 22 20
11 11 10 10 11 11 11 11 12 12 13 14 15 16 17 18 19 19 20 22 23 23 24 25 26 27 27 27 27 29 30 32 34 34 34 33 32 31 29 28 27 25 23
11 11 11 11 12 12 13 13 13 13 13 14 15 16 17 17 18 19 20 21 22 23 24 26 27 28 28 29 29 30 31 31 33 35 35 35 35 34 33 31 30 28 27
12 12 12 12 13 13 13 14 14 14 14 15 15 16 17 18 18 19 20 21 22 23 24 25 27 28 29 30 30 31 32 33 33 35 36 37 37 37 36 35 33 32 30
13 14 13 14 14 14 15 15 15 16 16 16 16 17 18 19 20 20 21 22 23 24 25 26 26 28 29 30 31 32 33 34 35 35 37 38 39 39 39 39 37 35 33
14 15 15 16 16 17 17 17 17 17 18 18 19 19 20 21 22 22 23 24 24 25 26 27 28 29 30 31 32 33 35 35 36 36 37 38 39 40 41 41 40 39 37
15 16 17 17 18 18 18 19 20 20 20 21 22 22 23 24 24 25 26 26 26 27 28 28 30 30 31 32 33 34 36 37 37 37 37 37 38 40 41 43 42 41 40
16 17 18 19 19 20 21 21 22 22 23 23 24 25 26 27 27 28 29 30 30 31 31 31 32 32 33 33 34 35 37 38 38 39 39 39 39 40 41 42 43 43 43
17 18 19 20 21 22 23 24 24 25 25 26 27 28 29 30 30 31 31 32 33 34 35 35 35 35 35 36 36 36 37 38 39 40 40 40 39 40 41 42 43 43 44
17 19 20 22 23 24 25 26 27 28 28 29 29 30 31 31 32 33 34 35 35 36 37 38 38 38 38 38 39 39 39 40 40 41 42 42 41 41 41 42 43 44 44
19 21 23 24 25 26 27 28 29 30 31 31 31 31 32 32 33 34 35 36 37 37 38 41 41 42 41 41 41 42 42 42 42 43 43 43 43 43 42 43 44 44 44
21 23 25 26 28 29 29 30 32 32 33 33 33 33 33 32 32 33 33 34 35 36 37 39 42 43 44 44 43 44 44 45 45 45 45 45 45 45 44 44 45 45 45
23 25 27 28 29 30 31 32 33 34 34 34 34 34 33 33 32 32 32 33 34 34 35 36 39 41 43 44 44 45 45 46 47 47 47 47 47 47 47 46 45 46 45
26 27 29 30 31 32 33 34 35 35 35 35 35 35 34 33 32 32 32 32 33 33 33 34 36 38 40 42 43 44 45 46 46 47 48 48 48 48 48 48 47 47 46
27 29 31 32 33 34 35 36 36 36 36 36 36 35 34 33 32 32 31 31 31 31 32 32 33 36 38 40 40 42 43 44 46 47 48 49 49 49 49 49 49 48 48
30 31 33 34 35 36 36 36 37 37 37 37 37 36 35 33 33 32 31 31 30 30 31 32 32 34 36 38 39 40 41 42 44 46 47 49 50 50 50 50 50 49 48
32 33 34 36 36 36 36 37 37 37 38 38 37 36 35 34 33 32 31 31 30 30 31 31 31 32 34 36 37 38 40 41 42 45 46 48 50 51 51 51 51 50 50
34 35 36 37 37 37 37 38 38 38 39 38 38 37 35 35 33 32 32 31 31 31 31 30 30 31 32 34 35 37 38 40 41 43 45 45 48 49 51 51 52 52 51
35 36 37 38 37 38 39 39 40 40 40 39 38 37 36 35 34 33 32 32 31 31 31 31 30 31 32 34 35 36 37 38 40 42 44 44 47 48 49 50 51 51 51
37 37 38 38 39 39 40 40 41 41 41 40 39 37 36 35 34 33 32 32 31 32 31 31 31 31 32 33 35 35 36 37 38 41 43 44 46 48 49 50 50 50 51
39 39 40 40 40 40 41 42 42 41 41 40 39 38 36 35 34 33 32 31 31 31 31 31 31 31 32 33 34 35 35 36 37 39 43 44 46 47 48 49 50 50 50

GEFSMA_500_meanwind_078.txt.gz
Wind_Speed
12 13 13 13 13 13 14 14 14 14 15 15 15 15 15 15 15 16 16 16 16 17 16 17 18 20 19 19 20 21 20 19 18 17 16 16 15 15 14 13 11 9 7
11 12 12 12 12 12 12 13 13 13 13 14 14 14 14 15 15 15 16 17 17 17 17 17 18 19 20 21 21 22 23 22 21 20 19 18 17 17 16 15 13 11 9
10 11 11 11 11 11 11 11 11 12 12 13 13 13 13 14 14 15 16 17 17 17 18 18 18 20 21 22 22 22 23 24 24 22 21 20 19 19 18 17 16 14 12
9 10 11 11 11 11 11 11 11 11 11 12 12 13 13 14 14 14 15 17 17 18 18 19 19 19 20 22 23 23 23 25 26 25 24 23 22 21 21 20 18 17 15
9 10 10 10 10 10 11 11 11 11 11 12 12 12 13 14 14 14 15 16 17 18 19 19 20 20 20 22 23 24 24 25 27 27 27 26 25 24 23 22 21 19 18
9 9 9 9 9 9 10 10 11 11 12 12 12 12 13 13 14 15 15 16 17 18 19 20 21 21 22 23 23 24 25 26 27 28 29 29 28 27 26 25 24 23 21
8 8 8 9 9 10 10 10 11 12 12 13 13 13 13 13 14 14 15 16 17 18 19 20 21 22 23 24 24 25 25 26 27 28 30 31 31 30 29 28 27 26 24
8 8 9 9 10 10 10 11 11 12 12 13 13 13 13 14 14 15 15 16 17 18 19 20 22 23 24 24 26 26 27 28 28 29 29 31 33 33 33 32 30 29 28
7 8 8 9 10 11 11 12 12 13 13 14 14 14 15 15 15 15 16 17 17 18 19 20 22 23 25 25 26 28 28 29 29 30 31 32 33 34 35 34 33 32 31
7 7 8 9 11 12 12 13 13 13 14 14 15 16 16 16 17 17 17 18 18 19 20 21 22 24 25 26 28 28 30 30 31 32 32 33 34 35 36 36 36 35 34
6 8 9 10 11 12 13 14 14 15 15 16 16 17 18 18 19 19 20 20 20 21 22 23 23 24 26 27 28 29 30 31 33 33 34 34 35 35 36 38 38 38 37
7 8 9 11 12 13 14 15 16 16 17 17 18 18 19 19 20 21 22 22 23 23 24 25 26 27 27 28 29 30 31 32 33 34 35 35 36 36 36 38 39 40 39
8 9 10 11 13 14 15 16 18 19 19 19 19 19 20 20 20 21 22 23 24 26 27 28 29 30 30 31 31 32 33 33 34 35 36 36 37 37 37 37 39 41 41
9 11 12 13 14 16 17 18 20 21 22 22 21 21 21 21 21 22 23 24 25 26 28 29 31 32 33 34 34 35 35 36 36 37 37 38 39 39 39 39 39 40 42
11 13 14 15 17 18 19 21 22 23 24 24 24 23 23 23 23 23 24 24 26 27 29 30 32 33 34 36 37 38 38 39 39 39 39 40 41 41 41 41 42 42 42
14 15 17 18 19 20 21 22 23 25 25 25 25 24 24 24 25 25 25 25 26 27 29 31 32 33 34 36 38 40 41 42 42 43 42 42 42 42 43 43 43 44 43
16 18 19 20 21 22 23 24 25 26 26 26 26 27 27 27 27 26 26 27 27 27 28 30 32 33 33 35 37 39 41 43 45 46 46 46 45 45 45 45 45 45 45
19 20 21 21 23 24 25 26 27 28 28 28 28 28 28 29 29 28 29 29 29 29 29 30 32 33 34 34 36 37 40 42 45 47 48 48 48 48 47 47 47 47 47
21 22 23 24 25 26 27 28 29 30 30 30 30 30 30 30 31 31 31 31 31 31 30 30 31 33 34 35 36 37 38 40 43 45 47 49 50 50 50 50 49 48 48
24 25 26 26 27 28 29 30 30 31 31 32 32 32 32 32 32 33 33 33 33 32 32 31 32 33 34 35 36 36 37 38 40 42 45 47 49 50 51 51 51 51 50
26 27 28 28 29 30 31 32 33 33 33 34 34 34 34 34 34 34 34 34 34 34 33 33 33 33 34 35 36 36 36 37 38 40 42 45 47 49 50 52 52 53 52
28 29 30 31 32 33 33 34 34 35 35 36 36 36 35 35 35 35 35 35 35 35 35 34 34 34 35 35 36 35 35 36 37 39 40 41 44 47 49 50 52 53 53
31 32 32 33 34 35 36 36 36 37 37 37 37 37 37 37 36 36 35 36 36 36 36 35 34 34 35 36 36 36 35 35 36 38 39 40 42 44 47 49 50 52 53
33 34 35 36 36 38 38 38 39 39 39 39 39 38 39 39 38 37 36 36 37 37 37 35 34 34 35 36 36 36 35 35 35 37 38 39 41 43 44 46 48 50 52
36 37 38 39 39 40 40 41 41 40 40 41 41 41 40 40 40 39 37 37 37 38 37 35 35 35 35 36 36 36 35 35 35 36 38 38 39 42 43 44 46 48 50
39 40 41 41 42 42 43 43 44 43 43 42 43 43 42 41 41 40 39 39 38 38 37 36 36 35 35 36 36 36 35 35 35 35 37 38 38 40 41 43 45 47 49

GEFSMA_500_meanwind_084.txt.gz
Wind_Speed
6 6 7 7 7 7 7 7 7 7 7 7 8 10 10 10 11 12 13 15 16 16 16 16 16 16 16 17 18 20 20 20 19 18 18 17 16 15 14 13 12 10 9
5 5 5 6 6 6 6 6 6 6 6 6 7 8 9 9 10 11 12 14 16 17 17 17 17 17 17 17 18 20 21 22 22 21 20 19 18 18 17 16 14 13 11
4 4 5 5 5 5 6 6 6 5 5 6 6 6 7 8 9 10 10 12 14 16 17 18 18 18 19 18 18 19 21 22 23 23 22 22 21 20 19 18 17 16 13
3 4 4 5 5 5 5 6 6 5 6 6 6 6 7 8 8 9 10 11 13 15 16 17 18 18 19 19 19 20 21 23 24 24 25 24 23 22 21 21 20 19 16
3 3 4 4 5 5 5 5 6 5 5 5 6 6 7 8 8 9 10 11 12 14 15 16 17 17 18 18 19 21 22 22 24 25 26 27 26 25 24 23 22 21 20
2 3 4 4 5 5 5 5 6 6 6 6 6 6 6 8 8 9 10 11 13 14 14 15 16 16 17 18 19 20 22 22 23 25 26 27 28 28 28 26 25 24 22
2 2 3 4 5 5 6 6 6 6 6 6 6 6 7 7 8 9 10 11 12 13 14 15 16 17 17 18 19 20 22 23 23 24 27 27 28 30 30 29 28 27 26
2 2 3 4 5 6 6 6 6 6 7 7 7 7 7 8 8 9 10 11 12 13 14 15 16 17 18 19 20 21 22 23 24 25 27 28 28 29 31 32 31 30 29
2 2 2 4 5 5 6 6 7 7 7 8 8 8 8 8 9 10 11 11 13 14 15 16 17 18 19 19 20 21 22 23 23 25 26 28 30 30 30 31 33 33 33
1 1 1 3 4 5 5 6 7 7 8 9 9 9 10 10 11 11 12 13 13 14 16 17 18 19 19 20 21 22 23 24 25 26 27 27 29 30 31 31 32 34 35
2 1 1 2 3 4 5 6 7 9 10 11 11 11 11 12 12 12 13 14 14 15 16 17 18 19 21 22 22 22 24 25 25 26 28 29 29 30 31 32 32 33 35
4 4 3 4 4 5 6 7 8 10 11 12 13 13 13 13 14 14 14 15 15 15 17 18 19 20 21 23 23 24 25 26 27 28 29 30 30 31 32 33 34 34 35
6 6 6 6 6 7 8 9 10 12 13 14 14 14 15 15 15 15 16 16 16 17 17 18 20 21 22 24 25 26 27 27 28 29 30 31 32 32 33 34 35 35 35
8 8 8 8 9 9 10 11 12 13 14 15 15 16 16 16 16 16 17 17 18 18 18 19 20 21 23 25 26 28 29 30 31 31 32 33 34 34 34 35 36 36 37
11 11 11 11 12 12 13 13 14 15 15 16 16 17 17 17 18 18 18 19 20 20 20 20 20 21 22 24 26 28 29 31 33 34 35 35 36 37 37 37 38 38 38
14 14 15 15 15 15 16 16 16 17 17 18 18 18 18 19 19 20 20 20 21 21 22 22 22 22 22 24 25 27 29 30 33 35 36 37 39 39 40 40 40 40 41
17 18 18 18 18 19 19 19 19 19 19 19 20 20 20 20 21 21 22 22 22 22 23 24 24 24 24 24 25 26 28 30 32 33 36 38 39 41 42 42 43 43 44
20 21 21 21 21 22 22 22 22 22 22 22 22 22 22 23 23 23 23 23 24 24 25 26 26 26 26 26 26 27 28 29 31 33 34 37 39 41 43 43 44 45 46
23 24 24 24 24 25 25 25 25 25 24 24 25 25 25 25 25 25 25 25 26 26 27 27 28 29 29 28 28 28 29 30 31 33 34 36 37 40 42 44 45 46 47
26 26 26 26 27 27 27 27 27 27 27 27 27 27 27 27 28 28 28 28 28 28 28 29 30 30 30 30 30 30 30 31 32 33 34 35 37 39 41 43 45 47 48
28 28 28 29 29 29 29 29 29 29 29 29 29 29 30 30 30 31 31 31 30 30 30 31 31 32 33 32 32 32 32 32 33 34 34 35 36 38 39 41 44 46 47
30 30 30 31 31 31 31 31 31 31 31 31 31 32 32 32 33 33 33 33 33 33 33 33 33 34 34 34 34 34 34 34 34 35 35 36 37 37 38 40 41 43 46
32 32 32 32 31 31 32 33 33 33 34 34 34 34 34 35 35 36 36 36 36 36 36 35 35 36 36 36 36 36 35 35 35 36 36 36 38 38 38 39 40 42 44
33 33 33 33 33 33 34 35 35 36 36 37 37 37 37 38 39 39 38 38 38 38 38 37 37 38 38 38 38 37 37 36 36 37 37 37 38 39 39 39 39 41 43
34 35 35 36 36 36 37 38 39 39 40 40 40 41 41 41 42 42 42 41 41 41 41 40 40 40 40 40 40 39 38 38 37 37 38 38 38 39 39 39 40 40 42
37 38 38 39 39 40 40 42 43 43 43 43 44 44 44 44 45 45 45 44 44 44 45 44 42 42 41 41 41 41 40 39 38 38 39 39 39 39 39 39 40 41 41

GEFSMA_500_meanwind_090.txt.gz
Wind_Speed
6 6 5 5 5 5 6 6 5 5 5 6 6 7 8 9 10 8 10 11 12 13 14 15 13 13 13 13 14 16 18 17 16 15 15 14 13 12 11 10 9 8 7
4 4 4 5 5 5 4 4 5 5 5 5 5 6 7 7 8 9 9 10 11 11 13 14 14 13 14 15 14 14 16 17 18 17 16 16 15 15 14 13 11 10 9
3 3 4 4 4 4 4 4 4 4 4 4 4 4 5 6 7 8 8 9 9 10 11 12 14 14 14 14 15 15 16 16 17 19 18 17 17 17 16 15 14 13 11
2 3 3 3 3 3 4 4 4 4 4 4 4 4 4 5 6 6 7 8 8 9 10 11 13 14 14 15 15 15 16 16 17 18 19 19 19 19 19 18 17 16 15
1 2 2 2 3 4 4 4 4 4 4 5 4 4 4 5 6 7 7 7 8 9 9 10 11 13 14 15 16 16 16 17 17 19 20 20 20 20 20 21 19 18 17
0 1 2 2 3 4 4 4 5 5 5 5 5 5 5 5 5 6 7 8 8 8 9 10 11 11 12 13 15 15 16 16 17 18 20 21 20 20 22 23 22 21 20
1 1 2 3 4 4 5 5 6 6 6 6 6 6 6 6 6 7 7 8 8 9 9 10 11 11 11 12 13 14 14 15 16 16 18 20 21 21 22 22 23 23 23
2 2 2 3 4 5 5 6 6 7 8 8 8 8 7 7 7 7 7 8 8 9 9 10 11 11 11 12 12 13 13 14 15 16 17 18 20 22 22 23 23 24 25
2 2 1 2 3 4 5 6 6 7 8 8 9 8 8 9 9 9 9 9 9 9 10 10 11 11 12 12 12 13 13 14 15 16 17 17 19 21 22 23 25 24 25
3 2 1 1 1 2 3 4 5 7 8 8 9 9 10 10 10 9 9 10 10 10 11 11 11 11 12 13 13 14 14 14 15 16 18 18 19 20 22 23 25 26 26
4 3 2 1 1 2 3 5 6 7 8 9 9 10 11 11 11 11 11 11 11 11 12 12 12 12 13 13 14 14 15 15 16 17 18 18 19 19 21 23 25 26 27
5 4 4 3 3 4 5 6 7 9 9 10 10 11 12 13 13 13 13 12 12 12 13 14 14 14 14 14 15 15 16 17 17 18 19 19 20 21 21 22 23 25 27
7 6 6 6 6 7 8 9 9 10 11 11 12 13 13 14 14 14 14 14 14 14 14 15 15 15 15 15 16 17 17 18 19 20 20 21 21 22 23 24 24 25 27
9 9 9 9 9 10 10 11 12 13 13 14 15 16 16 16 16 16 16 16 16 16 15 16 16 17 18 17 18 18 19 19 20 21 22 23 23 24 25 25 26 26 27
11 11 11 12 12 13 14 15 15 16 17 17 18 18 18 18 18 18 18 18 19 18 17 17 17 18 19 19 20 20 20 21 21 22 23 24 25 26 27 27 28 28 29
14 14 14 15 15 16 17 18 19 19 20 20 20 21 21 21 21 21 21 21 21 21 21 20 19 19 20 20 20 22 22 22 23 24 24 25 25 26 27 29 30 31 31
17 17 17 17 18 19 20 21 22 22 23 23 23 23 23 23 23 23 23 23 23 23 23 23 22 22 22 23 23 23 23 24 24 25 25 26 26 26 27 28 30 31 32
19 19 20 20 21 21 22 23 24 24 25 25 25 25 25 26 26 26 26 26 26 25 25 25 25 25 24 25 25 26 26 26 26 26 27 27 27 28 28 29 29 30 32
21 21 22 23 23 24 25 26 26 26 27 27 27 27 27 27 28 28 28 28 28 28 28 27 27 27 27 27 27 27 28 28 28 28 28 28 29 29 29 29 30 31 32
23 24 24 25 26 27 27 28 28 28 28 29 29 29 29 29 30 30 30 30 31 30 30 30 30 30 30 30 30 30 29 29 29 30 30 29 29 30 31 31 31 32 33
25 26 26 27 28 28 29 30 31 31 31 31 31 31 31 32 32 32 32 32 32 32 32 32 32 33 33 33 32 32 31 31 31 32 32 31 31 31 32 32 32 32 33
28 28 29 29 30 30 31 32 33 33 33 33 33 33 33 33 34 34 34 34 34 34 34 35 35 35 36 35 35 35 35 34 33 34 33 33 34 33 33 33 33 33 34
30 30 31 31 32 32 34 34 35 35 35 35 35 35 35 36 36 36 36 37 37 38 38 38 38 38 38 38 37 37 37 36 35 36 36 35 35 35 35 34 34 34 35
32 32 33 33 34 35 36 37 38 39 38 37 38 38 38 38 39 40 40 40 40 40 40 41 41 40 40 40 41 40 39 39 38 38 39 38 37 37 37 36 35 35 35
35 36 37 37 37 37 38 39 41 41 39 39 40 41 41 41 42 44 44 44 44 43 44 45 44 43 43 43 44 44 43 43 41 40 41 41 39 39 38 38 38 37 36
36 37 38 38 39 39 39 40 41 41 41 40 40 41 42 43 44 45 46 47 47 47 48 48 47 47 46 46 46 47 47 46 45 43 43 44 42 41 40 39 39 39 38

GEFSMA_500_meanwind_096.txt.gz
Wind_Speed
5 5 4 5 5 5 5 5 5 6 6 6 6 5 4 4 5 6 7 7 6 8 9 9 10 10 10 10 10 10 11 11 12 12 12 11 10 10 11 10 9 9 8
4 4 3 3 3 4 4 4 3 4 5 5 5 4 4 4 4 5 5 6 6 6 7 9 9 10 9 10 11 11 11 12 13 13 14 13 13 12 11 12 11 11 10
4 3 2 1 1 1 1 1 1 2 3 3 3 3 2 2 2 3 4 5 6 6 7 7 8 9 10 10 11 11 12 12 12 13 15 15 15 15 14 13 13 13 12
4 3 2 2 1 1 1 1 1 1 2 2 3 3 2 2 2 2 2 3 4 5 6 7 7 8 9 11 12 12 12 12 13 14 14 16 17 17 16 15 15 14 15
4 3 3 3 2 2 2 2 2 2 2 3 4 3 3 2 1 1 2 2 3 3 4 6 7 7 8 10 11 12 13 13 13 14 15 16 18 18 18 17 17 17 16
5 4 4 4 3 3 3 3 3 3 4 4 4 5 5 4 3 2 1 1 1 2 3 4 5 6 7 8 9 11 12 13 14 14 15 16 18 19 18 18 18 18 18
6 6 5 5 4 4 4 5 5 5 5 5 5 5 5 5 5 4 3 2 1 2 2 3 4 5 6 7 7 9 11 13 13 13 14 15 17 19 20 20 19 20 20
7 7 6 6 5 5 5 5 5 5 6 6 6 6 6 6 6 5 4 3 3 2 2 3 3 4 5 6 7 7 9 11 12 13 13 15 16 17 19 21 20 20 21
8 8 7 6 6 5 4 4 4 4 4 5 5 5 5 6 6 6 5 4 4 3 2 2 3 4 5 5 6 6 7 9 11 12 12 13 15 16 18 20 22 22 21
9 9 8 7 6 5 4 3 2 3 3 4 4 4 5 5 5 6 6 5 4 4 3 3 3 4 5 5 6 7 8 9 10 11 12 13 14 15 16 18 20 22 22
10 9 8 8 7 6 4 3 1 1 1 2 3 4 4 4 4 5 5 5 5 4 4 4 4 5 5 5 6 7 8 9 10 11 12 13 14 15 16 18 19 21 23
11 10 9 9 8 7 5 4 3 2 2 3 3 4 4 5 5 5 5 5 6 6 6 6 6 6 6 6 7 7 8 9 10 11 12 14 14 16 16 17 19 21 22
12 11 10 10 9 8 7 6 5 5 5 5 5 6 6 6 6 6 6 7 7 7 8 8 8 8 8 8 9 9 10 11 12 12 13 14 15 16 17 18 20 21 22
13 13 13 12 12 11 10 10 9 8 8 8 8 9 9 9 9 9 9 9 9 9 10 10 10 10 11 11 11 12 12 12 13 14 15 15 17 18 19 20 20 22 23
15 15 15 14 14 14 13 13 12 12 12 12 12 12 12 12 12 12 12 12 12 12 12 12 13 13 14 14 14 14 14 15 15 15 16 17 18 19 20 22 22 23 24
17 17 17 17 17 17 16 16 16 16 16 15 15 15 15 15 15 16 16 16 15 15 15 15 15 16 16 17 17 17 17 17 18 18 18 19 19 20 21 22 23 25 25
19 19 19 19 19 19 19 19 19 19 19 19 19 19 18 18 18 18 19 19 19 19 19 18 18 19 19 19 20 20 20 20 20 21 21 21 21 22 22 23 24 25 26
21 21 21 21 22 22 22 21 22 22 22 22 22 22 21 21 21 21 21 22 22 22 22 22 22 22 22 22 23 23 23 23 23 23 24 24 24 24 25 25 26 26 27
22 23 23 24 24 24 24 24 24 24 24 24 24 24 24 24 24 24 24 24 25 25 25 25 25 25 25 25 25 26 26 26 26 26 27 27 27 28 28 28 28 28 29
24 25 25 26 27 27 27 27 27 27 27 27 27 27 27 27 27 28 27 28 28 28 28 28 28 28 28 28 28 29 29 29 30 30 30 30 30 31 31 31 31 31 31
26 27 27 28 29 29 29 30 30 30 30 30 30 30 30 30 30 31 31 31 31 31 31 31 30 31 31 32 32 32 32 32 33 33 33 33 34 34 34 34 33 34 34
27 27 29 31 31 31 31 32 32 32 32 32 32 32 32 33 34 34 35 35 35 34 34 34 34 34 35 35 35 35 35 35 35 36 36 36 37 37 37 37 37 37 37
27 29 30 32 32 33 33 34 35 34 33 33 33 34 35 35 36 37 37 37 37 37 37 38 38 38 38 39 40 39 40 40 39 40 41 39 40 40 40 40 40 40 39
27 29 29 31 32 33 33 33 34 34 34 34 35 35 35 36 37 38 38 38 38 39 40 41 41 41 42 42 43 43 44 44 44 44 45 44 43 44 44 43 43 43 42
29 31 32 32 31 32 32 33 34 34 34 35 36 36 38 39 39 40 41 41 40 41 43 44 44 44 45 46 47 47 47 48 46 46 47 47 46 47 47 46 46 46 45
28 30 30 31 31 31 32 34 34 35 35 36 37 38 38 40 41 42 43 43 43 43 44 45 46 46 47 48 50 51 51 52 51 50 50 51 51 51 50 49 49 49 48

GEFSMA_500_meanwind_102.txt.gz
Wind_Speed
5 5 4 4 4 4 4 4 4 3 3 3 3 3 3 4 5 5 5 6 7 7 8 10 11 11 10 11 11 11 11 11 11 10 10 10 10 9 9 9 8 8 7
5 4 4 4 3 3 3 3 3 2 1 1 2 3 3 4 5 5 5 5 6 7 7 9 11 11 11 11 11 11 12 12 12 12 12 12 12 12 11 10 10 10 9
5 4 3 3 2 2 2 2 1 1 1 1 1 1 2 3 4 4 5 5 5 6 7 8 9 11 11 11 11 11 12 12 13 13 13 13 13 13 13 12 12 11 11
5 4 3 2 2 1 1 1 1 1 1 1 1 1 1 2 3 3 4 4 5 6 6 7 8 10 10 11 11 11 12 13 13 14 14 15 15 15 15 14 14 14 13
6 5 4 3 2 1 1 1 2 2 2 2 2 2 1 1 1 2 2 3 4 5 6 7 8 9 10 10 11 12 12 12 13 13 13 14 15 16 16 16 16 15 15
7 6 5 4 3 2 1 2 2 3 3 3 3 2 2 2 1 0 1 2 3 3 4 5 7 7 8 9 10 11 12 12 13 13 13 14 14 15 16 17 16 16 16
8 7 6 5 4 3 2 2 2 3 3 3 3 3 3 3 2 1 1 1 2 2 3 3 4 5 7 8 8 9 10 11 12 13 13 13 14 14 15 17 18 18 17
9 8 7 6 5 4 3 2 2 3 3 3 3 3 3 4 3 3 2 1 1 1 1 2 3 4 5 6 7 8 8 9 10 12 13 13 14 15 15 16 17 18 19
10 9 8 7 6 5 4 3 2 2 2 3 3 3 3 3 3 3 2 2 1 0 1 2 3 3 4 5 6 7 7 8 9 10 11 13 14 15 15 16 17 18 20
11 10 9 8 7 6 5 4 3 2 2 2 2 2 2 1 1 1 1 2 2 2 2 2 3 4 4 5 6 6 7 8 8 9 11 12 13 13 14 15 16 17 19
12 12 11 10 9 8 7 6 5 4 3 3 2 1 1 1 1 1 2 2 2 3 3 3 3 4 5 5 6 7 8 8 8 9 10 11 13 14 15 16 17 18 19
14 13 12 11 10 9 9 8 7 6 6 5 5 4 4 4 4 4 4 4 4 4 5 5 5 6 7 7 7 8 9 9 10 11 11 12 13 14 15 16 17 18 19
15 14 14 13 12 11 11 10 10 9 9 9 8 8 8 7 7 7 7 7 7 7 8 8 8 8 9 10 10 10 10 11 11 12 12 13 13 15 15 16 17 18 19
16 16 15 15 14 14 14 13 13 12 12 11 11 11 11 11 11 10 11 11 11 11 11 11 11 11 11 12 13 13 14 14 14 14 14 15 15 16 17 17 18 19 20
18 17 17 17 17 17 17 16 16 16 15 15 15 15 15 14 14 14 14 14 14 14 14 14 14 15 15 15 15 16 16 17 18 18 18 18 18 19 19 19 20 21 22
19 19 19 19 19 19 19 20 20 19 19 19 19 19 18 18 18 18 18 18 18 18 18 18 18 18 19 18 19 19 19 20 20 21 21 21 22 22 22 22 22 23 23
21 21 21 21 21 22 22 23 23 23 23 23 23 23 22 22 22 22 22 22 22 21 22 22 22 22 22 22 22 23 23 23 23 24 24 24 25 25 25 25 25 25 26
22 23 23 23 24 25 25 26 26 26 26 27 27 27 27 26 26 26 26 26 25 25 25 25 26 26 26 26 26 26 26 27 27 27 27 27 28 28 28 29 29 29 29
24 25 26 26 27 28 28 28 29 29 29 30 30 30 30 30 30 30 29 29 29 29 28 29 29 29 29 29 29 30 30 30 30 30 30 31 31 31 31 32 32 32 32
26 27 28 29 30 31 31 32 32 32 32 32 33 33 34 34 33 33 33 33 33 32 32 32 31 32 32 33 33 33 33 33 33 34 34 34 34 35 35 35 36 35 36
27 28 29 31 32 33 34 34 34 35 36 36 36 37 37 37 37 37 36 36 36 35 35 35 35 35 36 36 37 36 36 36 36 37 37 37 38 38 38 39 39 39 39
25 27 28 30 33 34 35 36 37 37 38 38 39 39 39 39 39 40 40 39 39 38 39 39 39 39 39 40 41 40 40 39 39 40 41 41 42 41 42 42 43 43 42
25 28 30 30 31 33 35 36 38 39 40 40 40 40 40 40 40 41 42 42 42 42 42 42 42 42 42 43 43 43 44 44 42 43 44 43 45 45 46 46 46 47 46
28 29 30 31 32 34 36 36 37 39 41 41 41 41 42 42 43 43 43 43 44 44 44 44 44 44 44 45 46 47 47 47 46 46 48 46 46 48 49 49 50 50 50
29 31 32 33 34 35 36 37 38 39 40 41 42 42 42 43 44 44 45 44 45 45 46 47 47 47 47 48 49 49 50 50 49 48 50 51 50 51 52 52 52 53 53
30 31 33 33 33 34 34 35 38 39 40 41 42 42 43 44 44 45 45 46 46 47 48 49 50 50 50 51 51 52 53 54 54 54 53 55 55 56 55 53 54 56 56

GEFSMA_500_meanwind_108.txt.gz
Wind_Speed
4 4 3 2 2 2 2 3 3 3 3 4 4 4 4 5 6 6 7 8 8 9 9 11 12 12 13 12 12 13 13 13 13 12 11 11 10 10 10 9 8 8 7
5 4 3 2 2 2 2 2 2 2 3 3 3 4 4 4 4 5 6 6 8 8 9 9 11 12 13 13 13 13 12 13 13 13 12 12 11 11 11 11 10 9 8
6 5 4 3 2 2 2 1 1 2 2 2 3 3 3 3 3 4 5 6 7 8 9 9 10 11 13 13 13 13 13 13 13 14 14 13 13 13 13 12 12 11 10
6 5 4 3 3 2 2 1 1 1 1 1 1 2 2 3 3 3 4 5 6 7 7 7 8 10 11 11 11 13 13 13 13 14 14 15 15 14 14 14 14 13 13
7 6 5 4 3 2 2 2 1 1 0 0 0 1 1 2 2 3 4 4 5 6 7 7 7 8 9 10 10 11 12 12 13 14 14 15 16 16 16 15 15 15 15
7 7 6 5 4 3 2 2 1 1 1 1 0 0 0 1 1 2 3 4 4 5 5 6 7 8 9 9 10 10 11 11 13 14 14 14 15 15 15 16 16 16 16
9 8 7 6 5 4 3 3 2 1 1 1 1 1 0 0 0 0 1 2 3 4 4 5 5 6 7 8 9 9 10 11 12 13 14 14 14 15 15 15 16 17 17
10 9 8 7 6 4 4 3 2 2 1 1 1 1 1 1 1 1 1 1 1 2 3 4 5 5 6 7 8 9 10 10 10 12 13 14 15 15 15 16 16 17 17
11 10 9 8 7 5 4 4 3 2 2 1 0 0 1 1 1 1 1 1 1 1 2 3 4 5 6 6 7 8 9 9 9 9 11 13 14 15 16 16 16 17 17
12 12 10 9 8 7 6 5 5 4 3 2 2 2 2 2 2 2 2 2 2 3 3 3 4 5 6 7 7 8 8 9 9 9 10 11 13 14 15 16 16 17 17
13 13 12 11 9 8 7 6 6 5 5 4 4 4 4 4 4 4 4 4 4 5 5 6 6 6 7 8 8 8 9 10 10 11 11 11 11 12 13 14 15 16 17
13 14 13 12 11 10 9 8 8 8 7 6 6 6 6 6 6 6 6 7 7 7 7 8 8 9 9 10 10 10 11 11 12 12 13 13 13 13 13 14 15 16 17
14 15 15 13 13 12 11 11 10 10 10 9 9 9 9 9 9 9 10 10 10 10 10 11 11 11 12 12 13 13 13 14 14 14 15 15 15 15 15 15 16 17 18
15 16 16 15 15 14 14 13 13 13 13 12 12 12 12 12 12 13 13 13 13 13 14 14 14 15 15 15 15 16 16 16 16 17 17 17 18 18 18 18 18 19 19
16 16 16 17 16 16 16 16 16 16 16 16 16 15 15 16 16 16 16 17 17 17 17 17 18 18 18 19 19 19 19 19 20 20 20 20 21 21 21 21 21 21 22
17 17 18 18 18 19 18 19 19 19 19 19 19 19 19 19 20 20 20 20 20 21 21 21 21 21 22 22 22 23 23 23 23 23 23 24 24 24 24 24 24 24 24
19 19 19 20 20 21 21 21 21 21 22 22 23 23 23 23 23 24 24 24 24 24 25 25 25 26 26 26 26 26 27 27 27 27 27 27 27 27 27 27 28 28 28
20 21 21 22 22 22 23 23 24 24 25 25 26 26 27 27 27 28 28 28 28 29 29 29 30 30 30 30 30 30 31 31 31 30 31 30 30 30 30 31 31 31 31
21 22 23 23 23 23 24 26 26 27 27 28 28 29 30 30 30 31 31 32 32 32 32 33 33 34 34 34 34 34 34 34 34 34 34 34 34 34 34 34 34 34 34
22 23 24 24 25 25 27 27 28 29 30 31 31 32 32 33 33 34 34 35 35 35 36 36 37 37 37 38 38 38 38 38 38 38 38 38 38 38 38 38 38 38 38
22 22 23 24 26 27 29 30 31 31 32 32 33 34 35 35 36 37 37 38 38 38 39 39 39 40 40 40 40 41 41 40 40 41 41 41 42 41 41 41 41 41 41
22 22 24 25 27 28 29 30 32 33 33 33 34 35 36 37 38 38 39 40 40 40 40 41 42 42 42 42 42 43 43 43 43 43 43 43 44 44 44 44 43 43 43
22 23 24 25 26 27 29 30 31 33 34 35 36 37 38 39 40 42 43 43 43 43 43 43 44 43 44 45 45 45 45 46 46 47 47 45 46 47 47 47 46 46 46
23 24 25 27 28 29 30 31 33 35 36 37 38 39 40 41 41 42 43 43 43 43 44 45 46 45 46 47 47 47 47 47 47 47 48 48 48 49 50 49 49 49 49
24 26 27 28 30 31 33 35 36 37 39 39 40 40 41 42 43 43 44 44 45 47 47 47 48 49 49 48 49 49 49 49 49 49 50 51 50 51 52 52 52 52 52
25 27 28 30 32 33 34 35 37 38 39 40 41 42 42 44 44 44 45 46 47 48 48 48 49 50 50 50 51 51 51 51 51 51 52 53 53 53 53 53 53 54 55

GEFSMA_500_meanwind_114.txt.gz
Wind_Speed
6 4 4 4 3 3 2 2 2 2 2 3 3 3 3 3 4 5 6 6 6 6 7 7 8 9 10 10 10 10 10 10 10 9 9 9 8 8 7 7 7 6 5
6 4 4 3 3 2 2 1 1 1 2 2 2 2 2 2 3 3 4 5 5 6 6 6 7 7 8 10 11 11 11 11 11 10 10 10 10 9 9 9 8 8 7
7 5 4 4 3 2 1 1 1 1 1 1 1 1 1 1 2 2 2 3 4 5 5 6 7 7 7 8 9 10 11 10 11 12 11 11 11 11 10 10 10 9 9
7 6 5 4 3 2 1 0 1 1 1 1 1 1 1 1 2 2 2 2 2 2 4 5 5 7 7 8 8 8 9 10 11 12 12 13 13 13 13 12 11 11 11
7 7 6 5 4 3 1 0 1 2 2 2 2 2 2 2 2 2 2 2 2 3 3 4 4 5 7 7 8 8 8 9 10 11 11 12 13 13 13 14 13 12 12
8 7 6 5 4 3 2 1 2 2 2 3 3 3 3 2 2 2 3 2 2 3 3 3 3 4 5 6 7 7 8 8 8 10 11 11 12 12 13 13 14 14 13
9 9 8 6 5 4 3 2 2 2 2 3 3 3 3 3 3 3 3 2 3 3 3 3 3 3 4 4 5 6 6 6 6 7 9 11 11 12 12 12 13 13 14
9 10 9 7 6 5 4 2 1 1 1 2 2 3 4 4 4 4 4 3 3 3 3 3 3 3 3 3 4 5 5 6 6 7 7 8 10 11 12 12 13 13 14
10 10 9 8 7 6 5 3 2 0 0 0 1 2 3 3 4 4 4 4 4 3 3 3 3 3 3 3 3 4 5 6 7 7 8 8 8 10 11 12 13 14 15
10 10 10 9 8 7 6 5 4 3 2 2 2 1 2 2 3 3 4 4 4 4 4 4 4 4 4 4 4 4 5 6 7 8 8 9 9 9 10 11 12 14 15
11 11 11 10 9 8 7 7 6 5 4 4 4 4 3 3 4 4 4 4 5 5 5 5 5 5 5 5 6 6 6 7 8 8 8 9 10 10 11 12 12 13 14
11 12 12 11 10 10 9 9 8 7 7 7 6 6 6 6 6 6 6 6 6 7 7 7 7 7 8 8 8 8 8 9 9 10 10 11 11 12 12 12 13 13 14
12 12 13 12 11 11 11 11 10 10 10 10 9 9 9 9 9 9 9 9 9 9 10 10 10 10 10 11 11 11 11 11 11 12 12 12 13 13 14 14 14 14 15
14 14 14 14 13 12 13 13 13 13 13 13 13 12 12 13 13 13 13 13 13 13 13 13 13 13 13 13 14 14 14 14 14 15 15 15 16 16 16 16 16 17 17
14 15 15 15 15 15 15 15 15 16 16 16 16 16 16 16 16 16 16 17 17 17 17 16 16 17 17 17 17 18 18 18 19 19 19 19 20 20 19 19 19 19 19
15 15 16 16 17 17 17 17 18 18 19 19 19 19 19 20 20 20 20 21 21 21 21 21 20 21 21 21 21 22 22 22 22 23 23 24 24 24 23 23 23 23 22
16 16 17 17 18 19 19 19 20 20 21 21 22 22 22 23 23 23 24 24 25 25 25 25 24 24 24 25 25 25 25 26 26 27 27 27 28 28 28 27 27 27 26
18 18 18 19 19 20 21 21 22 22 23 24 24 24 25 25 26 27 27 27 28 28 29 29 29 28 28 29 29 30 30 30 30 31 31 31 32 32 32 32 31 31 30
19 20 20 20 21 21 22 22 22 24 25 26 26 26 27 28 28 29 30 30 30 31 31 32 32 32 32 32 33 33 34 35 35 35 35 35 35 36 36 36 35 35 35
20 20 21 21 21 22 22 22 23 24 25 26 26 28 29 29 30 31 31 32 33 33 34 34 35 35 36 36 37 37 37 38 38 39 38 38 38 38 38 38 38 38 38
19 20 21 22 22 22 22 23 24 24 24 25 27 28 29 30 32 32 33 34 35 36 37 37 38 39 39 40 39 40 40 41 41 42 42 40 40 40 40 40 40 41 41
18 19 20 21 22 22 23 24 25 25 26 27 28 30 31 31 32 33 35 36 37 37 39 40 40 41 41 41 41 42 43 42 42 42 43 42 42 42 43 43 43 44 44
19 19 20 21 21 21 23 24 26 27 28 29 30 31 31 32 33 34 35 36 37 38 39 40 41 41 42 43 43 44 44 44 44 44 45 45 45 46 46 46 46 46 46
19 19 19 21 22 23 23 25 27 28 29 30 31 32 33 35 35 36 37 38 40 40 41 42 42 43 44 45 46 46 46 47 47 47 48 48 48 48 48 48 47 47 47
21 21 21 22 23 25 26 28 29 30 31 32 33 33 34 35 36 38 39 40 41 43 44 45 45 46 47 47 48 48 49 49 48 48 49 50 49 49 49 48 48 49 48
22 24 25 25 26 27 29 30 31 32 33 34 34 35 36 38 40 41 42 43 44 45 46 48 49 49 49 49 49 50 51 51 51 51 51 52 53 53 51 50 50 51 51

GEFSMA_500_meanwind_120.txt.gz
Wind_Speed
9 8 6 5 4 4 3 3 3 2 2 1 1 2 2 2 2 3 4 4 4 5 5 6 6 6 7 7 8 8 9 9 9 8 8 8 8 8 8 7 7 7 6
10 8 6 5 4 4 3 2 2 1 1 1 1 1 1 1 2 2 3 4 4 5 5 6 7 6 6 7 7 8 9 10 10 10 10 9 9 9 9 9 8 8 8
10 9 7 5 5 4 3 2 1 1 1 1 1 1 1 2 2 2 3 3 3 4 5 6 6 7 7 7 7 8 9 9 10 10 11 10 9 10 10 10 10 10 9
10 9 8 7 6 5 3 3 2 2 2 2 2 1 1 1 2 2 2 2 3 3 4 5 6 6 6 7 7 7 8 9 10 11 11 12 11 11 11 11 11 11 11
10 9 9 8 7 6 5 4 3 2 2 2 2 2 2 2 2 2 2 3 3 3 3 4 4 5 5 6 7 7 7 8 9 10 11 12 12 12 12 12 12 12 12
10 10 10 9 8 7 6 5 4 4 3 3 3 4 3 3 3 3 2 3 3 3 3 3 4 4 4 5 6 6 7 7 8 9 10 10 11 12 12 12 13 13 13
11 11 11 10 9 8 7 6 5 4 4 4 4 4 4 4 3 3 3 2 3 3 2 3 3 3 3 4 5 5 5 6 7 7 8 9 9 10 11 12 12 13 13
12 12 12 11 9 9 8 7 6 5 5 4 4 4 3 3 3 3 2 2 2 2 1 2 3 2 3 3 4 4 5 5 6 7 7 8 8 9 10 11 12 13 13
13 13 13 12 10 10 9 8 7 6 5 4 4 3 3 3 3 2 2 2 1 1 0 0 1 2 2 2 3 3 5 5 6 6 7 8 9 10 10 11 12 13 14
14 13 13 12 11 10 10 9 8 7 5 5 4 4 3 3 2 2 2 1 1 1 1 1 1 2 2 2 2 3 4 5 6 7 8 9 9 10 11 12 12 13 14
14 14 13 13 12 11 10 10 9 8 7 6 6 5 5 5 4 3 3 3 3 3 3 3 3 3 4 4 5 5 5 6 7 8 8 9 10 11 11 12 12 13 13
14 14 14 14 13 12 12 11 10 9 9 8 7 7 7 7 6 5 5 5 5 5 4 5 6 6 6 7 7 7 8 8 9 9 10 10 11 11 12 12 13 14 14
15 15 15 15 14 14 13 12 12 11 11 10 10 9 9 9 9 8 8 8 7 8 7 8 8 9 9 9 10 10 10 10 11 12 12 13 13 13 13 14 14 15 15
15 15 15 15 15 15 15 14 13 13 13 13 12 12 12 12 11 11 11 11 11 11 11 11 11 12 12 12 13 13 13 14 14 14 15 15 15 15 16 16 16 17 18
16 16 16 16 17 17 16 16 16 15 15 15 15 15 15 14 14 14 14 14 14 14 15 15 15 15 15 16 16 16 17 17 17 17 18 18 19 19 19 19 20 20 20
16 16 16 17 17 17 17 17 18 18 18 18 18 18 18 18 18 18 18 18 17 17 18 18 18 18 19 19 19 20 20 21 21 21 21 22 22 23 23 24 24 24 24
17 17 17 17 17 18 19 19 19 19 19 19 20 20 21 21 21 22 21 21 21 21 21 22 22 22 22 22 23 23 23 24 25 25 26 26 26 27 27 28 28 28 28
18 18 17 18 19 19 20 20 20 21 21 21 21 22 22 23 23 24 24 25 24 24 25 25 25 25 25 26 26 26 27 28 29 30 30 30 31 32 33 33 32 33 33
19 19 19 19 19 20 21 21 22 22 22 23 23 23 24 24 24 25 26 27 27 27 28 28 28 29 29 29 29 30 31 32 33 33 34 34 35 36 36 37 37 37 37
20 21 20 19 20 20 21 22 23 23 23 23 23 23 24 25 26 26 27 28 28 29 30 30 31 32 32 33 34 35 35 35 36 37 37 37 37 37 38 38 39 40 40
19 20 20 20 20 21 22 23 23 23 23 23 23 24 24 24 25 26 27 28 29 30 30 31 32 33 34 35 36 36 37 38 38 39 39 39 40 40 40 40 40 41 42
19 20 20 20 20 21 21 21 22 22 22 23 24 25 25 27 28 28 29 30 31 32 33 34 34 35 36 37 38 39 40 40 40 42 43 42 44 43 43 43 44 45 45
18 19 20 20 20 21 21 21 22 23 24 25 26 27 27 28 29 31 32 32 33 34 35 36 37 38 39 40 41 42 43 44 44 45 46 46 47 47 47 48 48 49 49
19 19 20 20 21 21 21 22 23 24 26 26 27 29 29 30 31 32 33 34 35 36 37 38 39 41 42 43 44 45 46 47 48 48 49 50 50 51 51 52 53 54 53
18 19 19 21 22 22 22 23 24 25 26 28 29 30 30 32 33 34 34 36 37 39 40 41 43 45 46 47 48 49 50 51 52 52 54 54 54 54 54 55 56 57 57
17 19 20 21 22 23 24 25 26 27 28 29 30 31 32 33 35 36 37 39 40 42 43 45 47 48 49 51 52 53 54 55 56 57 58 59 59 59 58 59 59 60 60

GEFSMA_500_meanwind_126.txt.gz
Wind_Speed
7 6 5 5 4 3 2 2 1 2 2 1 2 2 2 2 3 3 4 4 5 5 6 6 7 7 7 7 8 8 8 8 7 7 7 7 7 7 7 7 6 6 5
8 7 6 5 4 3 2 2 2 2 2 1 1 2 2 2 3 3 4 5 5 6 7 7 7 7 7 7 8 8 8 9 9 9 8 8 8 8 8 8 8 7 7
8 7 6 5 4 3 3 2 2 2 2 1 1 1 1 2 2 2 4 4 5 5 6 7 8 8 8 7 8 8 8 9 9 10 10 10 9 9 9 9 9 9 8
9 8 7 6 5 4 3 2 1 1 1 1 1 1 1 1 1 1 2 3 4 4 4 5 6 7 8 8 8 8 8 8 9 10 11 11 10 10 10 10 10 10 10
11 9 9 7 6 5 3 2 2 2 2 1 1 1 1 1 1 1 1 2 3 4 4 4 5 6 7 7 8 8 8 8 8 9 10 11 12 11 11 11 11 11 12
12 10 9 8 7 6 4 3 3 3 3 2 2 2 2 1 2 2 1 1 2 3 4 4 4 5 6 7 7 7 8 8 8 8 9 11 12 12 12 12 12 12 13
13 11 10 9 8 7 6 5 4 4 3 3 2 2 2 1 1 1 1 0 0 1 2 3 4 4 5 6 6 7 7 8 8 8 9 9 10 10 11 11 11 12 12
14 12 11 10 9 8 7 6 5 5 3 2 2 1 1 1 0 1 0 1 1 1 2 3 4 4 5 6 6 7 7 8 8 8 8 9 10 10 11 11 11 11 12
14 13 12 11 11 9 8 7 6 5 4 3 2 2 2 1 2 2 2 2 2 2 2 2 3 4 5 5 6 6 7 7 8 8 8 9 10 11 11 12 12 12 13
13 14 13 12 11 11 10 9 8 7 6 5 4 4 4 3 3 3 3 4 4 4 4 4 4 5 6 6 6 6 6 7 8 8 9 10 11 12 13 13 13 14 14
14 15 15 13 13 12 11 10 10 9 8 7 6 6 6 6 5 5 6 6 6 6 6 6 6 7 7 8 8 8 8 9 9 10 11 11 12 13 14 15 15 16 16
14 15 15 14 14 13 12 11 11 10 10 9 9 8 8 8 8 8 8 8 9 9 9 9 9 9 9 10 10 11 11 11 12 13 13 14 14 15 15 15 16 16 17
14 15 15 15 15 14 13 13 13 12 12 11 11 11 12 12 12 12 12 12 11 12 12 12 12 12 12 12 13 13 14 14 14 15 15 16 17 17 18 18 18 18 19
16 16 15 15 15 15 15 14 15 14 14 14 14 14 14 14 14 14 14 14 14 14 14 15 15 15 15 15 15 16 16 16 16 17 18 19 19 20 20 21 22 22 22
16 16 16 16 16 17 17 17 17 16 16 16 16 16 16 16 16 16 16 17 17 17 17 18 18 18 18 19 19 19 19 20 20 21 21 21 22 23 23 24 25 25 25
16 17 17 17 17 18 18 18 18 18 18 18 18 18 19 19 20 19 19 20 20 20 21 21 22 22 22 22 23 23 24 24 24 24 25 25 25 26 26 27 28 28 28
17 17 17 17 18 18 19 19 19 20 20 20 20 21 22 22 22 23 22 22 23 23 24 25 25 26 26 26 26 27 27 28 28 29 29 29 29 30 30 31 32 32 33
17 18 18 19 20 20 20 20 21 21 22 23 23 23 24 24 24 24 25 25 25 26 26 27 28 28 29 29 30 31 31 31 32 32 33 33 34 34 35 35 36 36 37
18 19 20 21 22 22 21 22 22 23 24 24 24 25 25 26 26 26 27 27 27 28 28 29 30 30 31 32 33 34 35 35 35 36 37 37 38 39 39 39 40 40 40
20 21 21 21 22 23 22 22 23 23 24 25 26 26 27 27 28 28 28 28 28 28 29 30 32 33 34 34 35 35 37 38 39 40 41 41 42 43 43 44 44 44 45
20 22 22 22 23 23 24 24 24 25 25 25 26 27 28 28 28 28 28 29 30 31 31 32 33 34 35 36 36 37 38 40 41 42 43 44 46 46 47 48 48 48 49
19 21 22 22 23 24 24 25 26 26 26 27 27 28 28 29 28 28 29 31 32 33 34 34 35 36 37 38 39 40 40 41 43 44 45 46 48 49 50 51 52 51 52
19 20 22 23 24 24 25 25 24 25 27 28 28 28 29 30 30 31 32 34 34 35 36 37 38 39 40 42 42 43 44 46 47 48 49 50 51 53 54 55 56 56 56
20 20 21 23 24 23 23 24 25 26 27 28 29 29 30 31 32 33 34 35 35 37 38 39 40 42 43 44 46 47 48 50 51 52 53 55 56 57 58 60 60 60 61
18 19 19 22 23 24 25 26 27 28 29 30 30 31 31 33 34 35 36 38 39 40 40 42 43 45 47 48 49 51 52 54 55 56 58 59 60 60 61 63 64 64 65
18 19 20 21 23 24 24 26 27 28 29 30 31 32 33 34 35 37 38 39 41 42 44 45 47 48 50 52 53 55 56 57 59 60 61 62 63 64 64 65 66 67 68

GEFSMA_500_meanwind_132.txt.gz
Wind_Speed
7 6 5 4 3 3 2 2 2 2 1 1 1 1 1 1 2 3 3 4 4 4 6 6 6 6 7 7 7 8 8 8 8 7 7 7 7 7 7 7 6 6 5
8 7 6 5 3 3 3 2 2 2 2 2 1 1 1 1 2 2 3 4 4 4 5 6 6 6 7 7 7 8 9 9 9 9 8 8 8 8 7 7 7 7 6
9 8 6 6 4 4 3 3 2 2 2 2 2 1 1 1 1 2 2 4 4 5 5 6 6 6 6 6 6 7 9 9 9 9 9 10 10 9 9 9 9 8 8
10 9 8 6 5 4 4 4 3 3 2 2 2 2 2 1 1 2 2 2 3 4 4 5 5 6 6 6 7 7 7 8 8 9 10 10 10 10 10 10 10 10 9
11 10 9 7 6 5 5 4 4 3 3 2 2 2 2 1 1 1 1 1 1 3 3 4 4 4 5 6 7 7 8 8 8 8 9 10 11 11 11 11 11 11 11
12 11 10 9 7 7 6 5 5 4 4 3 3 2 2 2 1 1 0 0 0 1 2 3 3 4 4 5 6 7 7 8 8 9 9 9 10 11 11 11 11 11 12
13 12 11 10 9 8 8 7 6 5 4 4 3 3 2 2 1 1 1 0 0 0 1 1 2 3 4 5 6 6 7 8 8 8 9 9 9 10 11 11 11 11 11
13 12 12 11 9 9 9 8 7 6 5 4 4 3 3 2 1 1 1 1 1 1 1 2 3 4 5 5 6 7 7 8 9 9 10 10 10 11 11 11 12 12 12
13 13 12 11 10 10 10 9 7 7 6 5 4 4 3 3 3 2 2 2 2 2 3 4 4 5 5 6 7 7 8 8 9 9 10 11 11 11 11 12 13 13 13
13 13 12 12 12 11 11 10 9 8 8 7 6 6 5 5 4 4 4 4 4 5 5 6 6 6 6 7 7 8 8 9 9 10 10 11 11 12 13 14 14 15 15
13 13 12 12 13 12 12 11 11 10 9 9 8 7 7 7 7 6 6 6 7 7 7 7 8 8 9 9 9 10 10 10 10 11 11 12 13 13 14 15 16 16 17
14 14 13 13 13 13 13 13 12 12 11 10 10 9 9 9 9 9 9 9 10 9 9 10 10 10 11 11 11 11 12 12 12 13 13 14 14 15 16 17 17 18 19
14 15 14 14 14 14 14 14 14 13 12 12 12 12 12 12 12 12 12 12 12 12 12 12 12 13 13 13 14 14 14 15 15 16 16 17 17 18 18 19 20 20 21
14 15 15 15 15 15 15 15 15 15 14 14 14 14 14 14 15 15 15 15 15 15 15 15 15 16 16 16 17 17 17 18 18 19 19 20 21 21 21 22 22 23 24
15 15 15 16 16 16 16 17 16 16 16 16 16 16 17 17 17 17 17 17 18 18 18 18 18 18 19 19 20 21 21 22 22 23 23 23 24 24 24 25 25 26 27
16 15 15 16 17 18 18 18 18 18 18 19 19 19 19 19 20 20 20 21 21 21 22 22 22 22 23 23 24 24 25 26 26 27 27 27 28 28 29 29 29 30 30
17 17 17 17 18 19 19 19 19 20 20 21 21 21 21 22 22 23 23 23 23 24 25 25 25 25 26 26 27 27 28 29 30 30 31 31 32 32 33 33 33 34 34
18 18 18 18 18 19 20 20 20 21 21 21 22 22 22 23 23 24 24 25 26 26 26 27 27 27 28 29 30 31 31 32 32 32 33 34 34 35 35 36 37 37 38
18 19 19 20 20 20 21 21 21 22 23 23 24 24 24 24 25 26 26 27 27 28 29 29 29 30 31 32 33 33 33 34 35 35 36 37 37 38 38 39 40 41 42
19 20 20 20 21 22 22 22 23 23 24 25 25 26 26 26 27 27 28 28 29 30 30 31 32 32 33 34 35 35 35 36 36 37 38 39 40 41 41 42 43 44 44
20 21 21 22 23 23 24 25 25 24 25 26 27 27 27 28 28 28 29 29 30 31 32 33 34 35 36 36 37 37 38 38 38 39 40 41 42 43 44 45 45 46 47
20 21 23 24 23 24 24 25 26 26 27 28 29 29 28 29 30 30 31 32 32 32 33 35 35 36 37 38 39 39 40 42 43 43 44 45 46 47 48 49 49 51 52
20 21 23 24 26 26 26 27 27 27 28 29 29 29 29 30 31 32 33 34 34 34 34 35 37 38 39 39 41 42 44 45 46 47 47 48 49 50 52 53 54 55 56
20 21 22 24 25 25 25 26 27 28 28 28 28 29 31 32 32 33 34 35 35 36 36 37 38 39 40 42 43 45 46 48 49 49 50 51 53 54 55 56 57 58 59
19 19 20 21 23 24 25 26 27 27 27 28 29 30 31 32 33 34 35 36 37 38 38 38 39 41 43 43 44 46 47 48 50 51 52 53 55 56 57 58 60 60 61
20 20 20 21 22 23 25 26 27 27 28 29 30 31 32 33 34 34 35 36 37 38 39 40 42 43 44 45 46 48 49 51 52 54 55 56 57 58 58 59 61 63 63

GEFSMA_500_meanwind_138.txt.gz
Wind_Speed
7 6 5 5 4 3 3 2 2 2 1 1 2 2 2 2 1 1 2 2 2 3 3 3 3 3 4 5 5 5 6 6 5 5 5 5 5 4 4 4 4 4 4
7 6 5 5 4 3 3 3 2 2 1 2 2 2 2 2 1 0 1 2 2 2 3 4 3 3 3 4 5 6 6 6 6 7 7 6 6 6 6 5 5 6 5
8 7 6 5 4 3 3 3 2 2 1 2 2 2 1 1 1 0 0 0 1 2 3 3 4 4 4 4 4 5 6 6 7 7 7 7 7 7 7 7 7 7 7
9 8 7 6 4 4 3 3 2 1 1 1 1 1 1 1 1 1 1 0 0 1 2 3 4 3 4 4 4 4 5 6 7 7 8 8 9 9 8 8 8 8 8
10 9 8 7 5 4 4 4 3 2 1 1 0 0 1 1 1 1 1 0 1 0 1 2 3 3 3 4 4 4 5 6 6 6 7 8 9 9 10 10 10 9 9
11 10 9 8 7 6 5 4 3 3 2 1 0 0 0 1 1 1 1 1 1 1 1 0 1 2 3 4 4 5 5 6 6 6 7 7 7 8 9 9 10 10 10
11 11 10 9 8 7 6 5 5 4 3 2 1 1 1 1 0 0 1 1 1 1 1 1 1 2 3 3 4 5 6 6 7 7 7 7 8 8 9 9 10 10 10
12 12 10 9 9 8 7 7 6 5 5 4 3 3 2 2 1 1 1 1 1 2 2 3 3 3 4 4 5 5 6 6 7 8 8 8 9 9 10 10 11 11 11
13 13 12 10 9 9 8 8 8 7 6 6 5 4 4 3 3 2 2 2 2 2 3 3 4 4 5 5 6 6 6 7 7 7 8 9 9 10 10 11 12 12 13
13 12 12 11 10 10 9 9 9 9 8 7 6 6 6 5 4 4 4 4 4 4 5 5 5 6 6 7 7 8 8 8 8 9 9 10 10 11 12 12 13 13 14
13 13 13 12 11 11 10 10 10 10 10 9 8 8 8 7 7 6 6 6 6 7 7 7 8 8 8 9 9 10 10 10 11 11 11 12 12 12 13 13 14 15 16
13 14 14 14 13 12 12 12 11 12 11 11 11 10 10 10 9 9 9 9 9 9 10 10 11 11 11 11 11 12 12 12 13 13 14 14 14 14 14 15 16 17 17
13 13 14 14 14 14 13 13 13 13 13 13 13 13 12 12 12 12 12 12 12 12 13 13 13 13 13 14 14 14 14 15 15 16 16 16 17 17 17 18 18 19 20
12 13 14 14 14 14 15 14 14 14 15 15 15 14 14 14 14 15 15 15 16 16 16 16 16 16 16 17 17 17 18 18 19 19 20 20 20 21 21 21 22 22 22
13 13 14 15 15 15 16 16 15 15 16 16 16 16 16 16 17 18 18 18 18 19 19 20 19 19 20 20 21 21 21 21 22 22 23 23 24 24 25 25 26 26 26
13 14 14 14 15 15 16 17 17 17 16 17 18 18 19 19 20 21 21 21 21 21 22 23 22 22 23 22 23 23 24 25 25 25 26 26 27 27 28 29 29 30 30
13 14 15 16 17 17 17 17 18 18 18 18 19 19 20 21 22 22 22 23 23 24 24 25 24 24 25 26 26 26 26 26 27 27 28 29 29 30 31 32 32 33 33
14 15 15 16 17 18 18 18 18 19 19 20 20 21 22 22 23 23 24 25 25 25 26 27 27 27 27 28 29 29 29 29 29 30 31 31 32 32 33 34 34 35 35
14 15 16 17 18 19 19 19 20 21 22 22 23 24 24 24 24 25 25 26 27 28 28 30 30 30 30 31 31 32 33 33 33 33 33 34 34 35 35 36 36 37 38
14 15 16 17 19 19 20 20 21 22 22 23 24 25 26 27 26 27 27 28 29 30 30 31 31 31 32 32 33 34 35 35 36 35 35 36 36 37 38 39 39 41 42
15 16 17 18 20 21 22 22 23 23 23 24 25 26 27 29 29 29 29 30 31 32 33 33 33 33 34 35 35 35 36 37 37 37 38 39 39 40 41 42 43 43 44
15 16 17 18 19 20 21 22 23 24 24 25 26 27 29 30 31 31 31 32 33 33 34 34 35 35 35 36 37 37 38 39 39 40 40 42 43 44 44 45 45 45 46
17 17 17 18 18 19 20 22 23 25 26 26 27 29 30 30 31 32 33 34 34 34 34 34 35 35 37 38 39 39 40 41 41 42 42 43 45 46 47 48 49 49 50
18 18 19 19 20 21 22 23 24 26 27 28 29 30 30 30 31 32 33 34 34 34 34 35 36 37 38 39 39 40 41 41 42 43 43 45 46 48 49 51 52 52 53
19 20 20 21 22 23 24 25 27 27 28 28 29 30 30 30 30 32 33 34 34 34 34 35 36 37 39 40 41 41 41 43 44 45 46 47 48 49 50 52 53 54 55
21 22 23 23 23 24 25 26 27 27 28 28 28 28 30 30 31 33 34 35 35 35 35 36 37 38 39 39 41 42 43 45 46 47 47 49 50 51 51 52 53 55 56

GEFSMA_500_meanwind_144.txt.gz
Wind_Speed
7 7 6 5 4 3 2 2 2 1 1 2 1 1 1 2 2 1 2 2 3 3 4 3 3 3 4 4 4 5 6 6 5 5 5 5 5 5 5 5 5 5 5
8 7 7 6 4 3 3 2 2 1 2 2 2 2 1 2 1 1 2 2 3 3 4 4 4 3 4 3 4 5 6 6 6 6 6 6 6 7 6 6 7 7 6
8 8 7 6 5 4 3 3 3 2 2 3 3 2 1 2 1 1 1 2 2 2 3 4 4 4 4 4 4 5 6 7 7 7 7 7 7 8 8 8 8 8 8
9 9 8 7 6 5 4 4 3 3 3 3 3 2 2 1 1 1 1 1 1 2 3 4 4 5 5 4 5 5 6 6 6 7 8 9 9 9 9 9 9 10 10
10 10 9 8 7 6 5 5 4 3 3 3 3 3 2 1 1 0 0 0 1 2 2 2 3 4 4 4 5 5 6 6 7 7 8 9 10 11 11 10 11 11 11
11 10 9 8 8 7 6 6 5 4 4 4 3 3 2 1 0 0 0 0 1 1 1 2 2 3 4 4 4 5 6 7 7 8 8 9 9 10 11 11 11 11 11
12 11 11 10 8 8 7 6 6 5 5 4 4 4 3 2 2 2 1 1 1 1 1 2 2 3 3 4 4 5 6 7 8 8 8 9 10 10 11 12 12 12 12
12 12 12 11 9 8 7 7 7 7 6 6 5 4 4 4 4 3 2 2 2 2 2 2 3 4 5 5 5 6 6 7 8 9 10 10 11 11 12 12 13 13 13
12 12 12 12 11 9 9 8 8 8 7 7 6 6 6 6 5 5 4 3 3 3 3 4 4 5 5 6 7 7 8 8 9 9 10 11 11 12 12 13 13 14 14
12 12 12 12 11 11 10 9 9 9 9 8 8 8 8 7 7 6 6 5 5 5 5 5 5 6 6 7 8 8 9 10 10 11 11 12 12 12 13 14 14 15 15
12 13 13 13 12 11 11 11 10 10 10 10 9 9 9 9 9 9 8 8 7 7 7 8 8 8 8 9 9 10 10 11 12 12 12 13 13 14 14 15 16 16 16
12 14 14 14 13 13 12 12 11 11 11 11 11 10 11 11 11 11 11 10 10 9 10 10 10 10 11 11 12 12 12 13 13 14 14 15 15 16 16 17 17 18 18
13 14 14 14 14 14 13 13 13 13 13 13 13 13 13 13 13 13 13 13 13 12 12 12 13 13 14 14 15 15 15 15 15 16 17 17 18 19 19 20 20 21 21
12 13 14 14 14 14 14 14 14 14 14 14 14 14 14 14 14 15 15 15 15 15 15 15 15 16 16 17 18 17 18 18 19 20 21 21 21 22 22 23 23 24 25
12 13 14 14 15 14 14 14 15 15 15 15 15 16 16 16 16 17 17 17 17 18 18 18 18 19 19 20 20 20 21 22 22 23 24 24 24 25 25 26 27 27 28
12 13 14 15 15 15 15 15 15 16 16 16 17 18 18 17 18 19 19 20 20 20 20 21 21 21 21 21 22 23 24 25 25 25 26 26 27 27 28 29 30 30 31
12 13 14 14 14 15 16 17 18 17 17 17 18 19 19 19 19 20 21 21 22 22 22 23 23 23 23 24 25 26 27 27 28 28 29 29 30 30 31 32 32 33 34
11 13 14 14 15 16 17 18 18 19 19 19 20 20 20 21 21 22 22 23 23 24 24 24 25 26 26 27 27 28 28 29 30 30 31 31 32 33 34 35 35 35 36
11 12 14 15 16 16 17 18 19 20 20 21 21 21 22 23 23 24 25 26 26 26 27 27 27 28 28 28 29 30 31 31 32 32 33 34 34 35 36 36 37 38 39
12 13 13 14 16 17 17 18 19 20 20 21 21 22 23 24 24 26 26 27 27 28 28 29 30 30 31 31 31 33 33 34 35 35 35 35 36 37 38 40 40 41 41
13 13 13 14 16 17 18 18 18 19 20 21 22 23 24 24 24 25 26 27 28 28 28 29 30 31 32 33 33 34 35 35 35 36 37 38 38 39 40 41 42 43 44
13 14 14 15 16 16 17 18 19 19 21 21 23 23 24 25 26 27 28 29 30 30 30 31 31 32 32 34 34 34 35 36 36 37 39 40 40 41 42 43 43 44 46
14 15 16 16 17 17 18 19 20 20 21 22 23 25 25 26 28 29 30 30 31 31 32 32 32 32 33 34 35 35 36 36 37 38 40 41 43 43 44 45 46 46 48
14 15 17 17 18 18 19 20 21 21 22 22 23 24 26 27 27 28 30 30 31 31 32 33 33 33 35 36 36 37 37 38 39 40 41 42 44 45 46 47 48 48 50
16 16 18 19 20 20 21 21 21 21 22 23 24 26 27 27 27 29 30 30 30 31 32 33 33 33 34 35 36 36 37 39 40 41 42 44 45 46 48 49 49 50 51
18 18 19 20 20 21 21 22 22 23 23 24 25 26 26 27 28 29 30 30 31 31 31 32 32 33 34 36 36 37 38 40 41 43 44 45 46 48 49 50 51 52 53

GEFSMA_500_meanwind_150.txt.gz
Wind_Speed
5 4 3 2 2 2 1 1 0 1 1 1 1 1 1 1 1 1 1 0 1 1 1 1 2 2 3 3 3 4 4 4 4 4 4 4 4 4 5 5 5 6 5
5 5 4 4 3 2 2 1 1 0 1 0 1 1 1 1 1 0 0 0 0 1 1 2 2 3 3 4 4 5 5 5 6 6 5 6 6 6 6 6 7 7 7
6 6 5 5 4 3 2 2 2 1 0 0 0 0 1 1 1 0 0 0 1 1 2 2 2 3 4 4 5 6 6 6 7 7 7 7 8 8 8 8 8 8 8
7 7 6 6 6 4 3 2 2 2 1 1 1 0 1 1 1 1 0 1 1 1 2 2 3 3 4 5 5 5 6 6 7 8 8 8 9 9 10 10 10 10 10
8 7 7 7 7 5 5 3 2 2 2 1 1 1 0 0 0 1 1 1 1 2 2 3 3 4 4 5 5 5 6 7 7 8 8 9 9 9 10 11 11 11 12
8 8 8 8 7 7 6 4 3 3 3 2 2 2 1 1 1 1 1 1 2 2 2 2 3 4 4 5 5 5 6 7 8 8 9 9 10 10 10 11 12 12 13
9 9 9 9 8 8 7 6 5 5 5 4 3 3 3 2 2 2 2 2 2 2 3 3 4 4 5 5 6 6 7 8 8 9 10 10 11 11 12 12 13 13 14
9 10 11 10 9 8 8 7 6 6 6 5 5 5 4 4 4 4 3 3 3 3 4 4 5 5 5 6 7 8 8 9 9 10 10 11 12 12 13 13 13 14 15
10 10 10 11 11 10 9 8 7 7 7 7 7 7 7 6 6 6 5 5 5 5 5 5 6 6 7 8 9 9 10 10 11 11 12 12 13 13 13 14 15 15 15
11 11 11 11 11 11 10 10 9 9 8 9 9 9 8 8 8 7 7 8 7 7 7 7 8 8 9 10 10 10 10 11 12 13 13 13 14 15 15 16 16 17 17
11 11 11 11 11 11 11 11 11 10 10 10 10 10 10 10 10 10 10 10 10 10 10 10 10 10 10 11 12 12 12 13 13 14 14 15 15 16 16 17 18 19 19
11 11 11 11 11 12 12 12 13 12 12 12 12 12 12 13 13 12 12 13 13 13 13 13 13 13 13 13 14 14 15 15 16 16 17 18 18 19 19 20 20 20 21
11 12 12 12 12 13 13 13 14 14 13 14 13 14 14 15 15 15 15 15 15 15 15 16 16 16 16 17 17 18 18 18 19 19 20 21 21 22 22 23 24 24 24
12 12 13 13 13 14 14 15 15 15 15 16 16 15 16 16 17 17 17 17 18 18 18 19 19 20 20 20 20 20 21 21 22 22 22 23 24 25 25 25 26 27 27
12 13 13 14 14 14 15 15 16 16 16 17 17 17 17 18 19 19 19 19 20 21 21 22 22 22 23 24 23 23 23 23 24 25 25 26 26 27 28 29 29 30 31
12 13 14 14 15 15 15 17 17 17 18 18 19 19 19 19 20 20 21 22 22 22 23 24 24 25 25 25 26 26 26 27 28 28 28 29 29 30 30 31 31 32 33
12 12 14 14 15 15 16 17 18 19 19 20 20 20 21 22 22 22 23 23 24 24 25 25 26 27 27 28 29 29 29 30 31 31 31 31 32 32 33 34 35 36 36
12 13 14 15 16 16 17 17 19 20 20 20 21 21 22 23 23 24 24 24 25 26 27 27 28 29 29 30 31 32 32 32 33 33 34 34 35 36 36 37 38 38 39
12 13 14 16 17 17 18 19 20 20 20 21 22 23 23 23 24 25 25 25 26 27 28 29 30 31 31 32 32 33 34 34 35 36 37 38 38 39 40 40 40 40 41
12 13 15 15 17 18 18 19 19 19 21 21 22 23 25 25 25 26 26 27 28 29 30 31 32 32 32 33 33 34 35 36 37 38 39 40 40 41 41 40 41 42 43
13 14 15 16 17 18 19 20 20 21 21 22 23 23 24 25 26 27 27 28 29 29 31 32 32 33 33 34 35 36 37 38 39 39 40 40 41 41 41 42 42 42 42
15 15 16 17 18 19 20 20 21 22 22 23 23 24 25 26 26 27 28 29 29 30 31 32 33 33 34 35 36 37 38 39 39 38 39 39 39 40 40 41 42 43 44
16 16 17 18 19 19 20 22 23 23 23 24 24 25 26 27 27 28 28 29 30 30 32 33 34 34 34 35 37 38 38 38 38 39 39 39 40 41 42 43 44 45 45
17 18 19 19 20 21 22 22 23 24 24 25 25 26 27 27 28 29 29 30 31 32 33 33 34 35 35 36 36 38 39 39 39 40 40 41 42 42 43 44 45 46 47
18 19 20 21 21 22 22 23 24 25 26 26 27 28 28 29 29 30 30 31 32 33 33 33 34 35 36 36 37 38 38 39 40 41 41 42 43 44 45 45 46 47 47
20 20 21 22 23 24 24 25 26 27 27 28 29 30 30 30 31 31 31 32 32 33 33 34 35 36 36 37 38 39 39 40 41 42 42 43 44 45 46 46 47 47 48

GEFSMA_500_meanwind_156.txt.gz
Wind_Speed
6 5 4 4 4 4 3 3 3 3 3 3 3 3 3 2 2 3 2 3 3 2 1 1 2 2 2 2 2 3 3 4 4 3 4 4 4 3 3 3 4 4 5
6 6 5 5 4 4 4 3 2 3 3 3 3 3 3 2 2 2 2 2 2 1 1 1 1 2 2 3 3 4 4 4 5 5 5 6 6 5 5 5 5 6 6
6 6 6 5 5 4 4 3 3 3 3 3 3 3 2 2 2 2 1 1 1 1 1 1 2 2 2 3 3 4 5 6 6 7 7 7 7 7 7 7 7 7 7
7 6 6 6 5 5 5 4 4 3 2 2 2 2 2 1 1 1 1 1 1 1 1 2 2 2 2 3 4 5 5 6 6 7 7 7 7 7 8 8 8 8 9
8 7 6 6 6 5 5 5 4 3 2 2 1 1 1 1 1 1 0 0 1 2 2 2 2 3 3 4 5 5 6 7 7 8 8 8 8 8 8 8 9 9 10
8 7 7 6 7 6 7 6 4 4 3 2 2 2 1 1 0 0 1 1 2 2 3 3 3 4 4 4 5 5 6 7 8 8 9 9 9 9 10 10 11 11 12
8 7 7 7 7 7 7 7 6 5 4 4 3 3 3 3 2 2 2 2 3 3 4 4 4 5 5 6 6 7 7 8 9 10 10 10 11 12 12 12 12 13 13
8 8 8 8 8 8 8 7 7 6 5 5 5 5 4 4 4 4 4 4 4 5 5 5 5 6 7 8 8 8 9 10 10 11 11 11 12 12 13 13 14 14 15
9 9 9 8 8 8 8 8 8 8 7 7 6 6 6 6 6 6 6 6 6 6 6 7 7 8 8 9 9 10 10 11 11 12 13 13 14 14 14 15 15 16 16
10 10 10 10 9 9 9 9 9 9 9 8 8 8 8 8 8 8 8 8 8 8 9 9 10 10 10 11 11 12 12 12 13 14 14 15 15 15 16 16 17 17 18
10 11 10 10 10 10 10 10 10 10 10 9 9 9 10 10 10 10 10 10 11 11 11 11 12 13 13 13 14 14 14 15 15 16 16 16 17 17 17 18 18 19 20
9 10 11 11 10 10 10 11 11 11 11 11 11 11 12 12 13 13 13 13 14 14 14 15 15 15 16 16 17 17 17 17 18 19 19 19 20 20 20 20 21 22 23
9 10 11 11 11 11 11 12 12 12 12 13 13 13 14 14 14 15 15 16 16 16 17 17 17 17 18 19 20 20 20 21 21 21 22 22 22 22 23 23 24 24 25
9 9 11 12 12 12 12 13 13 14 14 14 15 16 16 16 17 17 17 18 18 19 19 20 20 20 21 22 22 23 23 23 23 24 24 25 25 25 25 26 26 27 28
10 11 12 13 13 12 13 14 14 15 16 16 17 17 18 19 20 20 20 20 21 22 22 23 23 23 24 24 25 25 26 26 26 27 27 27 27 28 28 28 29 30 31
10 11 12 13 13 13 13 14 14 15 17 17 18 19 19 20 21 22 22 23 24 24 25 25 26 26 26 26 27 27 28 28 28 29 29 29 29 30 31 31 32 33 33
10 11 13 13 14 15 15 16 16 17 17 18 19 20 20 21 21 22 22 24 24 26 26 26 27 27 27 28 29 29 29 30 30 31 31 32 32 32 33 34 34 35 35
11 12 13 14 14 15 16 16 17 18 18 19 20 20 21 22 22 22 24 24 25 25 26 26 27 28 29 30 31 31 32 32 32 32 33 34 34 35 36 37 37 37 38
12 12 13 14 15 16 17 17 17 18 19 20 20 21 21 22 23 23 25 25 25 26 27 28 28 29 31 31 32 33 34 34 35 35 35 36 36 37 37 38 39 40 40
12 13 15 15 16 17 18 18 18 19 20 20 21 22 22 23 24 24 25 26 27 28 28 29 30 30 31 31 32 33 33 35 36 36 36 37 38 38 38 39 40 40 41
14 15 16 17 18 18 18 19 19 19 20 21 22 22 23 24 24 25 26 27 27 28 28 29 30 31 31 32 32 33 34 35 36 36 36 37 37 38 39 39 40 41 41
15 16 17 18 18 18 18 19 20 21 21 22 23 24 25 25 26 27 28 28 28 28 28 29 30 31 32 32 33 34 35 35 35 36 37 38 38 38 39 40 40 41 42
16 17 17 18 19 19 19 20 21 22 23 23 24 25 26 27 27 28 28 28 29 29 30 31 31 32 32 33 34 35 35 35 36 37 38 39 39 40 40 41 42 43 43
17 18 18 19 20 21 21 22 23 23 24 25 25 26 26 27 28 28 29 30 30 30 30 31 32 33 33 34 34 35 35 36 36 37 37 38 39 39 40 40 41 42 43
18 19 19 20 21 22 23 24 24 24 25 26 27 27 27 28 29 29 30 30 30 31 31 32 34 34 34 35 35 36 36 37 37 37 37 38 39 40 40 41 42 42 43
20 20 21 22 22 23 23 25 26 27 27 28 28 28 29 30 30 30 31 31 31 31 32 32 33 34 34 34 34 35 36 37 37 37 37 38 39 40 41 42 42 43 43

GEFSMA_500_meanwind_162.txt.gz
Wind_Speed
3 3 2 2 2 2 2 2 2 3 3 3 3 3 3 3 3 2 2 2 2 2 1 1 1 0 1 1 1 2 2 2 2 2 2 3 3 4 4 4 4 4 5
3 3 3 3 3 3 2 2 3 3 2 3 3 3 2 2 3 2 2 1 1 1 1 1 1 1 1 2 2 3 3 4 4 4 4 4 4 5 5 5 5 5 5
4 4 4 3 3 3 3 2 2 2 2 2 2 2 2 2 3 2 2 1 1 0 0 1 1 2 2 2 3 3 4 4 4 5 5 5 5 5 6 6 6 6 7
5 5 4 4 4 4 3 2 2 2 2 2 1 1 1 1 1 1 1 1 0 0 1 1 1 2 2 3 3 4 4 4 5 5 6 6 6 6 6 7 7 8 8
5 5 4 5 4 4 4 3 3 2 2 2 1 0 0 0 1 1 0 0 1 1 1 1 2 2 2 3 4 4 5 5 6 6 6 6 6 6 7 8 9 10 10
6 6 5 5 5 5 4 4 3 3 2 2 2 2 2 2 2 1 1 1 2 2 2 3 3 3 4 4 5 5 5 6 6 7 7 8 8 9 9 9 10 10 11
7 7 6 5 5 5 5 5 4 4 4 4 3 3 3 3 3 3 3 3 3 3 3 4 4 5 6 6 6 6 7 7 7 8 8 9 9 10 10 11 11 12 12
7 7 6 6 6 6 6 6 5 5 5 5 5 5 5 5 5 5 5 6 5 5 5 5 6 6 6 7 7 8 8 9 10 10 10 11 11 12 12 12 13 13 14
7 7 8 7 7 7 7 7 6 6 7 7 7 7 6 6 7 6 7 7 8 8 7 7 7 8 8 8 9 10 10 11 11 12 12 12 13 13 14 15 15 15 16
7 8 9 9 9 8 8 8 8 8 8 8 9 9 8 8 8 8 8 8 9 10 10 9 10 10 10 11 11 12 12 13 13 14 14 15 15 16 16 16 17 17 17
7 8 8 9 10 10 9 9 9 10 10 10 10 10 10 10 10 10 11 11 11 12 12 12 13 13 13 14 14 15 15 15 16 16 17 17 17 18 18 19 19 19 19
7 7 7 9 10 10 10 10 11 10 11 12 12 12 12 13 13 13 13 13 13 14 14 15 16 16 16 17 17 17 17 18 19 19 19 19 19 20 20 20 21 21 22
8 8 9 10 10 10 11 12 12 12 12 12 12 13 13 14 14 15 15 16 16 16 17 18 19 19 20 20 20 20 20 21 22 22 22 22 22 22 23 23 23 24 25
9 9 10 10 11 11 11 12 11 12 12 13 14 14 15 15 16 17 17 18 18 19 20 21 21 22 22 22 23 23 23 23 24 25 25 26 26 26 26 26 27 27 28
8 9 10 11 11 12 12 12 12 13 14 14 14 15 16 17 18 18 19 19 20 21 22 23 23 24 24 24 25 25 25 25 26 27 27 28 28 28 28 29 29 29 30
8 8 10 11 12 12 12 14 15 15 15 15 16 16 17 18 18 19 20 20 21 22 22 23 25 25 25 26 25 25 26 27 28 28 29 29 30 31 31 31 31 31 31
9 9 10 11 12 13 14 16 16 15 16 17 17 17 18 18 19 19 19 20 21 22 23 25 26 26 26 26 26 28 29 29 29 30 31 31 31 32 33 34 34 33 33
11 11 11 12 13 13 14 15 15 15 17 18 18 19 19 19 20 20 20 21 22 23 24 25 27 27 27 28 28 29 30 30 31 31 32 33 34 34 34 35 34 34 35
13 13 13 13 14 15 16 16 16 16 18 18 19 19 20 20 21 21 22 23 24 25 26 26 27 28 28 28 29 30 30 30 31 31 32 32 33 34 35 35 35 35 36
15 15 14 14 15 16 17 18 18 18 19 19 20 20 20 21 22 22 23 24 26 27 27 28 28 29 29 30 30 30 30 31 31 31 32 33 33 33 33 35 35 36 37
16 16 16 17 17 17 18 19 20 20 20 21 21 21 22 23 23 24 25 26 27 28 28 29 30 30 30 31 31 32 32 32 32 33 34 34 34 35 35 36 37 37 38
15 16 16 17 18 18 19 20 20 21 21 21 22 23 24 25 25 26 27 28 29 30 30 30 30 31 31 32 32 32 33 33 34 34 35 35 36 36 36 35 36 37 38
15 16 17 18 19 19 20 20 20 21 22 23 24 25 25 26 26 27 28 29 29 30 30 30 31 31 32 32 33 34 35 36 36 36 37 37 37 37 36 37 38 39 39
17 17 19 19 20 21 21 21 22 23 23 24 24 25 26 27 28 28 28 29 30 30 31 32 33 33 33 33 34 35 36 36 37 37 38 38 38 38 38 39 39 39 40
20 20 21 21 21 22 22 23 24 24 25 25 26 27 28 28 29 30 30 31 32 32 33 33 34 34 34 35 35 35 36 37 37 37 37 37 38 38 38 38 39 39 40
22 22 23 23 23 24 25 25 25 26 26 27 27 28 29 30 31 32 32 33 33 34 34 34 34 35 35 36 36 37 37 37 37 37 37 37 38 38 38 38 38 39 39

GEFSMA_500_meanwind_168.txt.gz
Wind_Speed
3 2 2 2 2 1 1 2 2 2 3 3 2 2 2 1 2 2 2 2 2 2 2 2 2 2 2 2 2 2 3 3 3 3 3 3 4 5 5 5 5 6 6
3 3 3 3 2 1 1 2 2 2 2 2 2 1 1 1 1 1 1 1 1 1 1 1 1 2 2 2 2 3 3 4 4 4 5 5 6 6 7 7 7 7 7
4 4 3 3 2 2 1 1 2 2 2 1 1 1 0 1 1 0 1 1 1 1 1 2 2 2 3 3 3 3 4 5 5 5 6 6 6 7 7 7 8 8 8
5 4 3 3 3 3 2 2 2 1 1 1 1 1 1 1 1 1 1 1 1 1 1 2 2 3 3 4 4 4 4 5 6 6 6 6 6 7 7 8 9 9 10
5 4 4 4 4 3 3 3 3 2 2 2 2 2 2 2 2 2 2 2 2 2 2 2 2 3 3 4 4 4 5 5 6 7 7 8 8 8 9 9 9 10 11
5 5 5 5 4 4 4 4 4 3 3 3 3 3 3 3 3 3 3 3 3 3 4 4 4 4 4 4 5 6 6 7 7 8 8 8 9 10 10 10 10 11 12
5 5 5 5 5 5 4 4 4 4 4 4 4 4 4 4 4 5 5 5 5 5 5 5 5 6 6 7 7 7 8 8 8 9 9 10 11 11 11 12 12 12 13
6 6 6 6 6 6 5 5 5 5 5 5 5 5 5 6 6 7 7 7 7 7 7 7 7 7 8 8 9 9 9 10 10 10 11 11 12 12 13 14 14 15 15
6 6 7 7 7 7 7 6 6 7 7 6 7 7 7 8 8 8 8 8 9 9 9 9 9 9 10 10 10 10 11 11 12 12 13 14 14 15 15 15 16 17 17
6 7 7 7 7 7 7 7 8 8 8 8 8 8 9 9 9 9 9 10 10 11 10 11 12 11 12 13 13 13 13 14 15 15 15 16 16 17 17 18 18 18 19
7 8 8 8 8 8 8 8 8 9 9 9 9 10 10 11 11 11 10 11 11 11 12 13 14 14 14 15 15 16 17 17 18 18 18 19 19 20 20 20 20 20 21
7 8 9 9 10 9 9 9 9 10 10 11 12 12 12 12 12 13 13 13 13 14 15 15 15 16 16 17 18 18 19 20 21 21 21 22 22 22 22 22 23 23 24
7 7 8 9 10 10 10 10 11 11 12 13 13 13 13 14 14 14 15 15 15 16 16 16 16 17 17 18 20 21 22 22 23 24 23 24 24 24 24 25 25 26 27
7 7 7 8 9 10 11 11 12 12 13 14 14 14 15 15 15 15 16 16 17 17 17 18 18 19 19 20 21 22 23 23 24 24 25 26 26 27 27 28 28 29 29
6 7 7 8 9 10 11 12 13 13 13 14 15 16 17 17 17 17 18 18 18 18 18 19 20 21 21 21 22 23 23 23 24 25 27 27 29 30 29 30 31 31 31
6 6 8 9 10 10 11 12 12 13 14 15 16 16 17 17 17 18 18 18 19 19 19 20 21 22 22 22 23 23 25 26 27 28 29 29 30 30 31 32 31 31 32
6 7 8 9 10 11 11 12 13 13 14 15 16 16 17 18 17 18 18 19 19 20 21 22 23 23 24 24 24 25 26 27 28 29 30 30 31 32 31 32 32 32 32
7 8 8 9 11 12 12 12 13 15 16 17 17 16 17 17 18 19 20 20 21 21 22 23 24 25 25 26 26 27 28 28 29 30 30 31 32 32 32 32 32 33 34
8 9 10 10 11 12 13 14 15 16 17 17 18 18 18 19 20 21 21 22 22 23 23 24 25 26 27 27 28 29 29 30 31 32 32 33 33 32 33 33 34 34 34
9 10 11 12 13 13 14 15 16 16 17 18 19 19 19 20 21 21 21 22 24 24 25 26 26 27 28 28 29 30 30 31 32 32 33 33 33 34 34 34 35 35 36
10 11 11 12 13 15 15 16 17 17 18 18 19 20 21 21 22 22 23 24 25 26 26 27 27 28 28 29 30 31 32 32 33 33 34 34 35 35 36 36 36 37 37
11 12 12 13 14 15 16 17 17 17 18 19 20 20 21 22 23 23 24 25 25 26 27 28 28 28 29 30 31 32 32 33 34 34 34 35 35 36 36 37 37 38 38
12 13 14 15 15 16 16 17 17 18 18 19 20 21 21 22 23 24 24 25 26 26 27 29 29 30 31 32 32 33 33 34 34 34 35 35 36 36 37 38 38 39 39
13 14 15 16 16 17 17 17 18 18 19 20 20 21 22 23 24 25 26 26 26 27 28 29 30 32 32 32 32 33 34 34 34 35 35 36 37 37 38 38 39 39 39
16 16 17 17 17 18 18 18 19 20 21 21 22 22 23 24 25 25 26 27 27 28 28 29 30 31 32 32 33 33 34 34 34 35 35 36 37 37 38 37 38 39 39
19 19 18 18 19 19 20 20 21 22 22 23 23 24 25 25 26 27 27 27 28 28 29 30 31 31 31 32 32 33 34 34 35 35 35 36 36 36 36 36 37 37 38

GEFSMA_500_meanwind_174.txt.gz
Wind_Speed
2 2 2 2 2 3 3 3 3 3 3 4 4 4 4 3 3 3 3 2 2 2 1 0 0 1 1 1 1 2 2 3 3 4 4 5 5 6 6 6 7 7 7
2 2 2 2 2 3 3 3 3 2 3 2 3 3 3 3 3 2 2 2 1 1 0 1 1 1 2 2 3 3 4 4 4 5 5 6 6 7 7 8 8 8 8
2 2 2 3 2 2 2 2 1 1 1 1 1 1 2 2 2 2 1 0 1 1 1 1 2 2 3 3 4 5 5 5 5 5 6 6 7 8 8 8 9 9 9
2 2 3 3 2 2 2 1 0 0 0 0 0 0 1 1 2 1 1 1 1 1 2 2 3 3 4 4 5 5 6 6 6 7 8 8 8 9 9 10 10 10 10
3 4 4 3 3 2 2 2 2 2 1 1 1 1 1 2 2 2 2 2 2 2 2 3 3 4 5 5 6 7 7 7 8 8 9 10 10 10 11 11 12 12 12
4 5 5 5 4 4 3 3 3 3 3 2 2 2 3 3 3 3 3 3 4 4 4 4 4 5 6 6 7 8 9 9 10 10 10 11 11 12 12 13 13 13 14
5 5 6 6 5 5 4 4 4 4 4 4 4 4 4 4 4 5 5 5 6 6 6 6 7 7 8 9 9 10 10 11 12 12 12 12 13 13 14 14 15 15 15
5 6 6 6 6 5 5 5 5 5 5 5 6 6 6 6 6 6 7 7 8 8 9 9 10 10 11 11 12 12 13 13 13 13 14 14 14 15 15 15 16 17 17
5 5 7 7 7 6 5 5 5 6 6 6 7 7 7 8 8 8 9 9 10 10 10 10 11 12 13 13 13 14 15 15 15 15 16 16 17 17 18 18 19 19 20
5 5 7 8 8 8 7 7 7 7 7 8 8 8 9 10 10 10 11 11 11 11 12 12 13 14 15 16 16 17 17 17 17 17 18 19 20 20 21 21 21 22 22
6 6 7 9 9 9 9 9 9 9 9 9 9 10 11 11 12 12 13 13 13 14 14 15 16 16 16 17 18 18 18 18 19 19 20 21 22 22 23 23 24 24 24
7 8 7 8 10 10 10 10 10 10 11 11 12 13 13 13 14 15 15 15 16 16 17 17 18 18 18 18 18 19 20 21 21 22 23 23 24 24 25 26 25 26 27
9 9 9 9 9 10 11 12 12 12 12 13 14 14 15 15 15 16 17 17 18 19 19 19 20 20 20 20 21 21 22 23 23 24 24 24 25 26 26 27 27 28 28
9 10 10 10 10 11 11 12 13 13 14 14 15 16 16 16 16 17 18 19 19 20 20 21 22 21 21 22 23 24 25 25 25 26 26 26 27 28 29 29 29 29 30
9 9 10 10 11 11 12 13 13 14 14 15 16 16 16 17 18 19 19 19 19 19 19 21 22 23 23 24 25 26 26 27 26 26 27 29 30 30 31 31 32 31 31
9 10 10 11 12 12 12 12 13 14 14 15 16 17 17 18 18 19 19 20 20 20 21 23 24 24 24 24 25 25 27 27 28 28 29 29 30 31 32 33 33 33 33
9 9 10 10 11 12 13 13 14 15 16 17 17 18 19 19 19 19 19 21 22 22 23 24 25 26 26 26 27 28 29 29 29 29 30 32 32 33 33 34 34 34 34
9 10 11 12 12 12 13 14 15 16 16 17 18 18 19 19 20 20 21 22 23 24 25 26 26 27 27 28 29 29 30 30 31 31 31 32 33 34 34 34 34 35 34
9 10 11 11 12 13 14 15 15 16 17 17 18 19 20 20 21 22 23 23 24 25 26 27 28 28 29 29 30 31 31 31 32 32 33 33 34 34 35 35 35 36 36
10 11 11 11 12 13 14 16 16 17 18 18 19 19 20 21 22 22 24 25 26 27 27 28 29 29 30 30 31 32 32 33 33 34 34 35 35 36 36 36 36 36 36
11 11 11 12 13 14 15 16 17 18 18 19 20 20 21 22 23 24 25 26 27 27 27 28 29 30 31 31 32 32 33 34 34 34 35 36 36 37 37 36 36 37 37
12 12 12 14 15 17 17 18 18 19 20 21 21 22 23 24 25 26 26 27 27 27 29 29 30 31 31 32 33 33 34 35 35 35 36 37 37 36 37 37 37 38 38
13 13 14 16 17 18 19 20 21 22 22 22 23 24 25 25 26 26 26 27 28 29 29 30 30 31 32 32 33 34 34 35 36 36 37 37 37 37 37 37 37 37 38
14 15 16 17 18 19 20 21 22 22 23 23 24 25 25 25 26 26 27 28 29 29 30 30 31 32 33 34 34 35 35 36 36 36 37 37 38 38 38 37 37 37 38
16 17 17 18 19 21 22 22 22 22 23 24 24 25 26 27 27 27 28 29 30 31 31 32 32 33 34 34 34 35 35 36 37 37 38 38 38 37 37 37 37 37 38
19 19 20 20 21 22 23 23 23 23 24 24 25 26 27 28 28 29 30 31 31 31 32 33 33 34 35 35 35 35 36 36 37 37 37 37 37 37 37 37 37 37 37

GEFSMA_500_meanwind_180.txt.gz
Wind_Speed
4 5 5 5 6 6 6 6 6 5 5 5 5 5 5 4 4 3 3 3 3 3 2 2 2 1 0 0 1 2 3 3 3 4 4 4 4 4 5 5 5 5 6
5 5 5 5 5 5 5 5 5 5 4 4 4 4 4 4 3 3 2 2 1 1 2 2 1 1 1 2 2 3 3 4 4 5 5 5 5 6 6 7 7 7 7
5 5 6 5 5 4 4 4 4 3 3 2 2 2 2 2 2 2 1 1 0 1 1 2 2 2 2 2 3 3 4 5 5 6 6 7 7 8 8 8 8 9 9
5 5 6 5 5 5 4 4 3 3 2 2 2 1 1 1 1 0 1 1 2 2 2 2 3 3 4 4 4 5 5 6 7 7 8 8 9 9 10 10 10 10 10
5 5 6 6 5 5 4 3 3 2 2 2 1 1 1 1 1 2 2 2 3 3 3 4 4 5 5 5 6 7 7 7 8 9 9 10 10 11 11 11 11 12 12
5 5 6 6 6 5 5 4 3 3 3 3 2 2 2 2 3 3 3 4 4 5 5 5 6 6 7 7 8 8 9 9 10 11 11 12 13 13 13 13 13 13 14
6 6 6 6 7 6 5 5 5 4 4 4 4 4 4 4 4 5 5 6 7 7 7 8 8 9 9 10 10 10 11 12 12 13 13 14 15 15 15 15 15 16 16
6 6 7 7 7 7 7 6 6 5 5 5 5 6 6 6 6 7 7 8 8 9 9 10 11 11 12 12 13 13 14 14 15 15 15 16 16 17 17 17 18 18 18
6 6 7 7 8 8 8 7 7 6 6 6 7 7 8 8 8 8 9 9 10 11 12 12 13 13 14 14 15 16 17 17 17 17 18 18 18 18 18 19 20 20 20
6 6 7 7 8 8 9 9 8 8 8 8 8 8 9 9 10 10 11 11 12 13 13 14 15 15 15 16 17 18 18 19 19 19 20 20 20 20 21 21 21 22 22
7 7 7 7 8 8 9 9 9 9 9 9 9 10 11 11 12 12 13 14 14 15 15 16 16 17 17 17 18 18 19 20 20 20 21 21 21 21 22 22 22 23 24
7 7 7 7 8 8 9 10 11 11 11 11 11 12 12 13 13 14 14 15 16 16 16 17 17 17 18 19 19 20 20 20 21 21 22 23 23 23 24 25 26 26 26
8 8 9 9 9 9 10 11 12 12 13 13 13 14 14 15 15 16 16 16 17 18 18 19 19 19 20 20 21 21 21 22 22 23 24 24 25 26 26 27 27 28 29
8 9 10 10 10 11 12 12 12 13 14 14 15 15 16 16 17 17 17 18 19 19 19 20 21 21 21 21 22 22 23 24 25 25 26 26 27 27 27 27 28 29 30
9 10 10 11 11 12 13 14 14 14 15 15 16 16 16 17 18 18 19 19 20 20 21 21 22 23 23 23 23 25 25 26 27 28 28 28 28 27 28 28 29 30 31
10 10 11 11 11 12 13 14 15 15 15 15 16 16 17 18 19 20 20 20 20 21 22 22 23 24 24 25 25 26 26 27 28 28 29 29 29 29 30 30 31 31 32
10 11 11 11 12 12 13 13 14 15 16 16 17 18 18 19 19 20 21 21 22 21 22 23 24 25 26 27 27 28 28 29 29 30 30 31 32 32 32 32 33 33 33
11 12 12 12 12 13 14 14 15 15 16 17 18 19 19 20 21 21 21 21 21 22 23 24 25 26 27 27 28 29 30 30 30 31 32 32 33 33 34 34 34 34 34
11 12 12 13 13 13 14 15 16 16 17 17 18 18 19 19 20 21 22 22 22 23 25 26 26 27 28 28 28 29 30 31 31 32 33 33 34 34 35 34 34 34 34
11 11 12 13 13 14 15 16 17 17 18 19 19 20 20 21 21 21 22 23 24 25 26 27 27 28 29 29 30 30 31 32 33 33 33 34 34 34 35 35 36 36 35
12 12 13 14 15 15 16 17 18 19 19 20 20 21 22 23 23 24 24 24 25 27 28 28 28 29 30 30 30 31 32 33 33 34 34 34 34 35 35 36 36 36 36
13 13 14 15 16 17 18 18 19 20 21 22 22 23 24 25 25 26 26 26 27 28 28 28 29 30 30 30 31 31 32 33 33 34 35 35 35 35 36 36 36 37 37
14 15 15 17 17 18 19 21 22 22 23 24 24 24 24 25 26 27 27 27 28 29 29 29 29 30 31 31 31 32 33 34 34 35 36 36 36 36 36 37 37 37 38
16 17 18 19 19 20 21 22 23 23 23 24 24 25 25 26 26 26 27 28 29 29 30 30 31 31 32 32 33 33 34 35 35 35 35 36 37 37 37 37 37 38 37
19 19 20 21 21 21 21 22 23 23 24 25 25 25 26 26 26 26 27 28 30 30 30 31 32 33 33 33 33 34 34 35 34 35 35 36 37 37 37 37 36 36 36
21 21 22 22 22 22 22 23 24 25 25 25 26 26 27 28 28 28 29 30 31 31 31 32 32 32 33 33 33 34 34 34 35 36 36 36 36 36 36 36 35 35 34

GEFSMA_500_meanwind_186.txt.gz
Wind_Speed
2 2 4 4 4 5 5 5 5 4 4 4 4 4 4 4 4 4 4 3 3 2 2 2 2 1 1 1 1 1 1 2 2 3 3 4 4 4 4 4 5 5 5
2 2 3 3 3 4 5 5 4 4 4 3 3 3 3 3 4 4 3 3 2 2 1 1 0 0 1 1 1 2 2 3 3 4 5 5 5 5 6 6 7 7 7
2 2 3 4 3 3 4 3 3 3 3 2 2 2 2 2 2 2 2 2 1 1 1 1 1 2 2 2 3 3 4 4 5 5 6 6 6 6 7 8 8 9 9
3 3 3 4 3 3 3 3 2 2 1 1 1 1 1 1 1 1 0 0 1 1 2 2 3 3 4 4 5 5 5 6 6 7 7 7 8 8 9 10 10 10 10
3 3 4 5 4 3 3 3 2 2 2 1 1 0 0 0 1 1 1 2 2 3 3 4 4 5 6 6 7 7 8 8 8 8 8 8 9 10 10 11 11 12 12
4 4 4 5 4 3 3 3 3 3 3 2 2 2 2 2 2 3 3 3 4 4 5 5 6 6 7 8 9 9 10 10 11 11 11 11 12 12 13 13 13 13 14
5 4 5 6 5 5 4 4 5 4 4 4 3 3 3 4 4 4 5 5 5 6 6 7 8 9 10 10 11 11 12 12 13 13 13 14 14 15 15 15 15 15 16
5 5 6 6 6 6 6 6 6 6 6 5 5 5 5 5 6 6 7 7 7 8 8 9 10 11 12 12 12 13 14 14 15 15 15 16 16 16 17 16 16 17 18
6 6 6 7 8 8 8 8 8 8 8 8 7 7 7 7 8 8 8 9 9 10 10 11 11 12 13 14 14 15 16 16 16 17 18 18 18 18 18 18 19 19 19
5 6 7 7 8 9 9 9 10 10 9 9 9 9 10 10 10 10 11 11 12 11 12 13 13 13 14 15 16 17 17 17 18 18 19 19 19 19 19 20 20 21 21
6 6 7 8 9 9 10 10 11 11 11 11 11 11 11 12 12 12 12 13 13 13 14 15 15 15 16 16 16 17 18 18 19 20 20 20 20 20 20 21 21 22 23
7 7 8 9 9 10 10 11 11 11 12 12 12 13 13 13 14 14 14 15 15 15 16 16 16 17 18 18 18 19 19 20 20 20 21 21 21 22 22 23 23 24 24
7 8 9 9 9 10 11 11 11 12 12 13 14 14 15 16 16 16 16 16 17 17 18 18 18 19 19 19 19 20 20 21 21 22 22 22 22 24 24 25 25 25 25
8 9 9 9 10 10 11 11 12 13 13 14 15 16 16 16 17 18 18 18 18 19 19 20 20 20 20 20 21 22 22 23 23 24 24 25 25 25 26 26 27 27 27
9 9 9 9 10 10 11 12 12 13 14 15 16 16 17 17 18 18 19 19 20 20 20 21 21 22 22 22 22 22 23 23 24 25 26 26 26 27 27 27 28 28 28
10 10 10 11 11 12 12 13 13 14 15 16 16 17 17 17 18 19 19 19 20 21 21 22 23 24 24 24 23 23 23 24 25 25 26 26 27 28 28 29 29 29 30
11 11 11 12 13 13 14 15 15 15 15 16 16 16 17 18 18 19 19 20 21 22 23 23 25 24 24 24 24 25 25 26 26 27 27 27 28 29 30 30 30 31 31
12 13 13 13 14 14 15 15 16 17 17 17 17 17 18 18 19 20 20 21 22 22 23 23 24 24 25 25 26 27 27 28 28 28 29 29 30 30 30 31 31 31 31
13 14 14 15 15 15 16 16 17 17 18 18 18 19 19 19 20 21 22 22 23 24 24 25 25 26 26 27 29 29 29 30 30 31 31 31 30 31 31 32 32 32 32
15 15 15 16 16 16 16 17 17 18 18 19 19 20 21 21 22 22 23 23 24 25 25 26 27 27 28 29 31 31 31 31 31 31 32 31 31 32 32 32 33 33 33
16 16 16 17 17 17 17 17 18 19 19 20 21 21 22 23 23 24 24 25 26 26 27 28 28 29 30 31 31 31 31 31 31 32 31 31 31 32 33 33 33 33 33
18 18 19 18 18 18 18 19 19 20 21 22 23 23 24 25 25 25 26 27 27 28 28 29 29 30 30 31 30 31 31 31 31 31 32 32 32 33 33 34 34 33 33
20 20 20 19 19 20 20 20 20 21 22 23 23 24 24 25 26 26 27 28 28 29 29 30 31 31 31 31 31 31 31 31 32 32 33 33 33 33 33 33 34 34 34
21 21 21 21 21 21 21 21 22 22 23 24 24 24 24 26 26 27 27 28 28 30 30 30 30 30 31 31 30 31 31 32 33 33 33 34 34 34 34 34 34 34 34
22 22 22 22 22 23 23 23 23 24 24 24 25 25 26 26 27 28 28 29 30 30 31 31 31 31 31 31 32 32 32 32 33 33 33 34 34 34 34 34 34 34 33
23 23 23 23 23 24 24 25 26 25 25 26 26 27 27 27 28 29 30 30 31 31 31 32 31 30 31 31 31 32 32 33 33 33 32 33 34 34 34 34 33 33 34

GEFSMA_500_meanwind_192.txt.gz
Wind_Speed
2 3 3 3 4 5 5 5 5 5 5 4 4 4 4 4 5 5 5 5 5 4 4 4 3 3 3 2 2 2 2 2 3 3 3 4 5 5 5 6 7 7 7
2 2 3 4 4 5 5 4 4 4 4 4 4 3 3 4 5 4 4 4 3 3 3 3 3 2 2 2 2 2 3 3 4 4 5 5 6 6 7 7 8 8 9
2 2 3 4 4 4 4 4 4 4 3 3 3 2 2 3 4 4 3 3 3 2 2 2 2 3 3 3 3 4 4 5 5 6 6 6 7 7 8 9 9 10 10
2 3 3 4 4 5 5 4 3 3 3 3 2 2 2 3 3 3 3 3 2 2 2 3 3 4 4 5 5 6 6 6 6 7 8 8 9 9 10 10 10 11 12
2 4 4 4 5 5 4 4 4 4 4 3 3 3 3 3 3 3 3 3 3 4 4 4 4 5 6 6 7 7 8 8 8 9 9 10 11 11 11 11 12 13 13
2 4 4 5 5 5 5 5 5 5 5 4 4 4 4 4 4 4 4 5 5 5 5 6 7 7 7 8 8 9 10 10 10 10 11 11 12 12 12 13 13 14 15
2 3 5 5 5 5 5 5 6 6 6 6 5 5 6 6 5 6 6 6 6 7 7 8 8 8 9 9 10 10 11 11 12 12 13 13 13 14 14 15 15 16 16
3 3 5 6 6 6 6 7 7 7 7 7 7 7 7 7 8 8 8 8 9 9 9 10 10 10 11 11 11 12 12 13 14 14 15 15 16 16 16 17 17 18 19
4 4 5 6 7 7 8 8 8 8 9 9 9 9 9 10 10 10 10 10 10 11 11 11 12 13 13 13 13 14 14 15 15 16 16 17 18 18 18 19 20 21 21
5 5 5 6 7 8 8 9 10 10 10 11 11 11 11 11 11 12 12 13 13 13 14 14 14 14 15 15 15 16 16 16 17 18 18 19 19 20 20 21 22 22 22
5 6 6 7 7 8 9 9 10 11 11 12 12 12 13 13 13 14 14 15 14 15 15 15 16 16 16 17 17 18 18 18 19 19 20 20 20 21 21 22 22 23 23
6 7 7 8 9 9 10 11 11 11 11 12 13 13 14 14 14 14 15 15 15 16 16 17 17 18 18 18 18 19 19 19 20 20 20 21 21 21 22 23 23 24 25
8 8 8 9 10 11 11 11 11 12 12 13 13 14 14 14 14 15 16 17 17 17 18 19 19 19 20 20 20 21 21 21 21 21 21 22 22 22 23 24 25 25 26
8 9 9 10 10 11 11 12 12 12 13 13 14 14 14 14 15 16 18 18 18 19 19 20 20 21 21 21 22 22 22 23 23 23 23 23 24 25 26 26 27 28 28
7 8 10 10 10 11 11 12 13 13 14 14 14 14 15 16 17 17 18 18 18 19 20 21 21 21 22 22 22 23 24 24 25 25 25 25 26 27 27 27 27 28 29
8 8 9 9 10 11 11 12 13 14 14 14 15 15 15 16 17 17 18 18 18 19 19 20 21 21 22 23 23 24 24 24 25 26 26 27 27 28 28 28 29 29 30
9 9 10 10 10 10 11 12 12 14 14 15 15 16 16 16 16 17 17 17 18 18 18 19 20 22 23 23 24 24 25 25 26 26 26 27 29 29 30 30 30 31 31
11 11 11 11 11 11 12 12 13 14 15 15 16 17 17 18 18 18 18 18 19 20 20 21 22 23 24 24 25 26 26 27 27 28 29 29 30 31 31 32 31 31 32
12 12 12 12 12 12 13 13 14 15 16 16 17 17 18 18 18 18 19 20 20 21 22 22 23 24 25 26 26 27 27 28 29 29 30 31 32 32 32 32 32 33 33
13 13 13 13 13 13 14 15 15 16 17 17 18 18 19 20 20 20 21 21 22 23 24 24 25 26 27 27 27 28 28 29 29 30 31 32 33 33 33 33 33 33 33
14 14 14 14 14 15 15 15 16 16 17 18 18 19 19 20 21 21 22 23 24 24 25 26 27 27 27 28 28 29 29 30 30 31 32 32 32 32 32 32 32 32 33
16 16 15 16 15 15 16 16 16 16 17 18 19 19 20 21 22 22 23 24 25 25 26 26 27 28 29 29 29 29 30 31 31 31 31 32 32 32 32 32 32 32 32
17 17 17 17 17 17 17 17 17 18 18 18 20 21 22 22 23 23 24 24 25 26 26 26 27 27 28 29 30 30 31 31 31 31 31 32 31 31 32 32 33 33 32
19 18 18 19 19 18 18 18 18 19 19 19 20 21 22 23 24 24 25 26 26 26 26 27 27 28 29 29 30 30 31 31 31 30 30 31 31 31 32 32 33 33 33
20 20 20 20 20 19 19 20 20 20 20 21 21 22 23 24 24 25 26 27 27 27 28 28 29 30 31 31 31 31 32 32 32 32 32 32 32 32 32 33 33 33 33
22 22 21 21 20 21 21 21 21 21 22 22 23 24 24 24 25 26 27 28 28 28 29 30 31 31 31 32 32 32 31 32 32 32 32 32 32 32 33 34 34 34 34

GEFSMA_500_meanwind_198.txt.gz
Wind_Speed
3 3 3 3 4 4 4 3 3 4 3 3 3 3 4 3 4 3 3 3 3 3 3 2 2 2 2 2 3 3 4 4 5 5 5 6 6 7 6 7 7 7 8
2 2 2 3 4 4 4 3 3 3 3 3 3 3 3 3 3 3 3 2 2 2 2 3 3 3 3 3 4 4 5 5 6 6 7 7 7 8 8 8 9 9 9
2 3 3 3 4 3 3 3 3 3 3 2 2 2 2 2 2 2 3 2 2 2 3 4 4 4 5 5 5 5 6 7 7 8 8 9 9 9 10 10 10 11 11
2 3 3 3 3 4 3 3 3 3 3 3 2 2 2 3 3 3 4 4 4 4 4 5 5 6 6 6 6 7 8 8 9 9 10 10 10 10 11 11 11 11 11
2 3 4 4 4 4 4 4 4 4 4 4 4 3 4 4 4 4 5 5 5 5 6 6 6 7 8 8 8 8 9 10 10 10 11 12 12 12 12 12 12 12 13
2 3 4 5 5 5 5 5 5 6 6 6 6 5 5 5 6 6 6 6 7 7 7 8 8 9 10 10 10 11 11 12 12 13 13 13 13 13 13 14 14 15 15
3 3 4 5 6 6 6 6 6 7 7 8 8 8 7 7 7 8 8 8 9 9 9 9 10 10 11 11 12 13 14 15 15 15 15 16 16 16 16 16 17 17 18
4 5 5 6 6 6 7 7 8 8 9 9 9 9 9 10 10 9 10 11 11 11 12 12 12 13 13 13 14 15 16 16 17 17 17 17 18 18 18 18 19 19 20
5 5 6 6 6 7 7 8 9 10 11 11 11 11 11 11 12 12 13 13 13 13 14 14 14 15 15 16 16 16 17 17 18 18 18 18 19 19 19 20 21 22 22
5 5 6 7 7 8 8 9 10 11 11 12 13 13 13 13 14 14 15 15 15 16 16 17 16 17 18 18 18 18 19 19 19 20 20 20 20 21 21 22 23 24 24
6 7 8 9 9 10 10 11 12 12 12 12 13 14 14 15 15 16 16 16 17 18 18 19 18 19 19 19 20 20 21 21 22 21 21 21 22 23 23 23 24 24 24
7 8 9 9 10 11 11 11 12 13 13 14 15 15 15 16 16 17 17 17 18 19 20 20 20 20 20 20 21 22 23 23 23 23 24 24 24 24 25 25 25 25 25
8 9 10 10 11 12 12 12 12 13 14 15 16 15 16 16 16 17 18 18 19 19 20 21 22 22 22 23 23 23 24 24 24 25 25 25 26 26 26 26 26 26 27
9 9 11 12 12 13 14 14 14 14 15 16 16 17 17 17 18 18 18 18 19 20 21 22 22 22 23 23 23 24 24 25 25 26 26 26 27 27 27 27 27 28 28
9 10 11 12 12 13 14 14 15 16 16 16 17 18 19 19 19 19 19 19 19 19 20 22 22 22 22 22 22 23 23 25 26 26 27 27 27 27 28 28 29 30 30
10 11 12 12 13 13 14 15 15 16 16 17 18 18 19 19 19 20 20 21 20 21 21 22 22 23 23 24 24 24 24 25 26 27 28 28 28 28 29 30 30 31 32
11 11 12 12 13 13 14 15 15 15 16 16 17 18 19 20 20 21 21 21 21 21 21 22 23 24 24 25 26 26 26 27 27 28 29 29 30 30 30 30 31 32 33
12 12 13 13 13 14 14 15 16 17 17 18 18 19 20 21 21 21 22 22 22 22 23 23 24 25 25 26 27 27 27 28 29 30 30 30 30 31 32 32 33 34 35
14 14 14 14 14 15 15 16 17 17 17 18 19 20 20 21 22 22 22 23 23 24 24 25 25 26 27 28 28 28 29 30 30 31 31 31 32 32 33 34 33 34 35
15 15 15 15 15 16 16 17 18 18 19 19 20 20 20 20 21 22 23 24 25 25 26 26 27 28 28 29 29 29 30 30 31 32 32 32 33 33 34 34 35 35 36
17 17 17 17 17 17 17 19 19 19 19 20 20 21 21 21 21 22 23 25 26 27 27 28 28 29 29 29 30 30 30 31 32 32 32 32 33 33 34 35 35 35 35
18 18 18 18 18 18 19 20 20 20 20 20 21 22 22 22 22 22 23 25 26 27 28 28 29 30 30 30 30 30 31 32 32 33 33 34 34 35 34 34 34 35 35
19 19 19 19 19 19 20 20 20 20 20 20 20 21 22 22 23 23 24 25 26 28 28 29 30 31 31 31 31 32 32 33 33 33 33 34 34 34 35 35 35 35 35
21 20 21 21 21 21 21 21 21 22 21 21 22 23 23 24 24 25 26 27 27 28 29 31 31 31 31 31 31 33 33 33 34 35 35 34 34 35 36 36 35 35 36
21 21 22 22 22 23 23 23 23 23 23 23 23 23 24 25 26 26 27 28 29 29 30 31 32 31 31 32 33 33 34 34 34 35 35 35 35 35 36 36 36 36 36
22 22 23 23 23 23 24 24 24 24 25 25 24 25 25 26 26 27 28 28 29 29 30 31 32 32 33 34 34 34 34 35 35 35 35 35 36 36 36 36 36 36 36

GEFSMA_500_meanwind_204.txt.gz
Wind_Speed
5 5 5 5 5 5 5 5 5 5 5 5 5 5 5 5 5 5 5 5 4 4 4 4 3 3 3 4 4 4 5 5 5 6 6 6 7 8 8 8 8 8 8
4 4 4 5 4 4 4 4 4 4 4 4 4 4 4 4 4 4 5 4 4 4 4 4 4 4 4 4 5 5 6 6 7 7 7 8 8 8 9 9 9 9 10
3 3 4 4 4 4 4 4 3 3 3 3 3 3 3 3 4 4 4 4 4 4 4 4 5 5 4 5 6 6 6 7 8 8 8 9 9 10 10 10 11 11 11
2 2 4 4 4 4 4 4 4 3 3 3 3 3 3 3 4 5 5 5 5 5 6 5 6 6 7 7 7 7 8 8 9 9 10 10 11 11 11 11 11 12 12
2 3 4 4 4 4 4 4 4 4 4 5 4 4 4 5 5 6 6 6 6 6 6 7 7 8 8 8 9 9 10 10 11 11 12 12 12 13 13 13 13 13 14
2 3 4 4 4 4 5 5 5 5 6 6 6 6 6 7 7 7 8 8 8 8 8 9 9 9 10 10 11 11 12 12 12 13 13 14 14 14 14 15 15 15 15
3 3 4 5 5 6 6 6 7 7 7 7 7 8 8 9 9 9 10 10 10 10 10 11 11 11 12 12 13 13 14 15 15 15 16 16 16 16 16 15 16 17 17
4 4 5 6 6 6 7 7 8 8 9 9 9 10 11 11 11 12 12 11 11 12 12 13 13 13 14 14 14 15 16 16 16 17 17 18 18 18 18 18 18 18 19
4 4 5 6 6 7 7 8 9 9 10 10 11 11 12 12 13 13 14 13 13 14 14 14 15 16 16 16 16 17 17 18 19 19 19 20 20 20 20 20 21 21 21
5 5 6 7 7 8 8 9 10 10 11 12 13 13 13 14 14 14 15 15 15 15 16 17 17 18 18 18 18 18 19 19 20 20 21 21 21 21 21 22 22 22 23
6 7 8 8 8 9 9 10 11 12 13 13 14 14 14 15 16 16 16 17 17 18 18 18 19 19 19 19 20 20 21 21 21 21 22 22 22 22 23 23 22 23 23
7 8 9 9 9 10 11 12 13 14 14 14 15 15 16 16 18 18 18 18 18 18 18 18 19 19 20 20 21 22 22 22 23 22 23 23 23 23 24 24 24 24 24
7 8 9 10 10 11 12 13 14 15 15 15 16 16 17 17 18 19 19 19 19 20 20 20 20 20 21 21 22 22 22 23 23 23 23 24 24 24 25 25 25 25 25
8 9 10 10 11 12 13 14 15 15 16 16 17 18 18 19 19 19 20 20 20 21 22 22 22 23 22 22 22 22 23 23 23 24 24 25 26 25 25 26 26 26 26
9 9 10 11 12 12 13 14 15 15 16 17 18 19 19 19 20 21 21 21 22 22 23 24 24 24 23 24 24 24 24 24 25 26 26 26 27 27 27 27 27 27 28
10 10 11 11 12 12 13 13 15 16 16 17 17 18 19 19 20 21 22 22 23 24 24 24 23 24 24 24 24 25 25 25 26 26 26 26 27 28 28 29 29 29 29
12 12 12 13 14 14 14 15 15 16 16 17 18 18 18 19 19 20 21 21 23 23 24 24 23 24 24 24 25 25 25 26 26 27 27 27 28 29 29 30 30 30 30
14 14 13 14 14 15 15 15 16 17 17 17 18 19 19 19 20 20 21 22 22 23 23 24 24 25 25 26 26 27 26 27 28 28 28 28 29 30 30 31 31 31 32
15 15 15 14 15 15 16 16 16 17 18 18 18 18 19 19 20 21 22 22 23 23 23 24 25 26 27 28 28 28 28 28 29 29 30 30 31 31 31 31 31 32 33
16 15 15 15 15 15 16 17 17 18 18 18 19 19 20 21 21 22 23 23 23 23 24 25 26 27 28 29 30 29 30 30 31 31 32 32 32 32 32 32 33 33 34
17 17 16 16 16 17 17 17 18 18 19 20 20 20 20 21 22 22 23 23 23 24 25 26 27 28 29 30 31 31 31 32 32 32 33 33 34 34 33 34 34 34 35
18 18 19 19 19 19 19 18 19 19 19 20 21 21 21 22 22 23 23 24 24 25 26 27 28 29 30 30 30 30 31 32 32 33 34 34 35 35 35 35 35 35 36
20 20 20 20 20 20 20 20 20 20 21 21 21 22 22 23 23 23 24 25 25 26 26 27 28 29 30 30 31 31 32 32 33 33 34 34 35 35 36 36 36 35 36
21 22 22 21 21 20 20 20 20 21 21 22 23 23 23 24 24 24 25 26 26 26 26 27 28 29 30 30 31 31 32 32 33 33 34 34 34 34 35 36 36 36 36
23 23 22 22 22 21 21 21 22 22 22 23 24 24 24 24 25 25 26 26 27 28 28 28 28 29 30 30 31 31 32 33 33 33 34 34 35 35 35 35 35 36 36
24 23 23 23 23 22 22 23 23 23 24 24 24 25 24 25 25 26 25 25 26 27 28 28 29 29 29 30 30 31 32 33 33 33 34 34 35 35 35 35 35 35 35

GEFSMA_500_meanwind_210.txt.gz
Wind_Speed
2 2 2 2 3 3 3 4 4 3 3 3 2 2 3 3 3 3 3 3 3 3 3 3 2 2 2 3 3 3 3 4 4 5 6 6 6 6 6 7 7 7 7
1 1 1 2 2 2 2 2 3 3 3 2 2 2 2 3 2 3 3 3 3 3 3 3 3 3 3 3 4 4 4 5 5 6 6 7 8 7 8 8 9 9 9
1 0 2 2 1 1 1 1 2 2 2 2 2 2 2 2 3 3 3 3 4 4 4 4 5 5 5 4 5 5 5 5 6 6 7 7 8 8 9 9 9 10 10
2 1 1 2 3 2 2 2 2 2 2 2 2 3 3 3 4 4 4 5 5 5 5 5 6 6 7 7 6 6 7 7 8 8 9 9 9 9 9 9 10 10 10
3 3 3 3 3 4 3 3 3 3 3 4 4 4 5 5 5 5 5 6 7 7 7 7 8 8 9 9 9 9 9 9 10 10 11 11 11 11 11 11 11 12 12
4 4 4 4 4 5 5 5 5 5 5 6 6 7 7 8 7 8 8 8 8 9 9 10 10 10 10 11 11 11 11 11 12 12 13 13 13 13 13 14 14 13 13
4 5 5 5 5 5 6 6 7 7 7 7 8 8 9 10 10 10 10 10 11 11 11 11 12 12 12 12 13 13 13 14 14 14 15 15 15 15 16 16 16 15 15
6 6 6 6 5 6 7 7 7 7 8 9 9 10 10 11 12 12 12 13 13 13 13 13 13 14 14 14 14 15 16 16 16 16 17 17 17 18 18 18 17 17 17
7 7 7 6 7 7 8 8 9 9 10 10 11 11 12 13 13 13 13 14 14 14 14 14 14 15 15 16 17 17 17 18 18 18 18 18 19 19 20 19 19 19 19
8 8 8 8 8 9 9 10 10 11 11 11 12 12 13 14 14 14 14 15 15 16 16 16 16 16 17 18 18 18 18 19 19 19 19 19 19 20 21 20 20 21 22
9 9 9 9 10 10 10 11 12 12 13 13 13 14 15 16 16 16 16 16 17 18 18 19 18 18 18 18 18 19 20 20 20 20 20 20 21 21 21 21 21 22 22
10 10 10 11 11 11 11 12 13 13 14 14 15 15 15 16 17 17 18 18 18 19 20 20 20 19 20 20 20 21 21 22 21 21 22 22 22 22 22 22 22 22 23
11 11 11 11 11 12 12 13 14 14 14 15 15 15 16 17 18 18 18 19 19 20 20 21 21 20 21 21 22 23 22 22 23 23 23 23 23 23 23 23 23 24 24
13 12 12 12 12 13 13 14 14 14 15 16 16 17 17 18 18 19 19 20 21 21 21 21 22 22 22 22 23 23 23 24 24 24 25 24 24 25 25 25 25 26 26
13 13 14 14 14 14 14 14 14 14 15 16 17 17 18 19 19 18 19 19 20 20 21 21 21 22 22 23 23 24 24 24 25 25 25 26 25 25 25 25 26 26 26
14 15 14 14 14 13 13 13 14 14 15 16 17 18 19 19 19 19 19 19 19 20 21 22 22 22 23 24 25 25 25 25 25 25 25 25 25 26 26 26 27 27 28
16 16 15 15 15 15 15 15 15 15 16 17 17 18 19 19 19 19 19 19 20 20 21 21 23 23 24 25 25 26 26 26 26 25 25 26 26 27 27 27 27 28 29
17 17 17 16 16 16 16 17 17 17 17 17 18 18 19 19 20 20 19 20 20 21 21 22 23 23 24 25 25 24 24 25 26 26 27 27 27 28 28 28 28 29 30
18 18 17 17 17 17 18 18 19 18 18 19 19 19 19 20 20 20 21 21 21 21 21 22 22 23 24 24 25 25 26 26 26 27 27 28 28 29 30 30 30 30 30
19 19 19 18 19 19 19 20 20 20 19 19 20 21 21 21 21 22 22 22 22 22 22 23 24 25 25 26 26 26 26 26 27 28 28 28 29 29 30 30 31 32 33
20 20 20 20 20 20 20 21 21 20 20 20 21 21 22 22 22 22 23 22 22 22 23 24 25 25 26 26 26 26 27 27 28 28 29 29 30 30 31 32 32 33 34
21 22 21 21 21 22 22 21 21 20 21 21 22 22 23 23 23 22 22 23 23 23 24 24 24 25 26 26 27 27 28 28 27 28 29 29 30 30 31 31 32 33 34
23 23 23 23 23 23 23 23 23 22 22 23 23 23 23 23 22 22 22 23 23 22 22 22 23 24 25 26 27 27 28 28 28 29 29 29 30 31 31 32 33 33 33
24 24 24 24 23 23 24 24 23 23 23 23 24 23 23 24 24 23 23 22 22 23 23 24 24 25 26 26 26 27 27 28 28 28 29 30 30 31 31 32 32 33 33
25 25 25 24 24 23 24 24 23 23 23 23 23 23 23 24 24 24 23 23 24 24 24 25 25 26 26 26 26 27 28 28 29 29 30 31 31 32 32 32 32 33 33
26 25 25 25 24 24 23 24 24 24 23 24 24 24 24 25 25 25 24 25 25 25 25 26 26 26 27 27 27 27 28 28 29 30 30 30 31 32 32 32 32 33 33

GEFSMA_500_meanwind_216.txt.gz
Wind_Speed
3 3 3 4 4 4 4 4 3 3 4 4 4 3 4 4 4 5 6 6 6 6 6 6 6 6 6 6 6 5 5 5 6 6 6 6 6 6 6 7 7 8 8
2 2 2 2 2 2 3 3 3 3 3 3 4 3 4 5 5 5 6 6 6 7 7 7 7 6 6 7 7 6 6 6 6 6 6 7 7 7 8 9 9 9 9
1 1 2 2 2 2 3 3 3 3 3 4 4 4 5 5 5 5 6 7 7 7 7 7 7 8 7 7 8 8 7 7 7 8 8 8 8 9 9 9 10 10 10
1 0 2 2 2 3 3 3 3 4 4 5 4 4 5 6 6 6 6 7 7 7 8 9 9 9 9 9 9 9 9 9 9 9 10 10 10 10 10 10 11 11 11
2 2 1 2 2 3 3 4 4 5 5 5 5 5 6 6 7 8 8 8 8 9 10 10 10 10 11 11 11 11 11 11 12 12 12 12 12 12 12 12 13 13 13
2 2 1 1 2 3 4 4 4 5 6 6 6 7 7 7 8 9 9 10 11 11 11 12 12 12 12 13 13 13 13 13 14 14 14 14 14 14 14 15 15 15 15
2 2 2 2 3 3 4 5 5 6 6 7 8 8 9 9 9 10 11 12 12 12 13 13 13 14 14 14 15 15 15 15 15 15 16 16 16 16 16 16 17 16 16
3 3 4 4 4 5 5 6 7 7 7 8 8 9 10 10 11 11 11 12 13 13 14 15 15 15 17 17 17 17 16 17 17 17 18 18 18 18 18 18 19 19 19
4 4 5 5 6 7 7 8 8 9 9 10 10 11 11 12 13 13 13 14 15 15 16 16 17 17 17 17 18 19 19 18 18 18 19 19 20 20 20 20 20 21 21
5 5 5 6 7 8 8 9 9 10 11 11 12 13 14 14 15 15 16 16 16 17 18 18 18 18 18 18 19 19 19 19 19 20 21 21 21 22 22 22 22 22 22
6 6 6 6 7 8 8 9 10 11 12 12 12 13 14 15 16 17 17 17 18 18 19 19 20 20 20 19 21 21 21 21 21 22 22 22 22 23 23 23 22 22 22
8 7 7 7 8 8 9 10 11 11 11 12 13 13 14 14 15 16 17 18 19 19 19 19 20 20 20 20 22 23 23 23 23 23 23 23 22 23 23 23 23 23 24
9 9 8 8 8 8 9 10 11 11 12 12 13 13 13 14 15 15 16 17 18 19 19 19 19 20 21 21 22 23 23 24 24 24 23 23 24 24 24 24 24 25 25
10 10 9 9 9 9 10 10 10 11 12 13 14 14 14 14 15 15 16 17 17 18 19 20 20 21 21 21 22 23 24 24 25 25 25 24 25 26 26 25 26 26 27
11 10 10 10 10 9 10 10 11 12 12 13 13 13 14 14 15 15 16 16 17 18 19 19 20 20 21 22 23 24 24 24 24 25 26 26 27 27 26 26 27 27 28
12 11 11 11 11 11 11 11 11 12 13 13 13 14 14 15 15 16 16 16 17 18 18 19 20 20 21 22 22 24 25 24 24 25 25 26 26 26 26 26 27 27 28
13 12 12 13 12 12 12 12 12 13 13 13 14 14 15 16 16 16 16 17 17 18 19 20 21 21 21 23 24 24 25 25 25 26 26 27 27 26 26 27 27 28 28
14 14 14 14 14 13 13 13 13 13 14 15 15 15 16 16 16 16 17 17 18 18 19 20 21 22 22 23 23 23 24 25 26 27 28 28 27 26 26 27 28 29 29
14 15 14 15 15 15 14 14 14 14 15 15 16 16 17 17 17 18 18 18 18 19 20 20 21 22 22 22 22 23 24 25 26 26 26 26 26 26 27 28 29 30 30
15 15 15 15 15 15 15 15 15 15 15 16 17 17 17 18 19 19 19 19 19 19 20 20 21 22 22 21 22 23 24 25 26 26 26 27 27 27 28 29 30 30 30
16 16 16 17 16 16 17 16 15 15 16 17 17 17 18 18 19 19 19 20 20 21 20 20 20 21 21 22 22 22 23 24 25 25 26 26 26 27 27 29 30 30 31
18 17 18 18 18 18 18 17 17 17 17 17 18 18 18 18 18 19 19 19 19 19 20 20 21 21 22 21 21 22 23 24 24 25 27 28 28 28 28 29 30 31 31
19 19 19 19 19 19 18 18 18 18 18 18 19 18 18 19 19 19 20 20 19 19 19 19 20 21 21 22 22 23 24 25 25 26 27 27 28 29 29 30 31 32 32
20 20 20 21 21 20 20 19 19 19 19 19 19 19 19 19 19 20 20 20 19 19 19 20 21 21 22 22 22 23 24 25 26 27 27 28 28 29 29 30 31 31 31
21 20 21 20 20 20 20 19 19 19 19 19 19 19 19 20 20 20 20 20 20 20 20 21 21 22 22 23 23 24 25 26 27 27 28 29 29 29 30 31 31 32 32
22 21 21 21 20 20 20 20 20 20 20 20 20 20 20 20 20 20 20 20 20 20 21 22 22 23 24 24 25 25 26 27 28 28 29 30 30 31 31 31 31 32 33

GEFSMA_500_meanwind_222.txt.gz
Wind_Speed
2 2 2 2 1 1 1 1 2 3 3 3 3 3 4 4 5 6 6 6 6 7 7 8 7 7 7 8 8 8 7 7 8 8 7 8 8 8 8 8 8 8 8
1 1 1 1 2 2 2 2 3 3 4 4 4 4 4 5 5 6 6 7 7 7 8 8 8 8 8 8 8 9 9 9 9 8 9 9 9 9 9 9 9 10 10
1 1 1 1 2 2 2 3 3 3 4 4 5 5 5 5 6 6 7 8 8 9 9 9 10 10 9 9 9 10 10 10 10 10 10 10 10 11 11 11 11 11 12
2 2 1 1 2 3 3 4 4 4 5 5 5 6 7 7 7 7 7 8 8 9 10 10 11 11 10 10 11 11 12 12 12 12 12 12 12 12 12 12 13 13 13
2 2 2 2 2 3 4 5 5 5 5 6 7 7 8 8 8 8 9 9 10 10 11 11 12 13 13 12 13 13 13 13 13 13 13 13 13 13 14 14 14 15 15
2 2 3 3 4 4 5 5 6 6 7 7 8 8 8 9 9 10 10 11 11 12 12 13 13 14 14 15 14 14 14 15 15 16 16 16 16 16 16 16 16 17 17
3 4 4 4 4 4 5 7 7 8 8 9 9 9 9 9 10 10 11 11 12 13 13 13 14 15 15 16 17 17 17 16 17 18 18 18 18 17 17 18 18 19 19
5 5 5 5 6 6 6 7 8 9 10 10 10 10 11 11 12 12 13 13 14 14 15 15 16 16 16 17 19 19 19 19 19 20 20 20 19 19 19 20 20 21 21
5 6 6 6 7 7 7 8 8 9 11 12 12 12 12 12 13 14 14 15 15 16 17 17 17 17 18 19 20 20 21 22 22 21 22 22 22 22 22 22 22 23 23
6 6 7 7 8 8 8 9 9 10 11 12 13 13 13 14 14 15 15 16 16 16 17 18 18 19 20 20 21 21 22 22 23 23 23 24 24 23 24 25 25 25 24
7 7 7 8 8 8 8 9 9 10 11 12 13 13 13 14 15 16 16 17 16 17 18 19 20 20 21 22 22 22 23 23 23 24 25 25 25 25 26 25 25 25 25
8 7 7 8 8 8 9 10 10 11 11 12 13 14 14 14 14 15 16 16 17 18 19 20 20 21 21 21 22 23 24 24 24 24 25 26 27 26 25 26 25 25 25
9 9 8 8 9 9 9 10 10 11 12 12 13 14 14 14 14 15 16 17 18 19 19 20 20 21 21 22 22 23 23 24 25 25 26 26 26 27 26 26 26 27 27
10 10 9 10 10 10 10 10 10 11 12 13 13 13 14 15 15 16 16 17 18 19 20 20 21 21 22 22 22 22 23 23 24 25 25 26 27 27 26 26 27 27 28
11 10 10 11 11 11 11 11 11 11 12 12 13 13 14 15 15 16 16 17 18 18 19 20 21 21 21 20 21 22 22 23 24 24 25 26 26 26 26 26 27 28 28
12 11 11 12 11 12 12 11 11 12 13 13 14 14 14 15 16 17 17 18 18 19 19 20 21 21 21 21 22 23 23 23 24 24 25 25 26 27 27 27 28 27 27
12 12 12 12 12 12 12 12 13 13 14 14 15 15 16 17 17 18 19 19 19 20 19 19 21 21 22 23 23 24 25 25 25 25 25 26 26 27 27 27 28 29 29
12 11 12 13 13 13 13 13 14 14 15 15 16 16 17 18 18 19 19 19 20 20 20 20 21 22 23 24 24 24 25 25 25 26 26 26 26 26 27 28 28 29 29
13 13 13 13 14 14 14 14 14 15 15 16 17 17 18 18 19 19 19 19 19 20 21 21 22 23 23 23 23 23 24 24 24 25 26 27 27 27 27 27 28 28 28
15 14 14 14 15 15 15 16 16 16 16 17 18 19 19 19 19 20 20 20 20 21 21 21 21 22 22 22 22 22 23 24 24 25 26 26 26 26 27 27 28 28 29
15 15 15 15 16 16 17 17 17 17 18 18 19 20 20 20 20 20 20 20 21 21 22 22 22 22 23 23 23 22 22 23 24 25 25 26 26 26 26 27 28 29 30
16 15 16 16 16 17 18 18 19 19 18 19 19 20 20 20 20 20 20 20 21 22 22 22 22 22 23 23 23 22 23 23 24 24 25 26 27 27 27 28 29 30 31
16 17 17 17 17 18 18 19 19 20 20 20 20 20 20 20 20 20 20 21 21 21 21 22 22 22 22 23 23 23 23 24 24 25 26 27 28 28 30 31 31 32 32
18 18 18 18 18 18 19 19 19 19 20 21 21 21 21 21 21 21 21 22 22 22 22 22 22 22 22 23 23 24 24 25 25 26 26 28 29 29 31 31 32 32 33
19 19 19 20 20 20 20 20 20 21 21 21 21 21 22 22 22 22 23 22 22 22 23 23 23 23 23 23 23 24 24 25 25 26 27 28 28 29 31 32 32 32 33
21 21 21 21 21 21 21 21 22 23 22 22 22 22 23 23 23 23 23 23 23 23 23 23 23 23 23 23 24 24 25 25 26 27 28 29 30 30 31 32 33 33 34

GEFSMA_500_meanwind_228.txt.gz
Wind_Speed
3 3 3 3 3 3 3 4 3 4 4 4 5 5 6 8 8 8 8 7 8 8 9 8 9 9 9 9 10 9 9 9 9 10 9 9 9 9 9 9 9 9 9
2 2 2 2 2 2 2 3 3 3 3 3 4 5 6 7 7 8 8 8 8 8 8 9 9 10 10 10 10 10 11 10 10 10 10 10 10 10 10 10 10 10 10
2 1 1 2 2 2 2 2 3 3 3 4 4 5 5 6 7 8 8 9 10 10 9 10 10 11 11 10 10 11 11 11 11 11 11 10 10 10 11 11 11 11 12
2 1 0 1 2 3 3 3 3 4 4 5 5 6 6 7 8 8 9 9 10 10 11 11 11 12 13 12 12 11 12 12 12 13 12 12 12 12 12 12 12 13 13
2 2 1 1 3 4 4 4 4 5 6 6 6 6 7 8 9 9 9 10 10 11 11 11 12 12 13 14 13 13 13 13 14 14 14 14 14 14 14 14 14 14 15
2 2 2 2 3 4 5 6 6 7 7 7 7 8 8 8 9 10 10 11 11 11 12 12 13 13 13 14 14 15 15 15 15 15 15 15 15 15 15 15 16 17 16
3 3 4 4 5 6 7 7 7 7 8 8 9 9 9 10 10 11 12 12 12 12 13 13 14 14 15 15 15 15 16 17 17 17 17 17 17 17 17 18 18 19 18
4 4 4 5 5 6 6 7 8 8 8 8 9 9 9 10 12 12 13 13 14 14 15 15 15 16 16 16 17 17 17 17 18 18 18 19 19 19 20 20 20 20 20
4 5 5 5 5 6 6 7 8 9 9 10 10 10 10 11 11 12 13 14 15 15 15 16 16 16 16 17 18 18 18 19 19 19 19 20 20 20 21 21 21 21 22
5 5 5 5 6 6 6 7 7 8 9 10 11 11 12 12 12 13 14 15 15 16 17 17 17 18 18 19 18 19 20 20 21 21 21 22 22 22 22 22 23 23 23
7 7 7 7 7 7 7 8 8 9 9 10 10 11 11 12 13 13 14 15 16 17 17 17 18 19 20 21 20 20 21 22 22 22 23 23 23 24 24 24 25 26 26
9 8 8 8 8 8 8 8 9 10 11 11 11 11 11 12 12 13 14 15 16 17 17 17 18 19 20 20 21 21 22 23 23 23 23 23 23 23 24 25 25 26 26
10 10 10 9 9 9 9 10 10 10 11 12 12 12 13 13 14 14 14 15 16 16 17 17 17 19 19 20 20 21 22 23 23 23 23 23 24 24 23 23 23 24 25
11 11 11 11 10 10 11 11 11 11 11 12 13 13 13 14 14 15 16 16 17 17 18 18 19 19 19 19 20 20 21 22 23 23 23 23 23 23 23 23 24 25 25
12 12 12 12 11 11 11 11 12 12 12 12 13 14 15 15 15 16 16 17 18 19 19 19 20 20 21 20 20 21 21 22 22 23 23 23 23 23 23 24 25 25 25
13 13 14 13 13 13 12 12 13 13 13 13 14 14 15 16 16 17 18 18 19 20 20 21 21 22 22 22 22 23 23 23 24 23 23 23 24 24 24 24 25 26 26
14 14 14 14 13 13 13 13 14 14 14 15 15 15 16 17 18 18 19 19 19 20 20 21 22 22 22 23 23 23 24 24 25 24 24 24 24 24 25 26 26 26 26
15 14 14 14 14 14 14 14 14 15 15 16 16 17 17 18 18 18 18 19 19 20 20 21 22 22 22 23 23 23 24 24 24 24 24 24 24 25 26 26 26 26 26
15 14 14 14 14 15 15 15 16 16 17 17 17 18 18 18 18 18 19 20 20 20 20 20 21 22 22 23 23 23 23 23 23 24 24 25 26 26 26 26 26 27 27
17 16 16 15 15 16 16 17 17 18 18 18 18 19 19 19 19 20 20 20 21 21 21 20 21 21 21 22 21 21 22 22 22 23 25 25 26 26 26 26 27 28 28
18 19 18 17 17 17 18 18 18 18 19 19 20 20 20 20 20 20 21 21 21 21 21 21 21 21 21 21 21 21 21 21 22 23 24 24 24 25 26 26 27 27 28
20 18 18 18 18 19 19 19 19 19 20 20 20 20 20 20 21 21 21 22 22 22 21 21 21 21 21 21 21 21 21 21 22 23 24 24 24 25 26 26 27 28 29
20 19 19 19 20 20 20 20 20 20 21 21 21 21 21 21 21 21 21 21 21 21 21 21 21 21 21 21 21 21 22 22 23 24 24 25 25 26 26 27 27 28 29
21 21 21 21 21 21 20 20 20 20 20 21 21 21 21 22 23 23 22 22 22 21 21 22 22 22 22 21 21 21 22 23 23 23 24 25 25 26 27 27 28 29 30
23 22 22 22 23 23 22 22 21 22 22 22 22 23 23 23 23 23 23 23 23 23 22 22 22 22 22 22 22 22 22 23 23 24 24 25 26 26 27 28 29 30 31
24 23 23 22 22 23 23 23 23 24 24 24 24 25 25 25 25 25 25 24 23 23 23 23 22 22 23 23 23 23 23 23 24 24 25 26 27 27 28 29 29 30 31

GEFSMA_500_meanwind_234.txt.gz
Wind_Speed
1 1 2 2 2 2 2 2 2 2 3 3 4 6 7 6 6 6 6 7 7 7 7 7 7 8 8 8 9 9 9 8 8 8 8 8 7 8 7 7 7 7 7
2 1 1 2 2 2 2 2 2 3 3 4 5 6 7 6 6 7 7 7 8 8 8 8 8 9 9 9 9 10 10 10 10 10 9 9 9 9 9 9 9 8 8
2 2 2 2 3 4 3 3 3 3 4 5 6 7 7 7 7 8 8 8 8 8 9 9 10 10 10 10 10 11 10 10 11 11 10 10 11 10 10 10 10 10 10
3 3 4 3 4 4 4 4 4 4 5 5 6 7 7 8 9 9 9 10 9 10 10 10 10 11 11 11 11 11 11 11 11 11 11 12 12 12 12 12 12 12 12
4 4 4 4 4 4 4 4 5 5 5 5 6 6 7 8 9 10 10 10 10 10 10 11 11 12 12 11 11 12 12 12 12 12 13 13 13 13 13 14 13 13 13
5 5 5 5 5 5 5 5 5 6 6 6 7 7 8 9 10 10 11 11 11 11 12 12 12 12 12 12 12 13 13 13 13 14 14 14 14 14 14 14 14 14 14
6 6 7 7 7 6 6 6 7 7 8 7 8 8 8 9 10 11 11 12 12 12 13 13 13 13 13 13 14 14 14 14 14 14 14 15 15 16 15 15 15 16 16
6 7 7 8 7 7 7 7 7 8 8 8 8 8 9 9 10 11 12 12 12 12 12 13 14 14 15 15 15 14 14 14 14 15 16 17 17 18 18 18 18 18 18
7 7 8 9 8 8 8 8 8 8 9 9 9 9 9 10 10 11 11 11 12 12 13 14 14 15 15 16 16 16 16 16 16 17 17 18 19 19 19 19 19 19 20
8 8 9 9 9 9 9 9 9 9 9 9 9 10 10 10 10 11 11 12 12 12 13 13 14 14 15 16 16 17 17 17 18 19 19 19 20 20 21 21 21 21 21
9 9 10 10 10 10 10 11 10 10 10 11 11 11 12 12 12 12 12 12 12 13 14 14 14 15 16 16 17 17 17 18 19 19 20 20 20 20 21 21 22 22 22
9 10 11 11 11 11 11 12 12 11 11 11 12 13 13 13 13 13 13 12 13 14 15 15 15 15 16 16 17 17 18 19 19 19 20 20 21 21 21 22 22 22 22
11 12 12 13 13 13 12 12 12 12 12 12 13 13 14 14 14 14 14 14 14 15 15 15 16 16 17 17 17 17 18 19 19 20 20 21 21 22 22 22 22 22 23
13 14 14 14 14 13 13 13 12 13 13 13 13 14 14 15 15 15 15 15 15 16 16 17 17 17 18 18 18 18 19 20 20 21 22 22 22 22 22 23 23 23 23
14 14 15 15 15 14 14 14 14 14 14 14 14 15 15 15 15 16 16 16 16 17 17 18 18 18 19 19 19 19 20 21 21 22 22 22 22 21 21 22 22 23 23
14 15 16 16 16 16 15 15 15 15 15 15 15 15 16 16 16 16 16 17 17 18 17 18 19 19 19 19 20 20 21 21 22 23 23 23 23 23 22 22 22 22 22
15 16 17 17 17 17 16 16 16 16 16 17 16 17 17 17 17 18 18 18 18 19 19 19 19 20 20 20 21 22 21 21 22 23 23 23 23 23 23 22 22 22 23
16 17 17 18 18 18 17 17 17 18 18 18 18 18 18 18 18 19 19 19 19 19 19 19 20 21 21 21 22 22 22 22 22 22 21 22 22 22 22 22 22 23 23
17 17 18 19 19 19 19 18 19 19 19 19 19 19 19 19 19 19 19 20 19 19 20 20 20 21 22 22 22 22 22 22 22 21 20 20 21 22 22 22 23 23 23
18 19 19 19 20 20 19 20 20 20 19 19 19 19 19 19 19 19 20 20 20 21 21 21 21 21 22 22 22 22 22 22 21 21 20 21 21 22 22 23 24 24 24
20 20 21 21 22 22 21 21 21 20 20 20 20 20 20 20 20 20 21 21 21 22 22 22 22 22 22 22 22 22 22 22 21 20 20 20 20 21 22 23 24 24 24
22 22 22 22 22 22 22 22 21 21 21 21 21 21 21 21 20 20 21 21 22 22 23 23 22 22 22 22 22 21 20 20 20 20 20 20 20 21 21 22 23 24 24
23 24 24 24 24 23 23 22 22 22 22 22 22 22 21 21 21 21 21 21 22 22 22 23 23 22 22 22 22 21 21 20 20 20 20 20 21 21 21 22 23 23 24
25 25 25 25 24 24 24 24 25 25 25 24 24 24 24 23 22 22 22 23 23 23 23 23 23 23 23 23 22 22 21 21 21 21 21 21 21 22 22 23 23 24 24
25 25 25 25 25 26 26 26 26 25 25 25 26 26 25 25 25 25 24 24 24 24 24 24 24 24 24 24 23 22 22 22 22 22 22 23 23 23 23 23 24 25 25
25 26 26 26 27 27 26 26 26 26 26 26 27 27 26 27 27 27 27 26 26 25 26 26 25 25 25 25 24 24 23 23 22 22 23 23 24 24 24 24 25 26 26